<?xml version="1.0" encoding="UTF-8" standalone="no" ?>
<gpx xmlns="http://www.topografix.com/GPX/1/1" xmlns:xsi="http://www.w3.org/2001/XMLSchema-instance" xsi:schemaLocation="http://www.topografix.com/GPX/1/1 http://www.topografix.com/GPX/1/1/gpx.xsd" version="1.1" creator="VisuGPX - https://www.visugpx.com">
  <metadata>
    <name>Val de Seine</name>
    <desc><![CDATA[Belle rando au départ de Baigneux les Juifs en remontant la Seine jusqu'à l'abbaye de Oigny.]]></desc>
  </metadata>
  <trk>
    <name><![CDATA[Tracé actuel: 08 MAI 2016 10:11]]></name>
    <trkseg>
      <trkpt lat="47.60036" lon="4.65012">
        <ele>406.29</ele>
        <time>2016-05-08T08:11:00Z</time>
      </trkpt>
      <trkpt lat="47.60036" lon="4.65012">
        <ele>407.74</ele>
        <time>2016-05-08T08:11:01Z</time>
      </trkpt>
      <trkpt lat="47.60036" lon="4.65012">
        <ele>403.41</ele>
        <time>2016-05-08T08:11:15Z</time>
      </trkpt>
      <trkpt lat="47.60036" lon="4.65012">
        <ele>408.7</ele>
        <time>2016-05-08T08:11:16Z</time>
      </trkpt>
      <trkpt lat="47.60036" lon="4.65012">
        <ele>412.54</ele>
        <time>2016-05-08T08:11:23Z</time>
      </trkpt>
      <trkpt lat="47.60036" lon="4.65012">
        <ele>408.22</ele>
        <time>2016-05-08T08:11:24Z</time>
      </trkpt>
      <trkpt lat="47.60036" lon="4.65012">
        <ele>403.41</ele>
        <time>2016-05-08T08:11:26Z</time>
      </trkpt>
      <trkpt lat="47.60036" lon="4.65012">
        <ele>408.7</ele>
        <time>2016-05-08T08:11:27Z</time>
      </trkpt>
      <trkpt lat="47.60036" lon="4.65012">
        <ele>407.74</ele>
        <time>2016-05-08T08:11:28Z</time>
      </trkpt>
      <trkpt lat="47.60037" lon="4.65013">
        <ele>412.54</ele>
        <time>2016-05-08T08:11:41Z</time>
      </trkpt>
      <trkpt lat="47.60038" lon="4.65013">
        <ele>407.74</ele>
        <time>2016-05-08T08:11:42Z</time>
      </trkpt>
      <trkpt lat="47.60039" lon="4.65012">
        <ele>407.26</ele>
        <time>2016-05-08T08:11:55Z</time>
      </trkpt>
      <trkpt lat="47.60037" lon="4.65013">
        <ele>411.1</ele>
        <time>2016-05-08T08:12:08Z</time>
      </trkpt>
      <trkpt lat="47.60037" lon="4.65013">
        <ele>405.81</ele>
        <time>2016-05-08T08:12:09Z</time>
      </trkpt>
      <trkpt lat="47.60037" lon="4.65013">
        <ele>401.97</ele>
        <time>2016-05-08T08:12:11Z</time>
      </trkpt>
      <trkpt lat="47.60037" lon="4.65013">
        <ele>409.18</ele>
        <time>2016-05-08T08:12:12Z</time>
      </trkpt>
      <trkpt lat="47.60036" lon="4.65013">
        <ele>407.74</ele>
        <time>2016-05-08T08:12:24Z</time>
      </trkpt>
      <trkpt lat="47.60033" lon="4.65012">
        <ele>408.22</ele>
        <time>2016-05-08T08:12:36Z</time>
      </trkpt>
      <trkpt lat="47.60036" lon="4.65011">
        <ele>407.74</ele>
        <time>2016-05-08T08:12:51Z</time>
      </trkpt>
      <trkpt lat="47.60036" lon="4.65011">
        <ele>408.22</ele>
        <time>2016-05-08T08:13:00Z</time>
      </trkpt>
      <trkpt lat="47.60032" lon="4.65009">
        <ele>407.74</ele>
        <time>2016-05-08T08:13:18Z</time>
      </trkpt>
      <trkpt lat="47.60033" lon="4.65009">
        <ele>409.18</ele>
        <time>2016-05-08T08:13:20Z</time>
      </trkpt>
      <trkpt lat="47.60036" lon="4.65012">
        <ele>407.74</ele>
        <time>2016-05-08T08:13:32Z</time>
      </trkpt>
      <trkpt lat="47.60039" lon="4.65015">
        <ele>407.26</ele>
        <time>2016-05-08T08:13:47Z</time>
      </trkpt>
      <trkpt lat="47.60039" lon="4.65016">
        <ele>408.22</ele>
        <time>2016-05-08T08:13:59Z</time>
      </trkpt>
      <trkpt lat="47.60036" lon="4.65016">
        <ele>408.22</ele>
        <time>2016-05-08T08:14:19Z</time>
      </trkpt>
      <trkpt lat="47.60036" lon="4.65013">
        <ele>407.74</ele>
        <time>2016-05-08T08:14:32Z</time>
      </trkpt>
      <trkpt lat="47.60037" lon="4.65013">
        <ele>411.58</ele>
        <time>2016-05-08T08:14:39Z</time>
      </trkpt>
      <trkpt lat="47.60037" lon="4.65013">
        <ele>411.58</ele>
        <time>2016-05-08T08:14:40Z</time>
      </trkpt>
      <trkpt lat="47.60037" lon="4.65013">
        <ele>402.45</ele>
        <time>2016-05-08T08:14:41Z</time>
      </trkpt>
      <trkpt lat="47.60037" lon="4.65013">
        <ele>409.66</ele>
        <time>2016-05-08T08:14:42Z</time>
      </trkpt>
      <trkpt lat="47.60037" lon="4.65014">
        <ele>408.22</ele>
        <time>2016-05-08T08:14:45Z</time>
      </trkpt>
      <trkpt lat="47.60037" lon="4.65014">
        <ele>401.49</ele>
        <time>2016-05-08T08:14:46Z</time>
      </trkpt>
      <trkpt lat="47.60037" lon="4.65014">
        <ele>406.29</ele>
        <time>2016-05-08T08:14:47Z</time>
      </trkpt>
      <trkpt lat="47.60037" lon="4.65014">
        <ele>408.22</ele>
        <time>2016-05-08T08:14:49Z</time>
      </trkpt>
      <trkpt lat="47.60037" lon="4.65015">
        <ele>407.74</ele>
        <time>2016-05-08T08:15:04Z</time>
      </trkpt>
      <trkpt lat="47.60037" lon="4.65015">
        <ele>408.22</ele>
        <time>2016-05-08T08:15:17Z</time>
      </trkpt>
      <trkpt lat="47.60036" lon="4.65015">
        <ele>408.22</ele>
        <time>2016-05-08T08:15:34Z</time>
      </trkpt>
      <trkpt lat="47.60039" lon="4.65013">
        <ele>407.26</ele>
        <time>2016-05-08T08:15:49Z</time>
      </trkpt>
      <trkpt lat="47.60047" lon="4.65015">
        <ele>407.74</ele>
        <time>2016-05-08T08:16:03Z</time>
      </trkpt>
      <trkpt lat="47.60058" lon="4.65026">
        <ele>406.77</ele>
        <time>2016-05-08T08:16:18Z</time>
      </trkpt>
      <trkpt lat="47.60073" lon="4.65035">
        <ele>406.77</ele>
        <time>2016-05-08T08:16:32Z</time>
      </trkpt>
      <trkpt lat="47.60084" lon="4.65038">
        <ele>406.29</ele>
        <time>2016-05-08T08:16:44Z</time>
      </trkpt>
      <trkpt lat="47.60088" lon="4.65044">
        <ele>406.29</ele>
        <time>2016-05-08T08:16:57Z</time>
      </trkpt>
      <trkpt lat="47.60091" lon="4.65048">
        <ele>406.29</ele>
        <time>2016-05-08T08:17:01Z</time>
      </trkpt>
      <trkpt lat="47.60102" lon="4.65068">
        <ele>405.33</ele>
        <time>2016-05-08T08:17:16Z</time>
      </trkpt>
      <trkpt lat="47.60114" lon="4.65091">
        <ele>404.37</ele>
        <time>2016-05-08T08:17:32Z</time>
      </trkpt>
      <trkpt lat="47.60123" lon="4.65112">
        <ele>403.89</ele>
        <time>2016-05-08T08:17:48Z</time>
      </trkpt>
      <trkpt lat="47.60135" lon="4.6513">
        <ele>401.97</ele>
        <time>2016-05-08T08:18:05Z</time>
      </trkpt>
      <trkpt lat="47.60147" lon="4.65149">
        <ele>400.53</ele>
        <time>2016-05-08T08:18:21Z</time>
      </trkpt>
      <trkpt lat="47.60158" lon="4.65173">
        <ele>398.6</ele>
        <time>2016-05-08T08:18:37Z</time>
      </trkpt>
      <trkpt lat="47.60155" lon="4.65177">
        <ele>398.6</ele>
        <time>2016-05-08T08:18:50Z</time>
      </trkpt>
      <trkpt lat="47.60156" lon="4.65181">
        <ele>398.12</ele>
        <time>2016-05-08T08:19:07Z</time>
      </trkpt>
      <trkpt lat="47.60153" lon="4.6518">
        <ele>398.12</ele>
        <time>2016-05-08T08:19:21Z</time>
      </trkpt>
      <trkpt lat="47.60131" lon="4.65172">
        <ele>398.12</ele>
        <time>2016-05-08T08:19:38Z</time>
      </trkpt>
      <trkpt lat="47.60129" lon="4.65171">
        <ele>398.12</ele>
        <time>2016-05-08T08:19:56Z</time>
      </trkpt>
      <trkpt lat="47.60155" lon="4.65176">
        <ele>398.12</ele>
        <time>2016-05-08T08:20:08Z</time>
      </trkpt>
      <trkpt lat="47.60155" lon="4.65176">
        <ele>398.12</ele>
        <time>2016-05-08T08:20:17Z</time>
      </trkpt>
      <trkpt lat="47.60158" lon="4.65184">
        <ele>398.6</ele>
        <time>2016-05-08T08:20:22Z</time>
      </trkpt>
      <trkpt lat="47.6016" lon="4.65189">
        <ele>398.12</ele>
        <time>2016-05-08T08:20:27Z</time>
      </trkpt>
      <trkpt lat="47.60165" lon="4.65202">
        <ele>397.16</ele>
        <time>2016-05-08T08:20:37Z</time>
      </trkpt>
      <trkpt lat="47.60176" lon="4.65225">
        <ele>395.72</ele>
        <time>2016-05-08T08:20:53Z</time>
      </trkpt>
      <trkpt lat="47.60187" lon="4.65249">
        <ele>394.76</ele>
        <time>2016-05-08T08:21:08Z</time>
      </trkpt>
      <trkpt lat="47.60192" lon="4.6526">
        <ele>394.28</ele>
        <time>2016-05-08T08:21:19Z</time>
      </trkpt>
      <trkpt lat="47.60202" lon="4.65277">
        <ele>393.32</ele>
        <time>2016-05-08T08:21:32Z</time>
      </trkpt>
      <trkpt lat="47.60215" lon="4.65294">
        <ele>392.36</ele>
        <time>2016-05-08T08:21:46Z</time>
      </trkpt>
      <trkpt lat="47.60228" lon="4.65313">
        <ele>391.87</ele>
        <time>2016-05-08T08:22:01Z</time>
      </trkpt>
      <trkpt lat="47.60244" lon="4.65333">
        <ele>391.87</ele>
        <time>2016-05-08T08:22:19Z</time>
      </trkpt>
      <trkpt lat="47.6025" lon="4.65342">
        <ele>391.87</ele>
        <time>2016-05-08T08:22:27Z</time>
      </trkpt>
      <trkpt lat="47.60267" lon="4.65358">
        <ele>391.87</ele>
        <time>2016-05-08T08:22:45Z</time>
      </trkpt>
      <trkpt lat="47.60282" lon="4.65363">
        <ele>392.36</ele>
        <time>2016-05-08T08:22:59Z</time>
      </trkpt>
      <trkpt lat="47.60283" lon="4.65363">
        <ele>392.36</ele>
        <time>2016-05-08T08:23:00Z</time>
      </trkpt>
      <trkpt lat="47.60298" lon="4.65365">
        <ele>393.32</ele>
        <time>2016-05-08T08:23:16Z</time>
      </trkpt>
      <trkpt lat="47.60312" lon="4.65367">
        <ele>393.8</ele>
        <time>2016-05-08T08:23:30Z</time>
      </trkpt>
      <trkpt lat="47.60325" lon="4.65368">
        <ele>394.76</ele>
        <time>2016-05-08T08:23:44Z</time>
      </trkpt>
      <trkpt lat="47.60336" lon="4.65371">
        <ele>395.72</ele>
        <time>2016-05-08T08:23:56Z</time>
      </trkpt>
      <trkpt lat="47.60341" lon="4.65379">
        <ele>396.2</ele>
        <time>2016-05-08T08:24:09Z</time>
      </trkpt>
      <trkpt lat="47.60341" lon="4.65385">
        <ele>396.2</ele>
        <time>2016-05-08T08:24:14Z</time>
      </trkpt>
      <trkpt lat="47.60341" lon="4.65398">
        <ele>396.2</ele>
        <time>2016-05-08T08:24:22Z</time>
      </trkpt>
      <trkpt lat="47.60342" lon="4.65422">
        <ele>397.16</ele>
        <time>2016-05-08T08:24:36Z</time>
      </trkpt>
      <trkpt lat="47.60344" lon="4.65437">
        <ele>397.64</ele>
        <time>2016-05-08T08:24:46Z</time>
      </trkpt>
      <trkpt lat="47.60346" lon="4.65456">
        <ele>398.12</ele>
        <time>2016-05-08T08:24:58Z</time>
      </trkpt>
      <trkpt lat="47.60346" lon="4.65465">
        <ele>398.12</ele>
        <time>2016-05-08T08:25:03Z</time>
      </trkpt>
      <trkpt lat="47.60347" lon="4.65485">
        <ele>398.6</ele>
        <time>2016-05-08T08:25:16Z</time>
      </trkpt>
      <trkpt lat="47.60349" lon="4.65504">
        <ele>399.08</ele>
        <time>2016-05-08T08:25:27Z</time>
      </trkpt>
      <trkpt lat="47.6035" lon="4.65532">
        <ele>399.57</ele>
        <time>2016-05-08T08:25:44Z</time>
      </trkpt>
      <trkpt lat="47.6035" lon="4.65538">
        <ele>400.05</ele>
        <time>2016-05-08T08:25:47Z</time>
      </trkpt>
      <trkpt lat="47.60355" lon="4.65562">
        <ele>400.05</ele>
        <time>2016-05-08T08:26:02Z</time>
      </trkpt>
      <trkpt lat="47.60356" lon="4.65578">
        <ele>400.05</ele>
        <time>2016-05-08T08:26:11Z</time>
      </trkpt>
      <trkpt lat="47.60359" lon="4.65598">
        <ele>400.05</ele>
        <time>2016-05-08T08:26:24Z</time>
      </trkpt>
      <trkpt lat="47.60359" lon="4.65616">
        <ele>406.77</ele>
        <time>2016-05-08T08:26:34Z</time>
      </trkpt>
      <trkpt lat="47.60359" lon="4.65617">
        <ele>400.05</ele>
        <time>2016-05-08T08:26:35Z</time>
      </trkpt>
      <trkpt lat="47.60359" lon="4.65621">
        <ele>406.77</ele>
        <time>2016-05-08T08:26:37Z</time>
      </trkpt>
      <trkpt lat="47.60359" lon="4.65623">
        <ele>405.33</ele>
        <time>2016-05-08T08:26:38Z</time>
      </trkpt>
      <trkpt lat="47.60359" lon="4.65624">
        <ele>401.01</ele>
        <time>2016-05-08T08:26:39Z</time>
      </trkpt>
      <trkpt lat="47.6036" lon="4.65628">
        <ele>408.7</ele>
        <time>2016-05-08T08:26:41Z</time>
      </trkpt>
      <trkpt lat="47.60361" lon="4.65629">
        <ele>401.01</ele>
        <time>2016-05-08T08:26:42Z</time>
      </trkpt>
      <trkpt lat="47.60367" lon="4.65648">
        <ele>400.53</ele>
        <time>2016-05-08T08:26:54Z</time>
      </trkpt>
      <trkpt lat="47.60369" lon="4.65659">
        <ele>401.01</ele>
        <time>2016-05-08T08:27:01Z</time>
      </trkpt>
      <trkpt lat="47.60371" lon="4.65668">
        <ele>401.49</ele>
        <time>2016-05-08T08:27:06Z</time>
      </trkpt>
      <trkpt lat="47.60376" lon="4.65697">
        <ele>402.45</ele>
        <time>2016-05-08T08:27:22Z</time>
      </trkpt>
      <trkpt lat="47.60377" lon="4.65701">
        <ele>402.93</ele>
        <time>2016-05-08T08:27:24Z</time>
      </trkpt>
      <trkpt lat="47.60386" lon="4.65721">
        <ele>403.89</ele>
        <time>2016-05-08T08:27:39Z</time>
      </trkpt>
      <trkpt lat="47.60395" lon="4.65736">
        <ele>404.85</ele>
        <time>2016-05-08T08:27:52Z</time>
      </trkpt>
      <trkpt lat="47.60398" lon="4.65744">
        <ele>405.33</ele>
        <time>2016-05-08T08:27:57Z</time>
      </trkpt>
      <trkpt lat="47.60401" lon="4.65756">
        <ele>405.81</ele>
        <time>2016-05-08T08:28:06Z</time>
      </trkpt>
      <trkpt lat="47.60405" lon="4.65776">
        <ele>407.74</ele>
        <time>2016-05-08T08:28:20Z</time>
      </trkpt>
      <trkpt lat="47.60406" lon="4.65781">
        <ele>407.74</ele>
        <time>2016-05-08T08:28:23Z</time>
      </trkpt>
      <trkpt lat="47.60409" lon="4.65793">
        <ele>408.22</ele>
        <time>2016-05-08T08:28:31Z</time>
      </trkpt>
      <trkpt lat="47.60412" lon="4.65817">
        <ele>409.18</ele>
        <time>2016-05-08T08:28:46Z</time>
      </trkpt>
      <trkpt lat="47.60411" lon="4.65824">
        <ele>410.14</ele>
        <time>2016-05-08T08:28:51Z</time>
      </trkpt>
      <trkpt lat="47.60413" lon="4.65834">
        <ele>410.62</ele>
        <time>2016-05-08T08:28:58Z</time>
      </trkpt>
      <trkpt lat="47.60413" lon="4.65837">
        <ele>411.1</ele>
        <time>2016-05-08T08:29:00Z</time>
      </trkpt>
      <trkpt lat="47.60414" lon="4.6584">
        <ele>411.58</ele>
        <time>2016-05-08T08:29:02Z</time>
      </trkpt>
      <trkpt lat="47.60414" lon="4.65855">
        <ele>412.54</ele>
        <time>2016-05-08T08:29:12Z</time>
      </trkpt>
      <trkpt lat="47.60415" lon="4.6586">
        <ele>412.54</ele>
        <time>2016-05-08T08:29:15Z</time>
      </trkpt>
      <trkpt lat="47.60416" lon="4.65881">
        <ele>413.98</ele>
        <time>2016-05-08T08:29:29Z</time>
      </trkpt>
      <trkpt lat="47.60417" lon="4.659">
        <ele>414.95</ele>
        <time>2016-05-08T08:29:42Z</time>
      </trkpt>
      <trkpt lat="47.60419" lon="4.65918">
        <ele>416.39</ele>
        <time>2016-05-08T08:29:55Z</time>
      </trkpt>
      <trkpt lat="47.60418" lon="4.65931">
        <ele>416.87</ele>
        <time>2016-05-08T08:30:04Z</time>
      </trkpt>
      <trkpt lat="47.60419" lon="4.65954">
        <ele>418.79</ele>
        <time>2016-05-08T08:30:19Z</time>
      </trkpt>
      <trkpt lat="47.6042" lon="4.65976">
        <ele>419.75</ele>
        <time>2016-05-08T08:30:34Z</time>
      </trkpt>
      <trkpt lat="47.60421" lon="4.65999">
        <ele>420.23</ele>
        <time>2016-05-08T08:30:49Z</time>
      </trkpt>
      <trkpt lat="47.60426" lon="4.66026">
        <ele>421.19</ele>
        <time>2016-05-08T08:31:05Z</time>
      </trkpt>
      <trkpt lat="47.60433" lon="4.66048">
        <ele>421.68</ele>
        <time>2016-05-08T08:31:19Z</time>
      </trkpt>
      <trkpt lat="47.60437" lon="4.66068">
        <ele>422.16</ele>
        <time>2016-05-08T08:31:32Z</time>
      </trkpt>
      <trkpt lat="47.60443" lon="4.66089">
        <ele>423.12</ele>
        <time>2016-05-08T08:31:45Z</time>
      </trkpt>
      <trkpt lat="47.60444" lon="4.66096">
        <ele>423.12</ele>
        <time>2016-05-08T08:31:49Z</time>
      </trkpt>
      <trkpt lat="47.60449" lon="4.66117">
        <ele>424.08</ele>
        <time>2016-05-08T08:32:02Z</time>
      </trkpt>
      <trkpt lat="47.60455" lon="4.66141">
        <ele>424.56</ele>
        <time>2016-05-08T08:32:17Z</time>
      </trkpt>
      <trkpt lat="47.60452" lon="4.66145">
        <ele>425.04</ele>
        <time>2016-05-08T08:32:24Z</time>
      </trkpt>
      <trkpt lat="47.60455" lon="4.66164">
        <ele>426</ele>
        <time>2016-05-08T08:32:36Z</time>
      </trkpt>
      <trkpt lat="47.60458" lon="4.66187">
        <ele>426.48</ele>
        <time>2016-05-08T08:32:50Z</time>
      </trkpt>
      <trkpt lat="47.60461" lon="4.66209">
        <ele>427.44</ele>
        <time>2016-05-08T08:33:04Z</time>
      </trkpt>
      <trkpt lat="47.60455" lon="4.66211">
        <ele>427.92</ele>
        <time>2016-05-08T08:33:18Z</time>
      </trkpt>
      <trkpt lat="47.60453" lon="4.66211">
        <ele>427.92</ele>
        <time>2016-05-08T08:33:39Z</time>
      </trkpt>
      <trkpt lat="47.60452" lon="4.66211">
        <ele>427.92</ele>
        <time>2016-05-08T08:34:01Z</time>
      </trkpt>
      <trkpt lat="47.60451" lon="4.66211">
        <ele>427.92</ele>
        <time>2016-05-08T08:34:30Z</time>
      </trkpt>
      <trkpt lat="47.60451" lon="4.66211">
        <ele>427.44</ele>
        <time>2016-05-08T08:34:43Z</time>
      </trkpt>
      <trkpt lat="47.60451" lon="4.66216">
        <ele>427.92</ele>
        <time>2016-05-08T08:34:47Z</time>
      </trkpt>
      <trkpt lat="47.60454" lon="4.66231">
        <ele>427.44</ele>
        <time>2016-05-08T08:34:57Z</time>
      </trkpt>
      <trkpt lat="47.60451" lon="4.66239">
        <ele>427.44</ele>
        <time>2016-05-08T08:35:05Z</time>
      </trkpt>
      <trkpt lat="47.60437" lon="4.66249">
        <ele>427.44</ele>
        <time>2016-05-08T08:35:19Z</time>
      </trkpt>
      <trkpt lat="47.60422" lon="4.66258">
        <ele>427.92</ele>
        <time>2016-05-08T08:35:33Z</time>
      </trkpt>
      <trkpt lat="47.60411" lon="4.66265">
        <ele>427.92</ele>
        <time>2016-05-08T08:35:45Z</time>
      </trkpt>
      <trkpt lat="47.60398" lon="4.66275">
        <ele>428.89</ele>
        <time>2016-05-08T08:35:57Z</time>
      </trkpt>
      <trkpt lat="47.60386" lon="4.66282">
        <ele>428.89</ele>
        <time>2016-05-08T08:36:06Z</time>
      </trkpt>
      <trkpt lat="47.6037" lon="4.66294">
        <ele>428.89</ele>
        <time>2016-05-08T08:36:20Z</time>
      </trkpt>
      <trkpt lat="47.60357" lon="4.66303">
        <ele>428.89</ele>
        <time>2016-05-08T08:36:32Z</time>
      </trkpt>
      <trkpt lat="47.60347" lon="4.6631">
        <ele>428.89</ele>
        <time>2016-05-08T08:36:42Z</time>
      </trkpt>
      <trkpt lat="47.60331" lon="4.6632">
        <ele>429.37</ele>
        <time>2016-05-08T08:36:56Z</time>
      </trkpt>
      <trkpt lat="47.60327" lon="4.6633">
        <ele>429.37</ele>
        <time>2016-05-08T08:37:02Z</time>
      </trkpt>
      <trkpt lat="47.60331" lon="4.66351">
        <ele>428.4</ele>
        <time>2016-05-08T08:37:15Z</time>
      </trkpt>
      <trkpt lat="47.60335" lon="4.66367">
        <ele>428.89</ele>
        <time>2016-05-08T08:37:25Z</time>
      </trkpt>
      <trkpt lat="47.60342" lon="4.66396">
        <ele>429.85</ele>
        <time>2016-05-08T08:37:42Z</time>
      </trkpt>
      <trkpt lat="47.60349" lon="4.66423">
        <ele>430.33</ele>
        <time>2016-05-08T08:37:58Z</time>
      </trkpt>
      <trkpt lat="47.60357" lon="4.66451">
        <ele>430.33</ele>
        <time>2016-05-08T08:38:15Z</time>
      </trkpt>
      <trkpt lat="47.60362" lon="4.66471">
        <ele>429.85</ele>
        <time>2016-05-08T08:38:27Z</time>
      </trkpt>
      <trkpt lat="47.60369" lon="4.66494">
        <ele>429.85</ele>
        <time>2016-05-08T08:38:42Z</time>
      </trkpt>
      <trkpt lat="47.60377" lon="4.66517">
        <ele>430.33</ele>
        <time>2016-05-08T08:38:57Z</time>
      </trkpt>
      <trkpt lat="47.60383" lon="4.66541">
        <ele>431.29</ele>
        <time>2016-05-08T08:39:12Z</time>
      </trkpt>
      <trkpt lat="47.60385" lon="4.66547">
        <ele>430.33</ele>
        <time>2016-05-08T08:39:16Z</time>
      </trkpt>
      <trkpt lat="47.60394" lon="4.66573">
        <ele>430.81</ele>
        <time>2016-05-08T08:39:33Z</time>
      </trkpt>
      <trkpt lat="47.60401" lon="4.66589">
        <ele>430.81</ele>
        <time>2016-05-08T08:39:44Z</time>
      </trkpt>
      <trkpt lat="47.60404" lon="4.66596">
        <ele>430.81</ele>
        <time>2016-05-08T08:39:49Z</time>
      </trkpt>
      <trkpt lat="47.60408" lon="4.66607">
        <ele>431.29</ele>
        <time>2016-05-08T08:39:57Z</time>
      </trkpt>
      <trkpt lat="47.60416" lon="4.66629">
        <ele>430.81</ele>
        <time>2016-05-08T08:40:12Z</time>
      </trkpt>
      <trkpt lat="47.60423" lon="4.66642">
        <ele>431.29</ele>
        <time>2016-05-08T08:40:21Z</time>
      </trkpt>
      <trkpt lat="47.60431" lon="4.66663">
        <ele>431.29</ele>
        <time>2016-05-08T08:40:37Z</time>
      </trkpt>
      <trkpt lat="47.6044" lon="4.66686">
        <ele>431.29</ele>
        <time>2016-05-08T08:40:54Z</time>
      </trkpt>
      <trkpt lat="47.60441" lon="4.66689">
        <ele>431.29</ele>
        <time>2016-05-08T08:40:57Z</time>
      </trkpt>
      <trkpt lat="47.60444" lon="4.66694">
        <ele>431.77</ele>
        <time>2016-05-08T08:41:00Z</time>
      </trkpt>
      <trkpt lat="47.60447" lon="4.66705">
        <ele>431.77</ele>
        <time>2016-05-08T08:41:08Z</time>
      </trkpt>
      <trkpt lat="47.6045" lon="4.66719">
        <ele>431.29</ele>
        <time>2016-05-08T08:41:17Z</time>
      </trkpt>
      <trkpt lat="47.60452" lon="4.66726">
        <ele>431.29</ele>
        <time>2016-05-08T08:41:21Z</time>
      </trkpt>
      <trkpt lat="47.60456" lon="4.66745">
        <ele>430.81</ele>
        <time>2016-05-08T08:41:33Z</time>
      </trkpt>
      <trkpt lat="47.60458" lon="4.66751">
        <ele>430.81</ele>
        <time>2016-05-08T08:41:37Z</time>
      </trkpt>
      <trkpt lat="47.60463" lon="4.66777">
        <ele>430.33</ele>
        <time>2016-05-08T08:41:52Z</time>
      </trkpt>
      <trkpt lat="47.60465" lon="4.66798">
        <ele>430.33</ele>
        <time>2016-05-08T08:42:05Z</time>
      </trkpt>
      <trkpt lat="47.60467" lon="4.66828">
        <ele>428.89</ele>
        <time>2016-05-08T08:42:23Z</time>
      </trkpt>
      <trkpt lat="47.6047" lon="4.66856">
        <ele>428.89</ele>
        <time>2016-05-08T08:42:40Z</time>
      </trkpt>
      <trkpt lat="47.60474" lon="4.66879">
        <ele>428.4</ele>
        <time>2016-05-08T08:42:54Z</time>
      </trkpt>
      <trkpt lat="47.60477" lon="4.6691">
        <ele>426.48</ele>
        <time>2016-05-08T08:43:12Z</time>
      </trkpt>
      <trkpt lat="47.6048" lon="4.6693">
        <ele>426.48</ele>
        <time>2016-05-08T08:43:25Z</time>
      </trkpt>
      <trkpt lat="47.6048" lon="4.66938">
        <ele>425.52</ele>
        <time>2016-05-08T08:43:30Z</time>
      </trkpt>
      <trkpt lat="47.60484" lon="4.66965">
        <ele>424.56</ele>
        <time>2016-05-08T08:43:46Z</time>
      </trkpt>
      <trkpt lat="47.60487" lon="4.6699">
        <ele>423.6</ele>
        <time>2016-05-08T08:44:01Z</time>
      </trkpt>
      <trkpt lat="47.6049" lon="4.67017">
        <ele>423.12</ele>
        <time>2016-05-08T08:44:17Z</time>
      </trkpt>
      <trkpt lat="47.60491" lon="4.67043">
        <ele>421.68</ele>
        <time>2016-05-08T08:44:33Z</time>
      </trkpt>
      <trkpt lat="47.60492" lon="4.67068">
        <ele>419.75</ele>
        <time>2016-05-08T08:44:47Z</time>
      </trkpt>
      <trkpt lat="47.60492" lon="4.67091">
        <ele>418.79</ele>
        <time>2016-05-08T08:45:01Z</time>
      </trkpt>
      <trkpt lat="47.60495" lon="4.67122">
        <ele>416.87</ele>
        <time>2016-05-08T08:45:19Z</time>
      </trkpt>
      <trkpt lat="47.60499" lon="4.67151">
        <ele>414.47</ele>
        <time>2016-05-08T08:45:36Z</time>
      </trkpt>
      <trkpt lat="47.60504" lon="4.67182">
        <ele>412.06</ele>
        <time>2016-05-08T08:45:55Z</time>
      </trkpt>
      <trkpt lat="47.60507" lon="4.67205">
        <ele>410.14</ele>
        <time>2016-05-08T08:46:11Z</time>
      </trkpt>
      <trkpt lat="47.60513" lon="4.67231">
        <ele>407.74</ele>
        <time>2016-05-08T08:46:28Z</time>
      </trkpt>
      <trkpt lat="47.60516" lon="4.67254">
        <ele>405.33</ele>
        <time>2016-05-08T08:46:43Z</time>
      </trkpt>
      <trkpt lat="47.60519" lon="4.67275">
        <ele>402.45</ele>
        <time>2016-05-08T08:46:57Z</time>
      </trkpt>
      <trkpt lat="47.60521" lon="4.67298">
        <ele>399.08</ele>
        <time>2016-05-08T08:47:11Z</time>
      </trkpt>
      <trkpt lat="47.60524" lon="4.67324">
        <ele>396.2</ele>
        <time>2016-05-08T08:47:28Z</time>
      </trkpt>
      <trkpt lat="47.60529" lon="4.67346">
        <ele>392.84</ele>
        <time>2016-05-08T08:47:40Z</time>
      </trkpt>
      <trkpt lat="47.60533" lon="4.67369">
        <ele>389.95</ele>
        <time>2016-05-08T08:47:54Z</time>
      </trkpt>
      <trkpt lat="47.60537" lon="4.67391">
        <ele>387.07</ele>
        <time>2016-05-08T08:48:09Z</time>
      </trkpt>
      <trkpt lat="47.60543" lon="4.67418">
        <ele>384.18</ele>
        <time>2016-05-08T08:48:25Z</time>
      </trkpt>
      <trkpt lat="47.60548" lon="4.67444">
        <ele>381.3</ele>
        <time>2016-05-08T08:48:42Z</time>
      </trkpt>
      <trkpt lat="47.60552" lon="4.67466">
        <ele>378.42</ele>
        <time>2016-05-08T08:48:56Z</time>
      </trkpt>
      <trkpt lat="47.60554" lon="4.67491">
        <ele>376.49</ele>
        <time>2016-05-08T08:49:10Z</time>
      </trkpt>
      <trkpt lat="47.60553" lon="4.67516">
        <ele>374.57</ele>
        <time>2016-05-08T08:49:25Z</time>
      </trkpt>
      <trkpt lat="47.60553" lon="4.67542">
        <ele>372.65</ele>
        <time>2016-05-08T08:49:40Z</time>
      </trkpt>
      <trkpt lat="47.60552" lon="4.67573">
        <ele>371.69</ele>
        <time>2016-05-08T08:49:57Z</time>
      </trkpt>
      <trkpt lat="47.60549" lon="4.67587">
        <ele>370.73</ele>
        <time>2016-05-08T08:50:06Z</time>
      </trkpt>
      <trkpt lat="47.60544" lon="4.67612">
        <ele>370.24</ele>
        <time>2016-05-08T08:50:21Z</time>
      </trkpt>
      <trkpt lat="47.60543" lon="4.67614">
        <ele>369.76</ele>
        <time>2016-05-08T08:50:22Z</time>
      </trkpt>
      <trkpt lat="47.60537" lon="4.67639">
        <ele>369.76</ele>
        <time>2016-05-08T08:50:38Z</time>
      </trkpt>
      <trkpt lat="47.60532" lon="4.67666">
        <ele>368.8</ele>
        <time>2016-05-08T08:50:55Z</time>
      </trkpt>
      <trkpt lat="47.60532" lon="4.67672">
        <ele>369.28</ele>
        <time>2016-05-08T08:51:08Z</time>
      </trkpt>
      <trkpt lat="47.60532" lon="4.67673">
        <ele>368.8</ele>
        <time>2016-05-08T08:51:24Z</time>
      </trkpt>
      <trkpt lat="47.60537" lon="4.67679">
        <ele>369.28</ele>
        <time>2016-05-08T08:51:32Z</time>
      </trkpt>
      <trkpt lat="47.60539" lon="4.6768">
        <ele>371.21</ele>
        <time>2016-05-08T08:51:34Z</time>
      </trkpt>
      <trkpt lat="47.60542" lon="4.67683">
        <ele>354.38</ele>
        <time>2016-05-08T08:51:37Z</time>
      </trkpt>
      <trkpt lat="47.60543" lon="4.67684">
        <ele>372.17</ele>
        <time>2016-05-08T08:51:38Z</time>
      </trkpt>
      <trkpt lat="47.60545" lon="4.67686">
        <ele>375.53</ele>
        <time>2016-05-08T08:51:40Z</time>
      </trkpt>
      <trkpt lat="47.60546" lon="4.67686">
        <ele>375.05</ele>
        <time>2016-05-08T08:51:41Z</time>
      </trkpt>
      <trkpt lat="47.60548" lon="4.67687">
        <ele>368.8</ele>
        <time>2016-05-08T08:51:43Z</time>
      </trkpt>
      <trkpt lat="47.60549" lon="4.67688">
        <ele>368.8</ele>
        <time>2016-05-08T08:51:44Z</time>
      </trkpt>
      <trkpt lat="47.60557" lon="4.67695">
        <ele>364.48</ele>
        <time>2016-05-08T08:51:53Z</time>
      </trkpt>
      <trkpt lat="47.60557" lon="4.67695">
        <ele>369.28</ele>
        <time>2016-05-08T08:51:54Z</time>
      </trkpt>
      <trkpt lat="47.60562" lon="4.67698">
        <ele>365.92</ele>
        <time>2016-05-08T08:51:58Z</time>
      </trkpt>
      <trkpt lat="47.60577" lon="4.67709">
        <ele>364.96</ele>
        <time>2016-05-08T08:52:12Z</time>
      </trkpt>
      <trkpt lat="47.60593" lon="4.67721">
        <ele>366.4</ele>
        <time>2016-05-08T08:52:28Z</time>
      </trkpt>
      <trkpt lat="47.60608" lon="4.67734">
        <ele>365.92</ele>
        <time>2016-05-08T08:52:43Z</time>
      </trkpt>
      <trkpt lat="47.60617" lon="4.67745">
        <ele>364.96</ele>
        <time>2016-05-08T08:52:56Z</time>
      </trkpt>
      <trkpt lat="47.60628" lon="4.67755">
        <ele>364.48</ele>
        <time>2016-05-08T08:53:08Z</time>
      </trkpt>
      <trkpt lat="47.60638" lon="4.67763">
        <ele>364</ele>
        <time>2016-05-08T08:53:21Z</time>
      </trkpt>
      <trkpt lat="47.60644" lon="4.67762">
        <ele>363.52</ele>
        <time>2016-05-08T08:53:35Z</time>
      </trkpt>
      <trkpt lat="47.60653" lon="4.67774">
        <ele>363.04</ele>
        <time>2016-05-08T08:53:47Z</time>
      </trkpt>
      <trkpt lat="47.60656" lon="4.67777">
        <ele>363.04</ele>
        <time>2016-05-08T08:53:49Z</time>
      </trkpt>
      <trkpt lat="47.60671" lon="4.67791">
        <ele>362.07</ele>
        <time>2016-05-08T08:54:04Z</time>
      </trkpt>
      <trkpt lat="47.60688" lon="4.67805">
        <ele>361.11</ele>
        <time>2016-05-08T08:54:20Z</time>
      </trkpt>
      <trkpt lat="47.60702" lon="4.67824">
        <ele>359.67</ele>
        <time>2016-05-08T08:54:36Z</time>
      </trkpt>
      <trkpt lat="47.6071" lon="4.67845">
        <ele>359.19</ele>
        <time>2016-05-08T08:54:49Z</time>
      </trkpt>
      <trkpt lat="47.60711" lon="4.67848">
        <ele>358.71</ele>
        <time>2016-05-08T08:54:51Z</time>
      </trkpt>
      <trkpt lat="47.60715" lon="4.67861">
        <ele>357.75</ele>
        <time>2016-05-08T08:54:58Z</time>
      </trkpt>
      <trkpt lat="47.60727" lon="4.67888">
        <ele>357.27</ele>
        <time>2016-05-08T08:55:12Z</time>
      </trkpt>
      <trkpt lat="47.60727" lon="4.67893">
        <ele>357.27</ele>
        <time>2016-05-08T08:55:15Z</time>
      </trkpt>
      <trkpt lat="47.60726" lon="4.67903">
        <ele>356.79</ele>
        <time>2016-05-08T08:55:20Z</time>
      </trkpt>
      <trkpt lat="47.60717" lon="4.6792">
        <ele>355.83</ele>
        <time>2016-05-08T08:55:34Z</time>
      </trkpt>
      <trkpt lat="47.60708" lon="4.67935">
        <ele>354.86</ele>
        <time>2016-05-08T08:55:48Z</time>
      </trkpt>
      <trkpt lat="47.60694" lon="4.67953">
        <ele>353.9</ele>
        <time>2016-05-08T08:56:01Z</time>
      </trkpt>
      <trkpt lat="47.60678" lon="4.67968">
        <ele>352.94</ele>
        <time>2016-05-08T08:56:17Z</time>
      </trkpt>
      <trkpt lat="47.60657" lon="4.67979">
        <ele>351.5</ele>
        <time>2016-05-08T08:56:35Z</time>
      </trkpt>
      <trkpt lat="47.60638" lon="4.67982">
        <ele>350.54</ele>
        <time>2016-05-08T08:56:49Z</time>
      </trkpt>
      <trkpt lat="47.60621" lon="4.67977">
        <ele>350.06</ele>
        <time>2016-05-08T08:57:00Z</time>
      </trkpt>
      <trkpt lat="47.60601" lon="4.67969">
        <ele>349.1</ele>
        <time>2016-05-08T08:57:16Z</time>
      </trkpt>
      <trkpt lat="47.60584" lon="4.67961">
        <ele>348.13</ele>
        <time>2016-05-08T08:57:31Z</time>
      </trkpt>
      <trkpt lat="47.60567" lon="4.67958">
        <ele>347.17</ele>
        <time>2016-05-08T08:57:45Z</time>
      </trkpt>
      <trkpt lat="47.6056" lon="4.67961">
        <ele>346.69</ele>
        <time>2016-05-08T08:57:57Z</time>
      </trkpt>
      <trkpt lat="47.60557" lon="4.67962">
        <ele>346.21</ele>
        <time>2016-05-08T08:58:19Z</time>
      </trkpt>
      <trkpt lat="47.60556" lon="4.67962">
        <ele>345.73</ele>
        <time>2016-05-08T08:58:40Z</time>
      </trkpt>
      <trkpt lat="47.60555" lon="4.67962">
        <ele>345.73</ele>
        <time>2016-05-08T08:58:54Z</time>
      </trkpt>
      <trkpt lat="47.60553" lon="4.67962">
        <ele>345.73</ele>
        <time>2016-05-08T08:59:13Z</time>
      </trkpt>
      <trkpt lat="47.60553" lon="4.67961">
        <ele>345.73</ele>
        <time>2016-05-08T08:59:31Z</time>
      </trkpt>
      <trkpt lat="47.60553" lon="4.67965">
        <ele>345.25</ele>
        <time>2016-05-08T08:59:49Z</time>
      </trkpt>
      <trkpt lat="47.60564" lon="4.67979">
        <ele>344.77</ele>
        <time>2016-05-08T09:00:02Z</time>
      </trkpt>
      <trkpt lat="47.60574" lon="4.67986">
        <ele>344.29</ele>
        <time>2016-05-08T09:00:14Z</time>
      </trkpt>
      <trkpt lat="47.60589" lon="4.67997">
        <ele>342.85</ele>
        <time>2016-05-08T09:00:28Z</time>
      </trkpt>
      <trkpt lat="47.60604" lon="4.68003">
        <ele>341.89</ele>
        <time>2016-05-08T09:00:40Z</time>
      </trkpt>
      <trkpt lat="47.60618" lon="4.68009">
        <ele>341.41</ele>
        <time>2016-05-08T09:00:51Z</time>
      </trkpt>
      <trkpt lat="47.6064" lon="4.68019">
        <ele>340.44</ele>
        <time>2016-05-08T09:01:05Z</time>
      </trkpt>
      <trkpt lat="47.60664" lon="4.68031">
        <ele>338.52</ele>
        <time>2016-05-08T09:01:20Z</time>
      </trkpt>
      <trkpt lat="47.60683" lon="4.6804">
        <ele>338.04</ele>
        <time>2016-05-08T09:01:37Z</time>
      </trkpt>
      <trkpt lat="47.60693" lon="4.68042">
        <ele>337.56</ele>
        <time>2016-05-08T09:01:49Z</time>
      </trkpt>
      <trkpt lat="47.60706" lon="4.68041">
        <ele>336.6</ele>
        <time>2016-05-08T09:02:02Z</time>
      </trkpt>
      <trkpt lat="47.60717" lon="4.68034">
        <ele>336.12</ele>
        <time>2016-05-08T09:02:15Z</time>
      </trkpt>
      <trkpt lat="47.60723" lon="4.68031">
        <ele>335.64</ele>
        <time>2016-05-08T09:02:22Z</time>
      </trkpt>
      <trkpt lat="47.60728" lon="4.68028">
        <ele>335.16</ele>
        <time>2016-05-08T09:02:26Z</time>
      </trkpt>
      <trkpt lat="47.60744" lon="4.68014">
        <ele>333.71</ele>
        <time>2016-05-08T09:02:43Z</time>
      </trkpt>
      <trkpt lat="47.60764" lon="4.68">
        <ele>332.75</ele>
        <time>2016-05-08T09:02:58Z</time>
      </trkpt>
      <trkpt lat="47.6078" lon="4.67997">
        <ele>331.79</ele>
        <time>2016-05-08T09:03:13Z</time>
      </trkpt>
      <trkpt lat="47.60785" lon="4.68001">
        <ele>330.83</ele>
        <time>2016-05-08T09:03:20Z</time>
      </trkpt>
      <trkpt lat="47.60797" lon="4.68021">
        <ele>329.87</ele>
        <time>2016-05-08T09:03:38Z</time>
      </trkpt>
      <trkpt lat="47.60806" lon="4.68038">
        <ele>329.87</ele>
        <time>2016-05-08T09:03:51Z</time>
      </trkpt>
      <trkpt lat="47.60811" lon="4.68043">
        <ele>329.39</ele>
        <time>2016-05-08T09:04:02Z</time>
      </trkpt>
      <trkpt lat="47.60811" lon="4.68044">
        <ele>329.87</ele>
        <time>2016-05-08T09:04:20Z</time>
      </trkpt>
      <trkpt lat="47.6081" lon="4.68043">
        <ele>329.39</ele>
        <time>2016-05-08T09:04:41Z</time>
      </trkpt>
      <trkpt lat="47.60809" lon="4.68043">
        <ele>329.39</ele>
        <time>2016-05-08T09:05:04Z</time>
      </trkpt>
      <trkpt lat="47.60808" lon="4.68043">
        <ele>329.39</ele>
        <time>2016-05-08T09:05:29Z</time>
      </trkpt>
      <trkpt lat="47.60808" lon="4.68043">
        <ele>328.91</ele>
        <time>2016-05-08T09:05:53Z</time>
      </trkpt>
      <trkpt lat="47.60809" lon="4.68046">
        <ele>329.39</ele>
        <time>2016-05-08T09:06:05Z</time>
      </trkpt>
      <trkpt lat="47.60811" lon="4.68056">
        <ele>328.91</ele>
        <time>2016-05-08T09:06:18Z</time>
      </trkpt>
      <trkpt lat="47.60823" lon="4.68079">
        <ele>328.91</ele>
        <time>2016-05-08T09:06:33Z</time>
      </trkpt>
      <trkpt lat="47.60825" lon="4.68085">
        <ele>328.43</ele>
        <time>2016-05-08T09:06:47Z</time>
      </trkpt>
      <trkpt lat="47.60826" lon="4.68095">
        <ele>328.43</ele>
        <time>2016-05-08T09:06:52Z</time>
      </trkpt>
      <trkpt lat="47.60833" lon="4.68115">
        <ele>327.95</ele>
        <time>2016-05-08T09:07:05Z</time>
      </trkpt>
      <trkpt lat="47.60836" lon="4.68126">
        <ele>328.43</ele>
        <time>2016-05-08T09:07:12Z</time>
      </trkpt>
      <trkpt lat="47.60838" lon="4.68131">
        <ele>328.43</ele>
        <time>2016-05-08T09:07:24Z</time>
      </trkpt>
      <trkpt lat="47.60838" lon="4.68133">
        <ele>328.43</ele>
        <time>2016-05-08T09:07:40Z</time>
      </trkpt>
      <trkpt lat="47.60837" lon="4.68145">
        <ele>328.43</ele>
        <time>2016-05-08T09:07:53Z</time>
      </trkpt>
      <trkpt lat="47.6084" lon="4.68164">
        <ele>328.43</ele>
        <time>2016-05-08T09:08:05Z</time>
      </trkpt>
      <trkpt lat="47.60842" lon="4.68178">
        <ele>328.91</ele>
        <time>2016-05-08T09:08:17Z</time>
      </trkpt>
      <trkpt lat="47.60858" lon="4.68195">
        <ele>328.91</ele>
        <time>2016-05-08T09:08:29Z</time>
      </trkpt>
      <trkpt lat="47.60864" lon="4.68201">
        <ele>329.39</ele>
        <time>2016-05-08T09:08:34Z</time>
      </trkpt>
      <trkpt lat="47.60875" lon="4.68219">
        <ele>329.39</ele>
        <time>2016-05-08T09:08:47Z</time>
      </trkpt>
      <trkpt lat="47.60884" lon="4.68228">
        <ele>330.35</ele>
        <time>2016-05-08T09:08:59Z</time>
      </trkpt>
      <trkpt lat="47.60888" lon="4.68239">
        <ele>330.83</ele>
        <time>2016-05-08T09:09:13Z</time>
      </trkpt>
      <trkpt lat="47.609" lon="4.68256">
        <ele>331.79</ele>
        <time>2016-05-08T09:09:26Z</time>
      </trkpt>
      <trkpt lat="47.60908" lon="4.68267">
        <ele>332.27</ele>
        <time>2016-05-08T09:09:36Z</time>
      </trkpt>
      <trkpt lat="47.60911" lon="4.68279">
        <ele>332.27</ele>
        <time>2016-05-08T09:09:48Z</time>
      </trkpt>
      <trkpt lat="47.6092" lon="4.68285">
        <ele>332.75</ele>
        <time>2016-05-08T09:10:04Z</time>
      </trkpt>
      <trkpt lat="47.6092" lon="4.68284">
        <ele>332.27</ele>
        <time>2016-05-08T09:10:10Z</time>
      </trkpt>
      <trkpt lat="47.60923" lon="4.68297">
        <ele>333.23</ele>
        <time>2016-05-08T09:10:23Z</time>
      </trkpt>
      <trkpt lat="47.60925" lon="4.6831">
        <ele>333.71</ele>
        <time>2016-05-08T09:10:36Z</time>
      </trkpt>
      <trkpt lat="47.60926" lon="4.68312">
        <ele>327.95</ele>
        <time>2016-05-08T09:10:39Z</time>
      </trkpt>
      <trkpt lat="47.60927" lon="4.68314">
        <ele>334.68</ele>
        <time>2016-05-08T09:10:40Z</time>
      </trkpt>
      <trkpt lat="47.60939" lon="4.68322">
        <ele>334.2</ele>
        <time>2016-05-08T09:10:52Z</time>
      </trkpt>
      <trkpt lat="47.60939" lon="4.68324">
        <ele>333.71</ele>
        <time>2016-05-08T09:11:08Z</time>
      </trkpt>
      <trkpt lat="47.60935" lon="4.68327">
        <ele>333.71</ele>
        <time>2016-05-08T09:11:24Z</time>
      </trkpt>
      <trkpt lat="47.6093" lon="4.68334">
        <ele>334.2</ele>
        <time>2016-05-08T09:11:40Z</time>
      </trkpt>
      <trkpt lat="47.60932" lon="4.68333">
        <ele>333.23</ele>
        <time>2016-05-08T09:11:54Z</time>
      </trkpt>
      <trkpt lat="47.60932" lon="4.68331">
        <ele>334.2</ele>
        <time>2016-05-08T09:12:15Z</time>
      </trkpt>
      <trkpt lat="47.60928" lon="4.68336">
        <ele>336.12</ele>
        <time>2016-05-08T09:12:32Z</time>
      </trkpt>
      <trkpt lat="47.60923" lon="4.68338">
        <ele>337.56</ele>
        <time>2016-05-08T09:12:49Z</time>
      </trkpt>
      <trkpt lat="47.60914" lon="4.6834">
        <ele>340.44</ele>
        <time>2016-05-08T09:13:11Z</time>
      </trkpt>
      <trkpt lat="47.60879" lon="4.68343">
        <ele>342.85</ele>
        <time>2016-05-08T09:13:31Z</time>
      </trkpt>
      <trkpt lat="47.60855" lon="4.68343">
        <ele>343.81</ele>
        <time>2016-05-08T09:13:50Z</time>
      </trkpt>
      <trkpt lat="47.60838" lon="4.68332">
        <ele>343.33</ele>
        <time>2016-05-08T09:14:12Z</time>
      </trkpt>
      <trkpt lat="47.60815" lon="4.68327">
        <ele>341.89</ele>
        <time>2016-05-08T09:14:34Z</time>
      </trkpt>
      <trkpt lat="47.6079" lon="4.68327">
        <ele>340.92</ele>
        <time>2016-05-08T09:14:57Z</time>
      </trkpt>
      <trkpt lat="47.60778" lon="4.68327">
        <ele>340.92</ele>
        <time>2016-05-08T09:15:16Z</time>
      </trkpt>
      <trkpt lat="47.60766" lon="4.68333">
        <ele>342.37</ele>
        <time>2016-05-08T09:15:37Z</time>
      </trkpt>
      <trkpt lat="47.60741" lon="4.6835">
        <ele>343.81</ele>
        <time>2016-05-08T09:15:58Z</time>
      </trkpt>
      <trkpt lat="47.60726" lon="4.68358">
        <ele>344.29</ele>
        <time>2016-05-08T09:16:16Z</time>
      </trkpt>
      <trkpt lat="47.6071" lon="4.68366">
        <ele>345.25</ele>
        <time>2016-05-08T09:16:36Z</time>
      </trkpt>
      <trkpt lat="47.60702" lon="4.68373">
        <ele>346.21</ele>
        <time>2016-05-08T09:16:52Z</time>
      </trkpt>
      <trkpt lat="47.60689" lon="4.68377">
        <ele>347.17</ele>
        <time>2016-05-08T09:17:08Z</time>
      </trkpt>
      <trkpt lat="47.60673" lon="4.68384">
        <ele>348.13</ele>
        <time>2016-05-08T09:17:26Z</time>
      </trkpt>
      <trkpt lat="47.60662" lon="4.68387">
        <ele>349.58</ele>
        <time>2016-05-08T09:17:43Z</time>
      </trkpt>
      <trkpt lat="47.60647" lon="4.68386">
        <ele>350.06</ele>
        <time>2016-05-08T09:18:00Z</time>
      </trkpt>
      <trkpt lat="47.60632" lon="4.68382">
        <ele>351.5</ele>
        <time>2016-05-08T09:18:17Z</time>
      </trkpt>
      <trkpt lat="47.60608" lon="4.68378">
        <ele>350.54</ele>
        <time>2016-05-08T09:18:34Z</time>
      </trkpt>
      <trkpt lat="47.60604" lon="4.68377">
        <ele>351.5</ele>
        <time>2016-05-08T09:18:50Z</time>
      </trkpt>
      <trkpt lat="47.60594" lon="4.68379">
        <ele>353.9</ele>
        <time>2016-05-08T09:19:08Z</time>
      </trkpt>
      <trkpt lat="47.60586" lon="4.68378">
        <ele>356.79</ele>
        <time>2016-05-08T09:19:26Z</time>
      </trkpt>
      <trkpt lat="47.60577" lon="4.6838">
        <ele>359.19</ele>
        <time>2016-05-08T09:19:43Z</time>
      </trkpt>
      <trkpt lat="47.60569" lon="4.68377">
        <ele>361.11</ele>
        <time>2016-05-08T09:19:57Z</time>
      </trkpt>
      <trkpt lat="47.60563" lon="4.68382">
        <ele>364</ele>
        <time>2016-05-08T09:20:12Z</time>
      </trkpt>
      <trkpt lat="47.60561" lon="4.6839">
        <ele>365.44</ele>
        <time>2016-05-08T09:20:27Z</time>
      </trkpt>
      <trkpt lat="47.60555" lon="4.68393">
        <ele>367.36</ele>
        <time>2016-05-08T09:20:44Z</time>
      </trkpt>
      <trkpt lat="47.60547" lon="4.68391">
        <ele>369.28</ele>
        <time>2016-05-08T09:21:02Z</time>
      </trkpt>
      <trkpt lat="47.60541" lon="4.6839">
        <ele>370.24</ele>
        <time>2016-05-08T09:21:18Z</time>
      </trkpt>
      <trkpt lat="47.60539" lon="4.68388">
        <ele>370.73</ele>
        <time>2016-05-08T09:21:38Z</time>
      </trkpt>
      <trkpt lat="47.60535" lon="4.68389">
        <ele>371.21</ele>
        <time>2016-05-08T09:21:54Z</time>
      </trkpt>
      <trkpt lat="47.60529" lon="4.68392">
        <ele>371.69</ele>
        <time>2016-05-08T09:22:10Z</time>
      </trkpt>
      <trkpt lat="47.60521" lon="4.68394">
        <ele>372.17</ele>
        <time>2016-05-08T09:22:26Z</time>
      </trkpt>
      <trkpt lat="47.60508" lon="4.68398">
        <ele>373.13</ele>
        <time>2016-05-08T09:22:39Z</time>
      </trkpt>
      <trkpt lat="47.60496" lon="4.68408">
        <ele>374.09</ele>
        <time>2016-05-08T09:22:52Z</time>
      </trkpt>
      <trkpt lat="47.60484" lon="4.68416">
        <ele>376.49</ele>
        <time>2016-05-08T09:23:08Z</time>
      </trkpt>
      <trkpt lat="47.60474" lon="4.68424">
        <ele>377.45</ele>
        <time>2016-05-08T09:23:22Z</time>
      </trkpt>
      <trkpt lat="47.60465" lon="4.6843">
        <ele>378.42</ele>
        <time>2016-05-08T09:23:35Z</time>
      </trkpt>
      <trkpt lat="47.60456" lon="4.68435">
        <ele>379.86</ele>
        <time>2016-05-08T09:23:49Z</time>
      </trkpt>
      <trkpt lat="47.60455" lon="4.68435">
        <ele>379.86</ele>
        <time>2016-05-08T09:23:51Z</time>
      </trkpt>
      <trkpt lat="47.60443" lon="4.6844">
        <ele>380.82</ele>
        <time>2016-05-08T09:24:05Z</time>
      </trkpt>
      <trkpt lat="47.60434" lon="4.68446">
        <ele>382.26</ele>
        <time>2016-05-08T09:24:18Z</time>
      </trkpt>
      <trkpt lat="47.60422" lon="4.6845">
        <ele>382.74</ele>
        <time>2016-05-08T09:24:32Z</time>
      </trkpt>
      <trkpt lat="47.60408" lon="4.68454">
        <ele>383.7</ele>
        <time>2016-05-08T09:24:47Z</time>
      </trkpt>
      <trkpt lat="47.60397" lon="4.68459">
        <ele>384.66</ele>
        <time>2016-05-08T09:25:01Z</time>
      </trkpt>
      <trkpt lat="47.60387" lon="4.68464">
        <ele>385.63</ele>
        <time>2016-05-08T09:25:13Z</time>
      </trkpt>
      <trkpt lat="47.60374" lon="4.68469">
        <ele>387.07</ele>
        <time>2016-05-08T09:25:28Z</time>
      </trkpt>
      <trkpt lat="47.60363" lon="4.68475">
        <ele>388.51</ele>
        <time>2016-05-08T09:25:42Z</time>
      </trkpt>
      <trkpt lat="47.60353" lon="4.6848">
        <ele>384.66</ele>
        <time>2016-05-08T09:25:54Z</time>
      </trkpt>
      <trkpt lat="47.60352" lon="4.6848">
        <ele>388.03</ele>
        <time>2016-05-08T09:25:55Z</time>
      </trkpt>
      <trkpt lat="47.60351" lon="4.6848">
        <ele>392.36</ele>
        <time>2016-05-08T09:25:56Z</time>
      </trkpt>
      <trkpt lat="47.6035" lon="4.68481">
        <ele>375.05</ele>
        <time>2016-05-08T09:25:57Z</time>
      </trkpt>
      <trkpt lat="47.60349" lon="4.68481">
        <ele>384.18</ele>
        <time>2016-05-08T09:25:58Z</time>
      </trkpt>
      <trkpt lat="47.60349" lon="4.68481">
        <ele>395.72</ele>
        <time>2016-05-08T09:25:59Z</time>
      </trkpt>
      <trkpt lat="47.60348" lon="4.68482">
        <ele>382.74</ele>
        <time>2016-05-08T09:26:00Z</time>
      </trkpt>
      <trkpt lat="47.60348" lon="4.68482">
        <ele>392.36</ele>
        <time>2016-05-08T09:26:01Z</time>
      </trkpt>
      <trkpt lat="47.60346" lon="4.68483">
        <ele>381.3</ele>
        <time>2016-05-08T09:26:03Z</time>
      </trkpt>
      <trkpt lat="47.60345" lon="4.68484">
        <ele>393.32</ele>
        <time>2016-05-08T09:26:04Z</time>
      </trkpt>
      <trkpt lat="47.60338" lon="4.68487">
        <ele>392.36</ele>
        <time>2016-05-08T09:26:16Z</time>
      </trkpt>
      <trkpt lat="47.60329" lon="4.68491">
        <ele>393.8</ele>
        <time>2016-05-08T09:26:32Z</time>
      </trkpt>
      <trkpt lat="47.6032" lon="4.68496">
        <ele>395.72</ele>
        <time>2016-05-08T09:26:47Z</time>
      </trkpt>
      <trkpt lat="47.60308" lon="4.68501">
        <ele>397.16</ele>
        <time>2016-05-08T09:27:01Z</time>
      </trkpt>
      <trkpt lat="47.60296" lon="4.68505">
        <ele>398.6</ele>
        <time>2016-05-08T09:27:15Z</time>
      </trkpt>
      <trkpt lat="47.60284" lon="4.6851">
        <ele>400.05</ele>
        <time>2016-05-08T09:27:29Z</time>
      </trkpt>
      <trkpt lat="47.60274" lon="4.68515">
        <ele>401.49</ele>
        <time>2016-05-08T09:27:42Z</time>
      </trkpt>
      <trkpt lat="47.60263" lon="4.68521">
        <ele>402.45</ele>
        <time>2016-05-08T09:27:56Z</time>
      </trkpt>
      <trkpt lat="47.60251" lon="4.68526">
        <ele>403.41</ele>
        <time>2016-05-08T09:28:10Z</time>
      </trkpt>
      <trkpt lat="47.60249" lon="4.68527">
        <ele>403.89</ele>
        <time>2016-05-08T09:28:12Z</time>
      </trkpt>
      <trkpt lat="47.60239" lon="4.68532">
        <ele>404.85</ele>
        <time>2016-05-08T09:28:25Z</time>
      </trkpt>
      <trkpt lat="47.60228" lon="4.68538">
        <ele>405.81</ele>
        <time>2016-05-08T09:28:39Z</time>
      </trkpt>
      <trkpt lat="47.60216" lon="4.68545">
        <ele>406.77</ele>
        <time>2016-05-08T09:28:53Z</time>
      </trkpt>
      <trkpt lat="47.60205" lon="4.68551">
        <ele>407.74</ele>
        <time>2016-05-08T09:29:06Z</time>
      </trkpt>
      <trkpt lat="47.60193" lon="4.68559">
        <ele>408.7</ele>
        <time>2016-05-08T09:29:20Z</time>
      </trkpt>
      <trkpt lat="47.60181" lon="4.68567">
        <ele>410.14</ele>
        <time>2016-05-08T09:29:34Z</time>
      </trkpt>
      <trkpt lat="47.60179" lon="4.68569">
        <ele>409.18</ele>
        <time>2016-05-08T09:29:37Z</time>
      </trkpt>
      <trkpt lat="47.60177" lon="4.68571">
        <ele>409.66</ele>
        <time>2016-05-08T09:29:39Z</time>
      </trkpt>
      <trkpt lat="47.60175" lon="4.68572">
        <ele>410.14</ele>
        <time>2016-05-08T09:29:41Z</time>
      </trkpt>
      <trkpt lat="47.60164" lon="4.68584">
        <ele>411.1</ele>
        <time>2016-05-08T09:29:54Z</time>
      </trkpt>
      <trkpt lat="47.60161" lon="4.68587">
        <ele>411.1</ele>
        <time>2016-05-08T09:29:58Z</time>
      </trkpt>
      <trkpt lat="47.60157" lon="4.68592">
        <ele>411.1</ele>
        <time>2016-05-08T09:30:03Z</time>
      </trkpt>
      <trkpt lat="47.60146" lon="4.68606">
        <ele>411.58</ele>
        <time>2016-05-08T09:30:18Z</time>
      </trkpt>
      <trkpt lat="47.60141" lon="4.6861">
        <ele>412.06</ele>
        <time>2016-05-08T09:30:32Z</time>
      </trkpt>
      <trkpt lat="47.6014" lon="4.68608">
        <ele>412.06</ele>
        <time>2016-05-08T09:30:49Z</time>
      </trkpt>
      <trkpt lat="47.6014" lon="4.68607">
        <ele>412.06</ele>
        <time>2016-05-08T09:31:10Z</time>
      </trkpt>
      <trkpt lat="47.6014" lon="4.68607">
        <ele>412.06</ele>
        <time>2016-05-08T09:31:28Z</time>
      </trkpt>
      <trkpt lat="47.6014" lon="4.68607">
        <ele>412.06</ele>
        <time>2016-05-08T09:31:54Z</time>
      </trkpt>
      <trkpt lat="47.6014" lon="4.68607">
        <ele>412.06</ele>
        <time>2016-05-08T09:32:08Z</time>
      </trkpt>
      <trkpt lat="47.60139" lon="4.68606">
        <ele>412.06</ele>
        <time>2016-05-08T09:32:32Z</time>
      </trkpt>
      <trkpt lat="47.60139" lon="4.68606">
        <ele>412.06</ele>
        <time>2016-05-08T09:32:54Z</time>
      </trkpt>
      <trkpt lat="47.60139" lon="4.68606">
        <ele>412.54</ele>
        <time>2016-05-08T09:33:21Z</time>
      </trkpt>
      <trkpt lat="47.60139" lon="4.68607">
        <ele>412.54</ele>
        <time>2016-05-08T09:33:40Z</time>
      </trkpt>
      <trkpt lat="47.60139" lon="4.68607">
        <ele>412.06</ele>
        <time>2016-05-08T09:33:56Z</time>
      </trkpt>
      <trkpt lat="47.60139" lon="4.68607">
        <ele>407.74</ele>
        <time>2016-05-08T09:34:00Z</time>
      </trkpt>
      <trkpt lat="47.60139" lon="4.68607">
        <ele>419.75</ele>
        <time>2016-05-08T09:34:01Z</time>
      </trkpt>
      <trkpt lat="47.60138" lon="4.68607">
        <ele>412.54</ele>
        <time>2016-05-08T09:34:02Z</time>
      </trkpt>
      <trkpt lat="47.60139" lon="4.68607">
        <ele>411.58</ele>
        <time>2016-05-08T09:34:21Z</time>
      </trkpt>
      <trkpt lat="47.60139" lon="4.68607">
        <ele>412.06</ele>
        <time>2016-05-08T09:34:45Z</time>
      </trkpt>
      <trkpt lat="47.60139" lon="4.68606">
        <ele>412.06</ele>
        <time>2016-05-08T09:34:59Z</time>
      </trkpt>
      <trkpt lat="47.60139" lon="4.68607">
        <ele>412.06</ele>
        <time>2016-05-08T09:35:07Z</time>
      </trkpt>
      <trkpt lat="47.60137" lon="4.6861">
        <ele>412.06</ele>
        <time>2016-05-08T09:35:10Z</time>
      </trkpt>
      <trkpt lat="47.60135" lon="4.68613">
        <ele>412.06</ele>
        <time>2016-05-08T09:35:13Z</time>
      </trkpt>
      <trkpt lat="47.60133" lon="4.68617">
        <ele>412.06</ele>
        <time>2016-05-08T09:35:16Z</time>
      </trkpt>
      <trkpt lat="47.60123" lon="4.68627">
        <ele>413.5</ele>
        <time>2016-05-08T09:35:26Z</time>
      </trkpt>
      <trkpt lat="47.60112" lon="4.68637">
        <ele>413.02</ele>
        <time>2016-05-08T09:35:37Z</time>
      </trkpt>
      <trkpt lat="47.60105" lon="4.68644">
        <ele>413.02</ele>
        <time>2016-05-08T09:35:45Z</time>
      </trkpt>
      <trkpt lat="47.60098" lon="4.6865">
        <ele>413.5</ele>
        <time>2016-05-08T09:35:52Z</time>
      </trkpt>
      <trkpt lat="47.60095" lon="4.68653">
        <ele>413.98</ele>
        <time>2016-05-08T09:35:55Z</time>
      </trkpt>
      <trkpt lat="47.60091" lon="4.68659">
        <ele>413.98</ele>
        <time>2016-05-08T09:36:00Z</time>
      </trkpt>
      <trkpt lat="47.60079" lon="4.6867">
        <ele>414.47</ele>
        <time>2016-05-08T09:36:11Z</time>
      </trkpt>
      <trkpt lat="47.60073" lon="4.68682">
        <ele>414.95</ele>
        <time>2016-05-08T09:36:20Z</time>
      </trkpt>
      <trkpt lat="47.60063" lon="4.68698">
        <ele>414.95</ele>
        <time>2016-05-08T09:36:33Z</time>
      </trkpt>
      <trkpt lat="47.60055" lon="4.68712">
        <ele>415.43</ele>
        <time>2016-05-08T09:36:44Z</time>
      </trkpt>
      <trkpt lat="47.6005" lon="4.6872">
        <ele>415.91</ele>
        <time>2016-05-08T09:36:50Z</time>
      </trkpt>
      <trkpt lat="47.60045" lon="4.6873">
        <ele>415.91</ele>
        <time>2016-05-08T09:36:58Z</time>
      </trkpt>
      <trkpt lat="47.60034" lon="4.6875">
        <ele>416.39</ele>
        <time>2016-05-08T09:37:12Z</time>
      </trkpt>
      <trkpt lat="47.60024" lon="4.68767">
        <ele>416.87</ele>
        <time>2016-05-08T09:37:26Z</time>
      </trkpt>
      <trkpt lat="47.60018" lon="4.68778">
        <ele>417.35</ele>
        <time>2016-05-08T09:37:33Z</time>
      </trkpt>
      <trkpt lat="47.60012" lon="4.68788">
        <ele>417.35</ele>
        <time>2016-05-08T09:37:40Z</time>
      </trkpt>
      <trkpt lat="47.60008" lon="4.68796">
        <ele>417.83</ele>
        <time>2016-05-08T09:37:46Z</time>
      </trkpt>
      <trkpt lat="47.60002" lon="4.68802">
        <ele>417.83</ele>
        <time>2016-05-08T09:37:52Z</time>
      </trkpt>
      <trkpt lat="47.59989" lon="4.68819">
        <ele>417.83</ele>
        <time>2016-05-08T09:38:06Z</time>
      </trkpt>
      <trkpt lat="47.59978" lon="4.68828">
        <ele>417.83</ele>
        <time>2016-05-08T09:38:17Z</time>
      </trkpt>
      <trkpt lat="47.59967" lon="4.6884">
        <ele>418.31</ele>
        <time>2016-05-08T09:38:29Z</time>
      </trkpt>
      <trkpt lat="47.59966" lon="4.68841">
        <ele>418.31</ele>
        <time>2016-05-08T09:38:30Z</time>
      </trkpt>
      <trkpt lat="47.59961" lon="4.68847">
        <ele>417.83</ele>
        <time>2016-05-08T09:38:47Z</time>
      </trkpt>
      <trkpt lat="47.59958" lon="4.6885">
        <ele>418.31</ele>
        <time>2016-05-08T09:39:01Z</time>
      </trkpt>
      <trkpt lat="47.59954" lon="4.68854">
        <ele>417.83</ele>
        <time>2016-05-08T09:39:05Z</time>
      </trkpt>
      <trkpt lat="47.5994" lon="4.68874">
        <ele>417.83</ele>
        <time>2016-05-08T09:39:21Z</time>
      </trkpt>
      <trkpt lat="47.59928" lon="4.68892">
        <ele>418.79</ele>
        <time>2016-05-08T09:39:34Z</time>
      </trkpt>
      <trkpt lat="47.59913" lon="4.68907">
        <ele>417.83</ele>
        <time>2016-05-08T09:39:48Z</time>
      </trkpt>
      <trkpt lat="47.59912" lon="4.68908">
        <ele>417.83</ele>
        <time>2016-05-08T09:39:49Z</time>
      </trkpt>
      <trkpt lat="47.59898" lon="4.68917">
        <ele>417.83</ele>
        <time>2016-05-08T09:40:00Z</time>
      </trkpt>
      <trkpt lat="47.59894" lon="4.6892">
        <ele>417.83</ele>
        <time>2016-05-08T09:40:04Z</time>
      </trkpt>
      <trkpt lat="47.59877" lon="4.6893">
        <ele>417.35</ele>
        <time>2016-05-08T09:40:18Z</time>
      </trkpt>
      <trkpt lat="47.59859" lon="4.68938">
        <ele>416.87</ele>
        <time>2016-05-08T09:40:33Z</time>
      </trkpt>
      <trkpt lat="47.59841" lon="4.68949">
        <ele>416.87</ele>
        <time>2016-05-08T09:40:48Z</time>
      </trkpt>
      <trkpt lat="47.59825" lon="4.68958">
        <ele>415.91</ele>
        <time>2016-05-08T09:41:02Z</time>
      </trkpt>
      <trkpt lat="47.59808" lon="4.68968">
        <ele>415.43</ele>
        <time>2016-05-08T09:41:16Z</time>
      </trkpt>
      <trkpt lat="47.59803" lon="4.6897">
        <ele>414.95</ele>
        <time>2016-05-08T09:41:21Z</time>
      </trkpt>
      <trkpt lat="47.59785" lon="4.68981">
        <ele>414.47</ele>
        <time>2016-05-08T09:41:37Z</time>
      </trkpt>
      <trkpt lat="47.59771" lon="4.68991">
        <ele>413.98</ele>
        <time>2016-05-08T09:41:52Z</time>
      </trkpt>
      <trkpt lat="47.59764" lon="4.68994">
        <ele>413.5</ele>
        <time>2016-05-08T09:42:01Z</time>
      </trkpt>
      <trkpt lat="47.59752" lon="4.69003">
        <ele>412.06</ele>
        <time>2016-05-08T09:42:14Z</time>
      </trkpt>
      <trkpt lat="47.59739" lon="4.69013">
        <ele>412.06</ele>
        <time>2016-05-08T09:42:26Z</time>
      </trkpt>
      <trkpt lat="47.59726" lon="4.69027">
        <ele>411.1</ele>
        <time>2016-05-08T09:42:40Z</time>
      </trkpt>
      <trkpt lat="47.59724" lon="4.6903">
        <ele>411.58</ele>
        <time>2016-05-08T09:42:53Z</time>
      </trkpt>
      <trkpt lat="47.59724" lon="4.69032">
        <ele>411.58</ele>
        <time>2016-05-08T09:43:14Z</time>
      </trkpt>
      <trkpt lat="47.59723" lon="4.69035">
        <ele>411.1</ele>
        <time>2016-05-08T09:43:31Z</time>
      </trkpt>
      <trkpt lat="47.59722" lon="4.69034">
        <ele>412.06</ele>
        <time>2016-05-08T09:43:45Z</time>
      </trkpt>
      <trkpt lat="47.59721" lon="4.69042">
        <ele>411.1</ele>
        <time>2016-05-08T09:44:01Z</time>
      </trkpt>
      <trkpt lat="47.59722" lon="4.69065">
        <ele>411.1</ele>
        <time>2016-05-08T09:44:14Z</time>
      </trkpt>
      <trkpt lat="47.59727" lon="4.69084">
        <ele>411.1</ele>
        <time>2016-05-08T09:44:27Z</time>
      </trkpt>
      <trkpt lat="47.59728" lon="4.69087">
        <ele>411.1</ele>
        <time>2016-05-08T09:44:29Z</time>
      </trkpt>
      <trkpt lat="47.59735" lon="4.69111">
        <ele>411.58</ele>
        <time>2016-05-08T09:44:44Z</time>
      </trkpt>
      <trkpt lat="47.59736" lon="4.69115">
        <ele>411.58</ele>
        <time>2016-05-08T09:44:47Z</time>
      </trkpt>
      <trkpt lat="47.59744" lon="4.69134">
        <ele>411.58</ele>
        <time>2016-05-08T09:45:00Z</time>
      </trkpt>
      <trkpt lat="47.59745" lon="4.69151">
        <ele>412.06</ele>
        <time>2016-05-08T09:45:13Z</time>
      </trkpt>
      <trkpt lat="47.59751" lon="4.69166">
        <ele>411.58</ele>
        <time>2016-05-08T09:45:26Z</time>
      </trkpt>
      <trkpt lat="47.59753" lon="4.69175">
        <ele>411.58</ele>
        <time>2016-05-08T09:45:37Z</time>
      </trkpt>
      <trkpt lat="47.59753" lon="4.69179">
        <ele>411.58</ele>
        <time>2016-05-08T09:45:41Z</time>
      </trkpt>
      <trkpt lat="47.59753" lon="4.69182">
        <ele>411.1</ele>
        <time>2016-05-08T09:45:43Z</time>
      </trkpt>
      <trkpt lat="47.59754" lon="4.69186">
        <ele>411.58</ele>
        <time>2016-05-08T09:45:46Z</time>
      </trkpt>
      <trkpt lat="47.5976" lon="4.69212">
        <ele>411.1</ele>
        <time>2016-05-08T09:46:00Z</time>
      </trkpt>
      <trkpt lat="47.59763" lon="4.69236">
        <ele>410.62</ele>
        <time>2016-05-08T09:46:14Z</time>
      </trkpt>
      <trkpt lat="47.59767" lon="4.69255">
        <ele>410.62</ele>
        <time>2016-05-08T09:46:26Z</time>
      </trkpt>
      <trkpt lat="47.59768" lon="4.69267">
        <ele>410.14</ele>
        <time>2016-05-08T09:46:36Z</time>
      </trkpt>
      <trkpt lat="47.59763" lon="4.69287">
        <ele>409.18</ele>
        <time>2016-05-08T09:46:45Z</time>
      </trkpt>
      <trkpt lat="47.59764" lon="4.69305">
        <ele>409.18</ele>
        <time>2016-05-08T09:46:57Z</time>
      </trkpt>
      <trkpt lat="47.59764" lon="4.6931">
        <ele>409.66</ele>
        <time>2016-05-08T09:47:01Z</time>
      </trkpt>
      <trkpt lat="47.59766" lon="4.69317">
        <ele>409.18</ele>
        <time>2016-05-08T09:47:06Z</time>
      </trkpt>
      <trkpt lat="47.59772" lon="4.69325">
        <ele>409.66</ele>
        <time>2016-05-08T09:47:18Z</time>
      </trkpt>
      <trkpt lat="47.59773" lon="4.69323">
        <ele>410.62</ele>
        <time>2016-05-08T09:47:33Z</time>
      </trkpt>
      <trkpt lat="47.59779" lon="4.69337">
        <ele>410.62</ele>
        <time>2016-05-08T09:47:45Z</time>
      </trkpt>
      <trkpt lat="47.59782" lon="4.69353">
        <ele>410.14</ele>
        <time>2016-05-08T09:47:56Z</time>
      </trkpt>
      <trkpt lat="47.59775" lon="4.6935">
        <ele>409.66</ele>
        <time>2016-05-08T09:48:10Z</time>
      </trkpt>
      <trkpt lat="47.59775" lon="4.69349">
        <ele>409.18</ele>
        <time>2016-05-08T09:48:22Z</time>
      </trkpt>
      <trkpt lat="47.59773" lon="4.69339">
        <ele>409.18</ele>
        <time>2016-05-08T09:48:39Z</time>
      </trkpt>
      <trkpt lat="47.59772" lon="4.69335">
        <ele>409.18</ele>
        <time>2016-05-08T09:48:58Z</time>
      </trkpt>
      <trkpt lat="47.59772" lon="4.69331">
        <ele>409.18</ele>
        <time>2016-05-08T09:49:14Z</time>
      </trkpt>
      <trkpt lat="47.59772" lon="4.69328">
        <ele>409.18</ele>
        <time>2016-05-08T09:49:31Z</time>
      </trkpt>
      <trkpt lat="47.59772" lon="4.69328">
        <ele>409.66</ele>
        <time>2016-05-08T09:49:47Z</time>
      </trkpt>
      <trkpt lat="47.59772" lon="4.69328">
        <ele>409.18</ele>
        <time>2016-05-08T09:49:49Z</time>
      </trkpt>
      <trkpt lat="47.59765" lon="4.69331">
        <ele>409.18</ele>
        <time>2016-05-08T09:50:00Z</time>
      </trkpt>
      <trkpt lat="47.59766" lon="4.69329">
        <ele>409.18</ele>
        <time>2016-05-08T09:50:11Z</time>
      </trkpt>
      <trkpt lat="47.59765" lon="4.69321">
        <ele>408.7</ele>
        <time>2016-05-08T09:50:24Z</time>
      </trkpt>
      <trkpt lat="47.59764" lon="4.69308">
        <ele>409.18</ele>
        <time>2016-05-08T09:50:39Z</time>
      </trkpt>
      <trkpt lat="47.59762" lon="4.6929">
        <ele>409.66</ele>
        <time>2016-05-08T09:50:52Z</time>
      </trkpt>
      <trkpt lat="47.59765" lon="4.69276">
        <ele>410.14</ele>
        <time>2016-05-08T09:51:05Z</time>
      </trkpt>
      <trkpt lat="47.59764" lon="4.69262">
        <ele>411.1</ele>
        <time>2016-05-08T09:51:17Z</time>
      </trkpt>
      <trkpt lat="47.59762" lon="4.6925">
        <ele>411.1</ele>
        <time>2016-05-08T09:51:28Z</time>
      </trkpt>
      <trkpt lat="47.5976" lon="4.69238">
        <ele>411.1</ele>
        <time>2016-05-08T09:51:38Z</time>
      </trkpt>
      <trkpt lat="47.59757" lon="4.69223">
        <ele>411.1</ele>
        <time>2016-05-08T09:51:52Z</time>
      </trkpt>
      <trkpt lat="47.59757" lon="4.69222">
        <ele>411.58</ele>
        <time>2016-05-08T09:51:53Z</time>
      </trkpt>
      <trkpt lat="47.59755" lon="4.69214">
        <ele>411.58</ele>
        <time>2016-05-08T09:51:59Z</time>
      </trkpt>
      <trkpt lat="47.59752" lon="4.69187">
        <ele>412.06</ele>
        <time>2016-05-08T09:52:12Z</time>
      </trkpt>
      <trkpt lat="47.5975" lon="4.69182">
        <ele>412.06</ele>
        <time>2016-05-08T09:52:25Z</time>
      </trkpt>
      <trkpt lat="47.59747" lon="4.69176">
        <ele>412.06</ele>
        <time>2016-05-08T09:52:42Z</time>
      </trkpt>
      <trkpt lat="47.59741" lon="4.69162">
        <ele>412.06</ele>
        <time>2016-05-08T09:52:55Z</time>
      </trkpt>
      <trkpt lat="47.59738" lon="4.69139">
        <ele>411.58</ele>
        <time>2016-05-08T09:53:09Z</time>
      </trkpt>
      <trkpt lat="47.5973" lon="4.69109">
        <ele>411.1</ele>
        <time>2016-05-08T09:53:24Z</time>
      </trkpt>
      <trkpt lat="47.59723" lon="4.69091">
        <ele>410.62</ele>
        <time>2016-05-08T09:53:36Z</time>
      </trkpt>
      <trkpt lat="47.59722" lon="4.69084">
        <ele>410.62</ele>
        <time>2016-05-08T09:53:41Z</time>
      </trkpt>
      <trkpt lat="47.59719" lon="4.69073">
        <ele>410.62</ele>
        <time>2016-05-08T09:53:48Z</time>
      </trkpt>
      <trkpt lat="47.59715" lon="4.69046">
        <ele>410.62</ele>
        <time>2016-05-08T09:54:04Z</time>
      </trkpt>
      <trkpt lat="47.59712" lon="4.69033">
        <ele>410.62</ele>
        <time>2016-05-08T09:54:14Z</time>
      </trkpt>
      <trkpt lat="47.59711" lon="4.69027">
        <ele>410.62</ele>
        <time>2016-05-08T09:54:18Z</time>
      </trkpt>
      <trkpt lat="47.59705" lon="4.69004">
        <ele>410.14</ele>
        <time>2016-05-08T09:54:32Z</time>
      </trkpt>
      <trkpt lat="47.59701" lon="4.68991">
        <ele>409.18</ele>
        <time>2016-05-08T09:54:41Z</time>
      </trkpt>
      <trkpt lat="47.59697" lon="4.6897">
        <ele>408.22</ele>
        <time>2016-05-08T09:54:56Z</time>
      </trkpt>
      <trkpt lat="47.59695" lon="4.68956">
        <ele>407.74</ele>
        <time>2016-05-08T09:55:05Z</time>
      </trkpt>
      <trkpt lat="47.59694" lon="4.68949">
        <ele>406.77</ele>
        <time>2016-05-08T09:55:09Z</time>
      </trkpt>
      <trkpt lat="47.59691" lon="4.6893">
        <ele>406.29</ele>
        <time>2016-05-08T09:55:20Z</time>
      </trkpt>
      <trkpt lat="47.59688" lon="4.68911">
        <ele>404.85</ele>
        <time>2016-05-08T09:55:32Z</time>
      </trkpt>
      <trkpt lat="47.59685" lon="4.68886">
        <ele>403.41</ele>
        <time>2016-05-08T09:55:48Z</time>
      </trkpt>
      <trkpt lat="47.59683" lon="4.68866">
        <ele>401.49</ele>
        <time>2016-05-08T09:56:02Z</time>
      </trkpt>
      <trkpt lat="47.59682" lon="4.6886">
        <ele>400.53</ele>
        <time>2016-05-08T09:56:06Z</time>
      </trkpt>
      <trkpt lat="47.59682" lon="4.68855">
        <ele>400.05</ele>
        <time>2016-05-08T09:56:10Z</time>
      </trkpt>
      <trkpt lat="47.59682" lon="4.68848">
        <ele>399.57</ele>
        <time>2016-05-08T09:56:15Z</time>
      </trkpt>
      <trkpt lat="47.59681" lon="4.68829">
        <ele>397.64</ele>
        <time>2016-05-08T09:56:28Z</time>
      </trkpt>
      <trkpt lat="47.59679" lon="4.6882">
        <ele>396.68</ele>
        <time>2016-05-08T09:56:35Z</time>
      </trkpt>
      <trkpt lat="47.59679" lon="4.68812">
        <ele>395.72</ele>
        <time>2016-05-08T09:56:40Z</time>
      </trkpt>
      <trkpt lat="47.59678" lon="4.68802">
        <ele>394.76</ele>
        <time>2016-05-08T09:56:46Z</time>
      </trkpt>
      <trkpt lat="47.59677" lon="4.68792">
        <ele>394.28</ele>
        <time>2016-05-08T09:56:54Z</time>
      </trkpt>
      <trkpt lat="47.59676" lon="4.68782">
        <ele>393.32</ele>
        <time>2016-05-08T09:57:00Z</time>
      </trkpt>
      <trkpt lat="47.59676" lon="4.68775">
        <ele>392.84</ele>
        <time>2016-05-08T09:57:04Z</time>
      </trkpt>
      <trkpt lat="47.59675" lon="4.6877">
        <ele>392.36</ele>
        <time>2016-05-08T09:57:07Z</time>
      </trkpt>
      <trkpt lat="47.59673" lon="4.68752">
        <ele>390.43</ele>
        <time>2016-05-08T09:57:20Z</time>
      </trkpt>
      <trkpt lat="47.59672" lon="4.68743">
        <ele>388.99</ele>
        <time>2016-05-08T09:57:26Z</time>
      </trkpt>
      <trkpt lat="47.59668" lon="4.68722">
        <ele>386.59</ele>
        <time>2016-05-08T09:57:42Z</time>
      </trkpt>
      <trkpt lat="47.59662" lon="4.68709">
        <ele>384.18</ele>
        <time>2016-05-08T09:57:57Z</time>
      </trkpt>
      <trkpt lat="47.59656" lon="4.68696">
        <ele>381.78</ele>
        <time>2016-05-08T09:58:11Z</time>
      </trkpt>
      <trkpt lat="47.59651" lon="4.68685">
        <ele>378.9</ele>
        <time>2016-05-08T09:58:25Z</time>
      </trkpt>
      <trkpt lat="47.59648" lon="4.68678">
        <ele>376.01</ele>
        <time>2016-05-08T09:58:38Z</time>
      </trkpt>
      <trkpt lat="47.59639" lon="4.6866">
        <ele>373.13</ele>
        <time>2016-05-08T09:58:51Z</time>
      </trkpt>
      <trkpt lat="47.59635" lon="4.68645">
        <ele>370.24</ele>
        <time>2016-05-08T09:59:06Z</time>
      </trkpt>
      <trkpt lat="47.59634" lon="4.68635">
        <ele>367.36</ele>
        <time>2016-05-08T09:59:16Z</time>
      </trkpt>
      <trkpt lat="47.5963" lon="4.68624">
        <ele>364</ele>
        <time>2016-05-08T09:59:30Z</time>
      </trkpt>
      <trkpt lat="47.59629" lon="4.68616">
        <ele>362.07</ele>
        <time>2016-05-08T09:59:38Z</time>
      </trkpt>
      <trkpt lat="47.59626" lon="4.68582">
        <ele>358.71</ele>
        <time>2016-05-08T09:59:52Z</time>
      </trkpt>
      <trkpt lat="47.59617" lon="4.68564">
        <ele>355.83</ele>
        <time>2016-05-08T10:00:05Z</time>
      </trkpt>
      <trkpt lat="47.59607" lon="4.68551">
        <ele>353.9</ele>
        <time>2016-05-08T10:00:17Z</time>
      </trkpt>
      <trkpt lat="47.59594" lon="4.68538">
        <ele>352.46</ele>
        <time>2016-05-08T10:00:31Z</time>
      </trkpt>
      <trkpt lat="47.59581" lon="4.68527">
        <ele>350.54</ele>
        <time>2016-05-08T10:00:45Z</time>
      </trkpt>
      <trkpt lat="47.59578" lon="4.68527">
        <ele>349.1</ele>
        <time>2016-05-08T10:00:48Z</time>
      </trkpt>
      <trkpt lat="47.59572" lon="4.6852">
        <ele>347.65</ele>
        <time>2016-05-08T10:00:55Z</time>
      </trkpt>
      <trkpt lat="47.59561" lon="4.68514">
        <ele>344.77</ele>
        <time>2016-05-08T10:01:07Z</time>
      </trkpt>
      <trkpt lat="47.59554" lon="4.68502">
        <ele>341.89</ele>
        <time>2016-05-08T10:01:24Z</time>
      </trkpt>
      <trkpt lat="47.59545" lon="4.68491">
        <ele>340.44</ele>
        <time>2016-05-08T10:01:36Z</time>
      </trkpt>
      <trkpt lat="47.59534" lon="4.68466">
        <ele>338.52</ele>
        <time>2016-05-08T10:01:50Z</time>
      </trkpt>
      <trkpt lat="47.59527" lon="4.68451">
        <ele>338.52</ele>
        <time>2016-05-08T10:02:00Z</time>
      </trkpt>
      <trkpt lat="47.59519" lon="4.68433">
        <ele>337.08</ele>
        <time>2016-05-08T10:02:15Z</time>
      </trkpt>
      <trkpt lat="47.59519" lon="4.68433">
        <ele>337.56</ele>
        <time>2016-05-08T10:02:34Z</time>
      </trkpt>
      <trkpt lat="47.59519" lon="4.68432">
        <ele>337.08</ele>
        <time>2016-05-08T10:02:52Z</time>
      </trkpt>
      <trkpt lat="47.59519" lon="4.68432">
        <ele>337.08</ele>
        <time>2016-05-08T10:03:11Z</time>
      </trkpt>
      <trkpt lat="47.59519" lon="4.68433">
        <ele>337.08</ele>
        <time>2016-05-08T10:03:29Z</time>
      </trkpt>
      <trkpt lat="47.59519" lon="4.68434">
        <ele>336.6</ele>
        <time>2016-05-08T10:03:50Z</time>
      </trkpt>
      <trkpt lat="47.59518" lon="4.68435">
        <ele>337.08</ele>
        <time>2016-05-08T10:04:11Z</time>
      </trkpt>
      <trkpt lat="47.59517" lon="4.68436">
        <ele>337.56</ele>
        <time>2016-05-08T10:04:28Z</time>
      </trkpt>
      <trkpt lat="47.59511" lon="4.68434">
        <ele>337.56</ele>
        <time>2016-05-08T10:04:41Z</time>
      </trkpt>
      <trkpt lat="47.59505" lon="4.68438">
        <ele>339</ele>
        <time>2016-05-08T10:04:54Z</time>
      </trkpt>
      <trkpt lat="47.5949" lon="4.68441">
        <ele>339.96</ele>
        <time>2016-05-08T10:05:06Z</time>
      </trkpt>
      <trkpt lat="47.59477" lon="4.68445">
        <ele>341.41</ele>
        <time>2016-05-08T10:05:20Z</time>
      </trkpt>
      <trkpt lat="47.59461" lon="4.68454">
        <ele>341.89</ele>
        <time>2016-05-08T10:05:33Z</time>
      </trkpt>
      <trkpt lat="47.59448" lon="4.68462">
        <ele>343.33</ele>
        <time>2016-05-08T10:05:47Z</time>
      </trkpt>
      <trkpt lat="47.59436" lon="4.6847">
        <ele>344.77</ele>
        <time>2016-05-08T10:06:00Z</time>
      </trkpt>
      <trkpt lat="47.5943" lon="4.68474">
        <ele>345.73</ele>
        <time>2016-05-08T10:06:14Z</time>
      </trkpt>
      <trkpt lat="47.59426" lon="4.6848">
        <ele>347.17</ele>
        <time>2016-05-08T10:06:28Z</time>
      </trkpt>
      <trkpt lat="47.59425" lon="4.68484">
        <ele>348.13</ele>
        <time>2016-05-08T10:06:40Z</time>
      </trkpt>
      <trkpt lat="47.59422" lon="4.68488">
        <ele>348.62</ele>
        <time>2016-05-08T10:06:53Z</time>
      </trkpt>
      <trkpt lat="47.59416" lon="4.68493">
        <ele>349.1</ele>
        <time>2016-05-08T10:07:09Z</time>
      </trkpt>
      <trkpt lat="47.5941" lon="4.68499">
        <ele>349.58</ele>
        <time>2016-05-08T10:07:25Z</time>
      </trkpt>
      <trkpt lat="47.59402" lon="4.68515">
        <ele>349.58</ele>
        <time>2016-05-08T10:07:38Z</time>
      </trkpt>
      <trkpt lat="47.59391" lon="4.68543">
        <ele>349.58</ele>
        <time>2016-05-08T10:07:51Z</time>
      </trkpt>
      <trkpt lat="47.59385" lon="4.68561">
        <ele>349.1</ele>
        <time>2016-05-08T10:08:03Z</time>
      </trkpt>
      <trkpt lat="47.5938" lon="4.68577">
        <ele>349.1</ele>
        <time>2016-05-08T10:08:14Z</time>
      </trkpt>
      <trkpt lat="47.59372" lon="4.68592">
        <ele>349.58</ele>
        <time>2016-05-08T10:08:24Z</time>
      </trkpt>
      <trkpt lat="47.59364" lon="4.68613">
        <ele>350.06</ele>
        <time>2016-05-08T10:08:37Z</time>
      </trkpt>
      <trkpt lat="47.59358" lon="4.68636">
        <ele>350.54</ele>
        <time>2016-05-08T10:08:49Z</time>
      </trkpt>
      <trkpt lat="47.5935" lon="4.68651">
        <ele>350.54</ele>
        <time>2016-05-08T10:08:59Z</time>
      </trkpt>
      <trkpt lat="47.59342" lon="4.68671">
        <ele>350.54</ele>
        <time>2016-05-08T10:09:10Z</time>
      </trkpt>
      <trkpt lat="47.5933" lon="4.68685">
        <ele>350.06</ele>
        <time>2016-05-08T10:09:25Z</time>
      </trkpt>
      <trkpt lat="47.59322" lon="4.68692">
        <ele>350.54</ele>
        <time>2016-05-08T10:09:32Z</time>
      </trkpt>
      <trkpt lat="47.59318" lon="4.68683">
        <ele>350.06</ele>
        <time>2016-05-08T10:09:43Z</time>
      </trkpt>
      <trkpt lat="47.59319" lon="4.6867">
        <ele>349.58</ele>
        <time>2016-05-08T10:09:57Z</time>
      </trkpt>
      <trkpt lat="47.59317" lon="4.68666">
        <ele>349.1</ele>
        <time>2016-05-08T10:10:00Z</time>
      </trkpt>
      <trkpt lat="47.59306" lon="4.6864">
        <ele>348.62</ele>
        <time>2016-05-08T10:10:14Z</time>
      </trkpt>
      <trkpt lat="47.59305" lon="4.68639">
        <ele>349.1</ele>
        <time>2016-05-08T10:10:29Z</time>
      </trkpt>
      <trkpt lat="47.59305" lon="4.68633">
        <ele>348.62</ele>
        <time>2016-05-08T10:10:43Z</time>
      </trkpt>
      <trkpt lat="47.59305" lon="4.6863">
        <ele>348.62</ele>
        <time>2016-05-08T10:10:57Z</time>
      </trkpt>
      <trkpt lat="47.59306" lon="4.68624">
        <ele>348.62</ele>
        <time>2016-05-08T10:11:19Z</time>
      </trkpt>
      <trkpt lat="47.59305" lon="4.68619">
        <ele>348.13</ele>
        <time>2016-05-08T10:11:29Z</time>
      </trkpt>
      <trkpt lat="47.59295" lon="4.68604">
        <ele>347.17</ele>
        <time>2016-05-08T10:11:41Z</time>
      </trkpt>
      <trkpt lat="47.59286" lon="4.68589">
        <ele>346.21</ele>
        <time>2016-05-08T10:11:54Z</time>
      </trkpt>
      <trkpt lat="47.59275" lon="4.68585">
        <ele>344.77</ele>
        <time>2016-05-08T10:12:09Z</time>
      </trkpt>
      <trkpt lat="47.59268" lon="4.68587">
        <ele>344.29</ele>
        <time>2016-05-08T10:12:22Z</time>
      </trkpt>
      <trkpt lat="47.59261" lon="4.68585">
        <ele>343.33</ele>
        <time>2016-05-08T10:12:32Z</time>
      </trkpt>
      <trkpt lat="47.59248" lon="4.68589">
        <ele>342.37</ele>
        <time>2016-05-08T10:12:48Z</time>
      </trkpt>
      <trkpt lat="47.59229" lon="4.68594">
        <ele>340.92</ele>
        <time>2016-05-08T10:13:02Z</time>
      </trkpt>
      <trkpt lat="47.59208" lon="4.68604">
        <ele>339.96</ele>
        <time>2016-05-08T10:13:19Z</time>
      </trkpt>
      <trkpt lat="47.59196" lon="4.68608">
        <ele>340.44</ele>
        <time>2016-05-08T10:13:32Z</time>
      </trkpt>
      <trkpt lat="47.59176" lon="4.68623">
        <ele>340.92</ele>
        <time>2016-05-08T10:13:47Z</time>
      </trkpt>
      <trkpt lat="47.59171" lon="4.68633">
        <ele>341.41</ele>
        <time>2016-05-08T10:14:00Z</time>
      </trkpt>
      <trkpt lat="47.59164" lon="4.68651">
        <ele>341.89</ele>
        <time>2016-05-08T10:14:14Z</time>
      </trkpt>
      <trkpt lat="47.59157" lon="4.68662">
        <ele>342.37</ele>
        <time>2016-05-08T10:14:24Z</time>
      </trkpt>
      <trkpt lat="47.59145" lon="4.68677">
        <ele>341.89</ele>
        <time>2016-05-08T10:14:36Z</time>
      </trkpt>
      <trkpt lat="47.59138" lon="4.68689">
        <ele>342.37</ele>
        <time>2016-05-08T10:14:50Z</time>
      </trkpt>
      <trkpt lat="47.59128" lon="4.68698">
        <ele>342.85</ele>
        <time>2016-05-08T10:15:03Z</time>
      </trkpt>
      <trkpt lat="47.59121" lon="4.68702">
        <ele>343.81</ele>
        <time>2016-05-08T10:15:17Z</time>
      </trkpt>
      <trkpt lat="47.5911" lon="4.68714">
        <ele>343.81</ele>
        <time>2016-05-08T10:15:30Z</time>
      </trkpt>
      <trkpt lat="47.59102" lon="4.68725">
        <ele>344.29</ele>
        <time>2016-05-08T10:15:45Z</time>
      </trkpt>
      <trkpt lat="47.59092" lon="4.68737">
        <ele>344.29</ele>
        <time>2016-05-08T10:15:58Z</time>
      </trkpt>
      <trkpt lat="47.5908" lon="4.68744">
        <ele>344.77</ele>
        <time>2016-05-08T10:16:12Z</time>
      </trkpt>
      <trkpt lat="47.59061" lon="4.68753">
        <ele>345.73</ele>
        <time>2016-05-08T10:16:23Z</time>
      </trkpt>
      <trkpt lat="47.59045" lon="4.68759">
        <ele>346.21</ele>
        <time>2016-05-08T10:16:37Z</time>
      </trkpt>
      <trkpt lat="47.59031" lon="4.68765">
        <ele>346.21</ele>
        <time>2016-05-08T10:16:52Z</time>
      </trkpt>
      <trkpt lat="47.59029" lon="4.68766">
        <ele>343.33</ele>
        <time>2016-05-08T10:16:53Z</time>
      </trkpt>
      <trkpt lat="47.59027" lon="4.68767">
        <ele>347.65</ele>
        <time>2016-05-08T10:16:54Z</time>
      </trkpt>
      <trkpt lat="47.58999" lon="4.68773">
        <ele>346.69</ele>
        <time>2016-05-08T10:17:07Z</time>
      </trkpt>
      <trkpt lat="47.58983" lon="4.68776">
        <ele>338.04</ele>
        <time>2016-05-08T10:17:18Z</time>
      </trkpt>
      <trkpt lat="47.58982" lon="4.68777">
        <ele>348.13</ele>
        <time>2016-05-08T10:17:19Z</time>
      </trkpt>
      <trkpt lat="47.58979" lon="4.68777">
        <ele>352.94</ele>
        <time>2016-05-08T10:17:21Z</time>
      </trkpt>
      <trkpt lat="47.58978" lon="4.68777">
        <ele>347.17</ele>
        <time>2016-05-08T10:17:22Z</time>
      </trkpt>
      <trkpt lat="47.58972" lon="4.68779">
        <ele>346.69</ele>
        <time>2016-05-08T10:17:38Z</time>
      </trkpt>
      <trkpt lat="47.58964" lon="4.68781">
        <ele>346.69</ele>
        <time>2016-05-08T10:17:51Z</time>
      </trkpt>
      <trkpt lat="47.58947" lon="4.68786">
        <ele>347.17</ele>
        <time>2016-05-08T10:18:05Z</time>
      </trkpt>
      <trkpt lat="47.58937" lon="4.68788">
        <ele>348.13</ele>
        <time>2016-05-08T10:18:17Z</time>
      </trkpt>
      <trkpt lat="47.58917" lon="4.68794">
        <ele>347.17</ele>
        <time>2016-05-08T10:18:31Z</time>
      </trkpt>
      <trkpt lat="47.58901" lon="4.688">
        <ele>347.17</ele>
        <time>2016-05-08T10:18:47Z</time>
      </trkpt>
      <trkpt lat="47.58886" lon="4.68804">
        <ele>347.17</ele>
        <time>2016-05-08T10:18:59Z</time>
      </trkpt>
      <trkpt lat="47.58879" lon="4.68808">
        <ele>345.73</ele>
        <time>2016-05-08T10:19:11Z</time>
      </trkpt>
      <trkpt lat="47.5886" lon="4.68816">
        <ele>344.77</ele>
        <time>2016-05-08T10:19:24Z</time>
      </trkpt>
      <trkpt lat="47.58838" lon="4.68825">
        <ele>343.33</ele>
        <time>2016-05-08T10:19:40Z</time>
      </trkpt>
      <trkpt lat="47.58831" lon="4.68832">
        <ele>342.37</ele>
        <time>2016-05-08T10:19:56Z</time>
      </trkpt>
      <trkpt lat="47.58825" lon="4.68843">
        <ele>341.89</ele>
        <time>2016-05-08T10:20:10Z</time>
      </trkpt>
      <trkpt lat="47.58822" lon="4.6886">
        <ele>342.85</ele>
        <time>2016-05-08T10:20:26Z</time>
      </trkpt>
      <trkpt lat="47.58821" lon="4.68874">
        <ele>343.81</ele>
        <time>2016-05-08T10:20:38Z</time>
      </trkpt>
      <trkpt lat="47.58817" lon="4.68883">
        <ele>344.77</ele>
        <time>2016-05-08T10:20:51Z</time>
      </trkpt>
      <trkpt lat="47.58807" lon="4.68914">
        <ele>344.29</ele>
        <time>2016-05-08T10:21:06Z</time>
      </trkpt>
      <trkpt lat="47.58787" lon="4.68948">
        <ele>344.29</ele>
        <time>2016-05-08T10:21:19Z</time>
      </trkpt>
      <trkpt lat="47.58775" lon="4.68968">
        <ele>343.81</ele>
        <time>2016-05-08T10:21:32Z</time>
      </trkpt>
      <trkpt lat="47.58766" lon="4.68987">
        <ele>343.81</ele>
        <time>2016-05-08T10:21:47Z</time>
      </trkpt>
      <trkpt lat="47.58758" lon="4.69017">
        <ele>344.77</ele>
        <time>2016-05-08T10:22:02Z</time>
      </trkpt>
      <trkpt lat="47.58751" lon="4.69038">
        <ele>344.77</ele>
        <time>2016-05-08T10:22:15Z</time>
      </trkpt>
      <trkpt lat="47.58745" lon="4.69067">
        <ele>344.77</ele>
        <time>2016-05-08T10:22:32Z</time>
      </trkpt>
      <trkpt lat="47.5874" lon="4.69086">
        <ele>345.25</ele>
        <time>2016-05-08T10:22:45Z</time>
      </trkpt>
      <trkpt lat="47.58732" lon="4.69109">
        <ele>346.69</ele>
        <time>2016-05-08T10:22:58Z</time>
      </trkpt>
      <trkpt lat="47.58728" lon="4.69125">
        <ele>346.69</ele>
        <time>2016-05-08T10:23:10Z</time>
      </trkpt>
      <trkpt lat="47.58721" lon="4.69149">
        <ele>347.17</ele>
        <time>2016-05-08T10:23:25Z</time>
      </trkpt>
      <trkpt lat="47.5872" lon="4.69168">
        <ele>346.69</ele>
        <time>2016-05-08T10:23:39Z</time>
      </trkpt>
      <trkpt lat="47.5872" lon="4.69171">
        <ele>347.17</ele>
        <time>2016-05-08T10:23:41Z</time>
      </trkpt>
      <trkpt lat="47.58714" lon="4.69196">
        <ele>347.17</ele>
        <time>2016-05-08T10:23:56Z</time>
      </trkpt>
      <trkpt lat="47.58711" lon="4.69204">
        <ele>346.69</ele>
        <time>2016-05-08T10:24:00Z</time>
      </trkpt>
      <trkpt lat="47.5871" lon="4.6921">
        <ele>346.69</ele>
        <time>2016-05-08T10:24:04Z</time>
      </trkpt>
      <trkpt lat="47.58706" lon="4.69223">
        <ele>347.17</ele>
        <time>2016-05-08T10:24:12Z</time>
      </trkpt>
      <trkpt lat="47.58699" lon="4.69248">
        <ele>347.17</ele>
        <time>2016-05-08T10:24:26Z</time>
      </trkpt>
      <trkpt lat="47.58696" lon="4.69267">
        <ele>347.17</ele>
        <time>2016-05-08T10:24:40Z</time>
      </trkpt>
      <trkpt lat="47.58685" lon="4.69297">
        <ele>346.69</ele>
        <time>2016-05-08T10:24:57Z</time>
      </trkpt>
      <trkpt lat="47.58679" lon="4.69323">
        <ele>344.77</ele>
        <time>2016-05-08T10:25:12Z</time>
      </trkpt>
      <trkpt lat="47.58676" lon="4.69345">
        <ele>342.85</ele>
        <time>2016-05-08T10:25:26Z</time>
      </trkpt>
      <trkpt lat="47.58669" lon="4.69364">
        <ele>341.89</ele>
        <time>2016-05-08T10:25:39Z</time>
      </trkpt>
      <trkpt lat="47.58661" lon="4.69383">
        <ele>340.92</ele>
        <time>2016-05-08T10:25:52Z</time>
      </trkpt>
      <trkpt lat="47.58657" lon="4.69398">
        <ele>340.92</ele>
        <time>2016-05-08T10:26:02Z</time>
      </trkpt>
      <trkpt lat="47.58648" lon="4.6942">
        <ele>340.92</ele>
        <time>2016-05-08T10:26:17Z</time>
      </trkpt>
      <trkpt lat="47.58642" lon="4.69434">
        <ele>340.92</ele>
        <time>2016-05-08T10:26:31Z</time>
      </trkpt>
      <trkpt lat="47.58638" lon="4.69442">
        <ele>341.41</ele>
        <time>2016-05-08T10:26:49Z</time>
      </trkpt>
      <trkpt lat="47.58633" lon="4.69452">
        <ele>341.41</ele>
        <time>2016-05-08T10:27:01Z</time>
      </trkpt>
      <trkpt lat="47.58624" lon="4.69466">
        <ele>341.41</ele>
        <time>2016-05-08T10:27:11Z</time>
      </trkpt>
      <trkpt lat="47.58619" lon="4.69473">
        <ele>340.92</ele>
        <time>2016-05-08T10:27:29Z</time>
      </trkpt>
      <trkpt lat="47.58616" lon="4.69483">
        <ele>341.41</ele>
        <time>2016-05-08T10:27:43Z</time>
      </trkpt>
      <trkpt lat="47.58605" lon="4.69498">
        <ele>341.89</ele>
        <time>2016-05-08T10:27:58Z</time>
      </trkpt>
      <trkpt lat="47.58591" lon="4.69511">
        <ele>340.92</ele>
        <time>2016-05-08T10:28:12Z</time>
      </trkpt>
      <trkpt lat="47.5858" lon="4.69517">
        <ele>341.41</ele>
        <time>2016-05-08T10:28:23Z</time>
      </trkpt>
      <trkpt lat="47.58571" lon="4.69527">
        <ele>341.41</ele>
        <time>2016-05-08T10:28:36Z</time>
      </trkpt>
      <trkpt lat="47.58559" lon="4.69539">
        <ele>341.89</ele>
        <time>2016-05-08T10:28:50Z</time>
      </trkpt>
      <trkpt lat="47.58546" lon="4.69548">
        <ele>342.37</ele>
        <time>2016-05-08T10:29:04Z</time>
      </trkpt>
      <trkpt lat="47.58532" lon="4.69559">
        <ele>342.37</ele>
        <time>2016-05-08T10:29:19Z</time>
      </trkpt>
      <trkpt lat="47.58513" lon="4.69571">
        <ele>341.89</ele>
        <time>2016-05-08T10:29:36Z</time>
      </trkpt>
      <trkpt lat="47.58507" lon="4.69581">
        <ele>342.37</ele>
        <time>2016-05-08T10:29:51Z</time>
      </trkpt>
      <trkpt lat="47.58499" lon="4.69583">
        <ele>342.37</ele>
        <time>2016-05-08T10:30:10Z</time>
      </trkpt>
      <trkpt lat="47.58491" lon="4.69585">
        <ele>342.37</ele>
        <time>2016-05-08T10:30:29Z</time>
      </trkpt>
      <trkpt lat="47.58478" lon="4.69587">
        <ele>343.33</ele>
        <time>2016-05-08T10:30:44Z</time>
      </trkpt>
      <trkpt lat="47.58468" lon="4.69595">
        <ele>347.65</ele>
        <time>2016-05-08T10:30:53Z</time>
      </trkpt>
      <trkpt lat="47.58466" lon="4.69596">
        <ele>338.04</ele>
        <time>2016-05-08T10:30:54Z</time>
      </trkpt>
      <trkpt lat="47.58465" lon="4.69597">
        <ele>348.13</ele>
        <time>2016-05-08T10:30:55Z</time>
      </trkpt>
      <trkpt lat="47.58464" lon="4.69598">
        <ele>344.77</ele>
        <time>2016-05-08T10:30:56Z</time>
      </trkpt>
      <trkpt lat="47.58454" lon="4.69605">
        <ele>345.73</ele>
        <time>2016-05-08T10:31:09Z</time>
      </trkpt>
      <trkpt lat="47.58448" lon="4.69613">
        <ele>346.69</ele>
        <time>2016-05-08T10:31:25Z</time>
      </trkpt>
      <trkpt lat="47.58438" lon="4.69625">
        <ele>348.13</ele>
        <time>2016-05-08T10:31:40Z</time>
      </trkpt>
      <trkpt lat="47.5843" lon="4.69631">
        <ele>348.13</ele>
        <time>2016-05-08T10:31:52Z</time>
      </trkpt>
      <trkpt lat="47.58412" lon="4.69644">
        <ele>348.13</ele>
        <time>2016-05-08T10:32:06Z</time>
      </trkpt>
      <trkpt lat="47.584" lon="4.6965">
        <ele>347.17</ele>
        <time>2016-05-08T10:32:18Z</time>
      </trkpt>
      <trkpt lat="47.58386" lon="4.6966">
        <ele>347.65</ele>
        <time>2016-05-08T10:32:33Z</time>
      </trkpt>
      <trkpt lat="47.58373" lon="4.69678">
        <ele>347.17</ele>
        <time>2016-05-08T10:32:47Z</time>
      </trkpt>
      <trkpt lat="47.58367" lon="4.69689">
        <ele>347.17</ele>
        <time>2016-05-08T10:32:59Z</time>
      </trkpt>
      <trkpt lat="47.58356" lon="4.69708">
        <ele>346.69</ele>
        <time>2016-05-08T10:33:13Z</time>
      </trkpt>
      <trkpt lat="47.58349" lon="4.69718">
        <ele>345.73</ele>
        <time>2016-05-08T10:33:27Z</time>
      </trkpt>
      <trkpt lat="47.58336" lon="4.69741">
        <ele>345.25</ele>
        <time>2016-05-08T10:33:40Z</time>
      </trkpt>
      <trkpt lat="47.58328" lon="4.69758">
        <ele>345.73</ele>
        <time>2016-05-08T10:33:50Z</time>
      </trkpt>
      <trkpt lat="47.58319" lon="4.69774">
        <ele>344.29</ele>
        <time>2016-05-08T10:34:04Z</time>
      </trkpt>
      <trkpt lat="47.58317" lon="4.69784">
        <ele>343.33</ele>
        <time>2016-05-08T10:34:15Z</time>
      </trkpt>
      <trkpt lat="47.58314" lon="4.69797">
        <ele>342.85</ele>
        <time>2016-05-08T10:34:23Z</time>
      </trkpt>
      <trkpt lat="47.5831" lon="4.69815">
        <ele>344.29</ele>
        <time>2016-05-08T10:34:37Z</time>
      </trkpt>
      <trkpt lat="47.5831" lon="4.69821">
        <ele>343.81</ele>
        <time>2016-05-08T10:34:43Z</time>
      </trkpt>
      <trkpt lat="47.58306" lon="4.69836">
        <ele>344.29</ele>
        <time>2016-05-08T10:34:52Z</time>
      </trkpt>
      <trkpt lat="47.58303" lon="4.6986">
        <ele>344.77</ele>
        <time>2016-05-08T10:35:05Z</time>
      </trkpt>
      <trkpt lat="47.58297" lon="4.69884">
        <ele>344.29</ele>
        <time>2016-05-08T10:35:19Z</time>
      </trkpt>
      <trkpt lat="47.58288" lon="4.699">
        <ele>343.81</ele>
        <time>2016-05-08T10:35:33Z</time>
      </trkpt>
      <trkpt lat="47.58284" lon="4.69918">
        <ele>343.81</ele>
        <time>2016-05-08T10:35:43Z</time>
      </trkpt>
      <trkpt lat="47.58277" lon="4.69935">
        <ele>344.29</ele>
        <time>2016-05-08T10:35:55Z</time>
      </trkpt>
      <trkpt lat="47.58278" lon="4.69951">
        <ele>343.81</ele>
        <time>2016-05-08T10:36:08Z</time>
      </trkpt>
      <trkpt lat="47.58277" lon="4.69966">
        <ele>344.77</ele>
        <time>2016-05-08T10:36:20Z</time>
      </trkpt>
      <trkpt lat="47.58275" lon="4.69977">
        <ele>344.77</ele>
        <time>2016-05-08T10:36:32Z</time>
      </trkpt>
      <trkpt lat="47.58274" lon="4.69986">
        <ele>344.77</ele>
        <time>2016-05-08T10:36:54Z</time>
      </trkpt>
      <trkpt lat="47.5827" lon="4.69989">
        <ele>344.77</ele>
        <time>2016-05-08T10:37:14Z</time>
      </trkpt>
      <trkpt lat="47.5827" lon="4.69989">
        <ele>343.81</ele>
        <time>2016-05-08T10:37:29Z</time>
      </trkpt>
      <trkpt lat="47.58268" lon="4.69981">
        <ele>342.85</ele>
        <time>2016-05-08T10:37:44Z</time>
      </trkpt>
      <trkpt lat="47.5827" lon="4.69971">
        <ele>343.33</ele>
        <time>2016-05-08T10:38:14Z</time>
      </trkpt>
      <trkpt lat="47.58267" lon="4.69971">
        <ele>342.37</ele>
        <time>2016-05-08T10:38:37Z</time>
      </trkpt>
      <trkpt lat="47.58264" lon="4.69961">
        <ele>342.37</ele>
        <time>2016-05-08T10:38:53Z</time>
      </trkpt>
      <trkpt lat="47.58264" lon="4.6996">
        <ele>343.33</ele>
        <time>2016-05-08T10:38:58Z</time>
      </trkpt>
      <trkpt lat="47.58268" lon="4.69965">
        <ele>343.33</ele>
        <time>2016-05-08T10:39:11Z</time>
      </trkpt>
      <trkpt lat="47.58271" lon="4.6998">
        <ele>344.77</ele>
        <time>2016-05-08T10:39:24Z</time>
      </trkpt>
      <trkpt lat="47.58271" lon="4.6999">
        <ele>344.29</ele>
        <time>2016-05-08T10:39:36Z</time>
      </trkpt>
      <trkpt lat="47.58266" lon="4.7001">
        <ele>345.25</ele>
        <time>2016-05-08T10:39:51Z</time>
      </trkpt>
      <trkpt lat="47.58254" lon="4.70023">
        <ele>345.25</ele>
        <time>2016-05-08T10:40:04Z</time>
      </trkpt>
      <trkpt lat="47.58247" lon="4.7003">
        <ele>345.25</ele>
        <time>2016-05-08T10:40:20Z</time>
      </trkpt>
      <trkpt lat="47.58234" lon="4.70037">
        <ele>344.77</ele>
        <time>2016-05-08T10:40:44Z</time>
      </trkpt>
      <trkpt lat="47.58234" lon="4.70035">
        <ele>344.29</ele>
        <time>2016-05-08T10:41:05Z</time>
      </trkpt>
      <trkpt lat="47.58229" lon="4.70034">
        <ele>344.77</ele>
        <time>2016-05-08T10:41:31Z</time>
      </trkpt>
      <trkpt lat="47.58228" lon="4.70034">
        <ele>344.29</ele>
        <time>2016-05-08T10:41:53Z</time>
      </trkpt>
      <trkpt lat="47.58227" lon="4.70034">
        <ele>344.29</ele>
        <time>2016-05-08T10:42:09Z</time>
      </trkpt>
      <trkpt lat="47.58222" lon="4.70037">
        <ele>344.29</ele>
        <time>2016-05-08T10:42:26Z</time>
      </trkpt>
      <trkpt lat="47.58214" lon="4.70035">
        <ele>344.29</ele>
        <time>2016-05-08T10:42:48Z</time>
      </trkpt>
      <trkpt lat="47.58201" lon="4.70034">
        <ele>343.33</ele>
        <time>2016-05-08T10:43:02Z</time>
      </trkpt>
      <trkpt lat="47.58188" lon="4.70031">
        <ele>342.85</ele>
        <time>2016-05-08T10:43:14Z</time>
      </trkpt>
      <trkpt lat="47.58175" lon="4.70021">
        <ele>342.85</ele>
        <time>2016-05-08T10:43:29Z</time>
      </trkpt>
      <trkpt lat="47.58164" lon="4.70016">
        <ele>342.85</ele>
        <time>2016-05-08T10:43:40Z</time>
      </trkpt>
      <trkpt lat="47.58161" lon="4.70008">
        <ele>343.33</ele>
        <time>2016-05-08T10:43:45Z</time>
      </trkpt>
      <trkpt lat="47.58149" lon="4.70015">
        <ele>344.77</ele>
        <time>2016-05-08T10:44:00Z</time>
      </trkpt>
      <trkpt lat="47.58147" lon="4.70027">
        <ele>346.21</ele>
        <time>2016-05-08T10:44:13Z</time>
      </trkpt>
      <trkpt lat="47.58149" lon="4.7004">
        <ele>349.1</ele>
        <time>2016-05-08T10:44:27Z</time>
      </trkpt>
      <trkpt lat="47.5815" lon="4.70045">
        <ele>351.98</ele>
        <time>2016-05-08T10:44:43Z</time>
      </trkpt>
      <trkpt lat="47.5815" lon="4.70049">
        <ele>355.34</ele>
        <time>2016-05-08T10:44:46Z</time>
      </trkpt>
      <trkpt lat="47.5815" lon="4.70049">
        <ele>352.46</ele>
        <time>2016-05-08T10:44:47Z</time>
      </trkpt>
      <trkpt lat="47.58151" lon="4.70053">
        <ele>342.37</ele>
        <time>2016-05-08T10:44:51Z</time>
      </trkpt>
      <trkpt lat="47.58151" lon="4.70053">
        <ele>354.86</ele>
        <time>2016-05-08T10:44:52Z</time>
      </trkpt>
      <trkpt lat="47.5815" lon="4.70055">
        <ele>344.77</ele>
        <time>2016-05-08T10:44:56Z</time>
      </trkpt>
      <trkpt lat="47.5815" lon="4.70055">
        <ele>355.34</ele>
        <time>2016-05-08T10:44:57Z</time>
      </trkpt>
      <trkpt lat="47.5815" lon="4.70061">
        <ele>354.86</ele>
        <time>2016-05-08T10:45:13Z</time>
      </trkpt>
      <trkpt lat="47.5815" lon="4.70065">
        <ele>357.75</ele>
        <time>2016-05-08T10:45:31Z</time>
      </trkpt>
      <trkpt lat="47.58152" lon="4.70074">
        <ele>356.79</ele>
        <time>2016-05-08T10:45:49Z</time>
      </trkpt>
      <trkpt lat="47.58141" lon="4.70081">
        <ele>353.9</ele>
        <time>2016-05-08T10:45:59Z</time>
      </trkpt>
      <trkpt lat="47.58141" lon="4.70081">
        <ele>356.79</ele>
        <time>2016-05-08T10:46:00Z</time>
      </trkpt>
      <trkpt lat="47.58135" lon="4.70083">
        <ele>350.06</ele>
        <time>2016-05-08T10:46:05Z</time>
      </trkpt>
      <trkpt lat="47.58134" lon="4.70084">
        <ele>357.75</ele>
        <time>2016-05-08T10:46:06Z</time>
      </trkpt>
      <trkpt lat="47.58129" lon="4.70084">
        <ele>355.83</ele>
        <time>2016-05-08T10:46:21Z</time>
      </trkpt>
      <trkpt lat="47.58127" lon="4.70086">
        <ele>356.31</ele>
        <time>2016-05-08T10:46:34Z</time>
      </trkpt>
      <trkpt lat="47.58126" lon="4.70086">
        <ele>356.31</ele>
        <time>2016-05-08T10:46:58Z</time>
      </trkpt>
      <trkpt lat="47.58125" lon="4.70086">
        <ele>355.83</ele>
        <time>2016-05-08T10:47:22Z</time>
      </trkpt>
      <trkpt lat="47.58126" lon="4.70085">
        <ele>356.31</ele>
        <time>2016-05-08T10:47:51Z</time>
      </trkpt>
      <trkpt lat="47.58126" lon="4.70085">
        <ele>356.31</ele>
        <time>2016-05-08T10:48:20Z</time>
      </trkpt>
      <trkpt lat="47.58126" lon="4.70086">
        <ele>356.31</ele>
        <time>2016-05-08T10:48:47Z</time>
      </trkpt>
      <trkpt lat="47.58121" lon="4.70086">
        <ele>355.83</ele>
        <time>2016-05-08T10:48:59Z</time>
      </trkpt>
      <trkpt lat="47.58108" lon="4.70086">
        <ele>355.34</ele>
        <time>2016-05-08T10:49:11Z</time>
      </trkpt>
      <trkpt lat="47.58087" lon="4.70081">
        <ele>354.86</ele>
        <time>2016-05-08T10:49:23Z</time>
      </trkpt>
      <trkpt lat="47.58078" lon="4.70079">
        <ele>355.34</ele>
        <time>2016-05-08T10:49:32Z</time>
      </trkpt>
      <trkpt lat="47.5806" lon="4.70075">
        <ele>355.34</ele>
        <time>2016-05-08T10:49:45Z</time>
      </trkpt>
      <trkpt lat="47.58055" lon="4.70077">
        <ele>355.83</ele>
        <time>2016-05-08T10:49:52Z</time>
      </trkpt>
      <trkpt lat="47.5804" lon="4.70079">
        <ele>354.86</ele>
        <time>2016-05-08T10:50:05Z</time>
      </trkpt>
      <trkpt lat="47.58034" lon="4.70077">
        <ele>354.86</ele>
        <time>2016-05-08T10:50:11Z</time>
      </trkpt>
      <trkpt lat="47.58014" lon="4.70073">
        <ele>354.38</ele>
        <time>2016-05-08T10:50:25Z</time>
      </trkpt>
      <trkpt lat="47.58012" lon="4.70072">
        <ele>354.86</ele>
        <time>2016-05-08T10:50:36Z</time>
      </trkpt>
      <trkpt lat="47.57999" lon="4.70077">
        <ele>355.83</ele>
        <time>2016-05-08T10:50:50Z</time>
      </trkpt>
      <trkpt lat="47.57985" lon="4.70081">
        <ele>357.27</ele>
        <time>2016-05-08T10:51:04Z</time>
      </trkpt>
      <trkpt lat="47.57976" lon="4.70086">
        <ele>359.19</ele>
        <time>2016-05-08T10:51:18Z</time>
      </trkpt>
      <trkpt lat="47.57969" lon="4.7009">
        <ele>361.11</ele>
        <time>2016-05-08T10:51:31Z</time>
      </trkpt>
      <trkpt lat="47.57957" lon="4.70094">
        <ele>361.59</ele>
        <time>2016-05-08T10:51:46Z</time>
      </trkpt>
      <trkpt lat="47.57938" lon="4.70103">
        <ele>361.59</ele>
        <time>2016-05-08T10:52:00Z</time>
      </trkpt>
      <trkpt lat="47.57923" lon="4.70108">
        <ele>362.55</ele>
        <time>2016-05-08T10:52:13Z</time>
      </trkpt>
      <trkpt lat="47.57921" lon="4.70108">
        <ele>362.55</ele>
        <time>2016-05-08T10:52:14Z</time>
      </trkpt>
      <trkpt lat="47.57911" lon="4.70113">
        <ele>364</ele>
        <time>2016-05-08T10:52:27Z</time>
      </trkpt>
      <trkpt lat="47.57891" lon="4.70119">
        <ele>364.48</ele>
        <time>2016-05-08T10:52:43Z</time>
      </trkpt>
      <trkpt lat="47.57881" lon="4.70124">
        <ele>364.48</ele>
        <time>2016-05-08T10:52:55Z</time>
      </trkpt>
      <trkpt lat="47.57869" lon="4.70133">
        <ele>365.44</ele>
        <time>2016-05-08T10:53:10Z</time>
      </trkpt>
      <trkpt lat="47.57851" lon="4.70137">
        <ele>365.44</ele>
        <time>2016-05-08T10:53:23Z</time>
      </trkpt>
      <trkpt lat="47.57837" lon="4.70141">
        <ele>365.92</ele>
        <time>2016-05-08T10:53:37Z</time>
      </trkpt>
      <trkpt lat="47.57826" lon="4.70149">
        <ele>364.96</ele>
        <time>2016-05-08T10:53:52Z</time>
      </trkpt>
      <trkpt lat="47.5782" lon="4.70151">
        <ele>364.96</ele>
        <time>2016-05-08T10:53:56Z</time>
      </trkpt>
      <trkpt lat="47.57799" lon="4.70161">
        <ele>364.96</ele>
        <time>2016-05-08T10:54:11Z</time>
      </trkpt>
      <trkpt lat="47.57785" lon="4.70166">
        <ele>364.96</ele>
        <time>2016-05-08T10:54:24Z</time>
      </trkpt>
      <trkpt lat="47.57773" lon="4.7017">
        <ele>365.44</ele>
        <time>2016-05-08T10:54:36Z</time>
      </trkpt>
      <trkpt lat="47.57763" lon="4.70177">
        <ele>366.88</ele>
        <time>2016-05-08T10:54:47Z</time>
      </trkpt>
      <trkpt lat="47.57749" lon="4.7018">
        <ele>368.32</ele>
        <time>2016-05-08T10:55:02Z</time>
      </trkpt>
      <trkpt lat="47.57732" lon="4.70186">
        <ele>366.4</ele>
        <time>2016-05-08T10:55:18Z</time>
      </trkpt>
      <trkpt lat="47.57725" lon="4.70191">
        <ele>365.44</ele>
        <time>2016-05-08T10:55:31Z</time>
      </trkpt>
      <trkpt lat="47.57704" lon="4.70196">
        <ele>364</ele>
        <time>2016-05-08T10:55:46Z</time>
      </trkpt>
      <trkpt lat="47.57689" lon="4.70201">
        <ele>364</ele>
        <time>2016-05-08T10:55:58Z</time>
      </trkpt>
      <trkpt lat="47.57673" lon="4.70204">
        <ele>364.48</ele>
        <time>2016-05-08T10:56:10Z</time>
      </trkpt>
      <trkpt lat="47.57664" lon="4.70209">
        <ele>365.92</ele>
        <time>2016-05-08T10:56:25Z</time>
      </trkpt>
      <trkpt lat="47.57655" lon="4.70213">
        <ele>366.88</ele>
        <time>2016-05-08T10:56:37Z</time>
      </trkpt>
      <trkpt lat="47.57642" lon="4.70219">
        <ele>366.4</ele>
        <time>2016-05-08T10:56:53Z</time>
      </trkpt>
      <trkpt lat="47.57626" lon="4.70226">
        <ele>366.88</ele>
        <time>2016-05-08T10:57:07Z</time>
      </trkpt>
      <trkpt lat="47.57615" lon="4.70231">
        <ele>366.4</ele>
        <time>2016-05-08T10:57:22Z</time>
      </trkpt>
      <trkpt lat="47.57607" lon="4.70236">
        <ele>365.92</ele>
        <time>2016-05-08T10:57:36Z</time>
      </trkpt>
      <trkpt lat="47.57596" lon="4.70247">
        <ele>366.4</ele>
        <time>2016-05-08T10:57:50Z</time>
      </trkpt>
      <trkpt lat="47.57583" lon="4.70253">
        <ele>366.4</ele>
        <time>2016-05-08T10:58:03Z</time>
      </trkpt>
      <trkpt lat="47.5757" lon="4.70259">
        <ele>366.4</ele>
        <time>2016-05-08T10:58:18Z</time>
      </trkpt>
      <trkpt lat="47.57568" lon="4.7026">
        <ele>372.65</ele>
        <time>2016-05-08T10:58:19Z</time>
      </trkpt>
      <trkpt lat="47.57566" lon="4.7026">
        <ele>367.36</ele>
        <time>2016-05-08T10:58:20Z</time>
      </trkpt>
      <trkpt lat="47.57565" lon="4.7026">
        <ele>373.13</ele>
        <time>2016-05-08T10:58:21Z</time>
      </trkpt>
      <trkpt lat="47.57564" lon="4.70261">
        <ele>367.36</ele>
        <time>2016-05-08T10:58:22Z</time>
      </trkpt>
      <trkpt lat="47.57551" lon="4.70273">
        <ele>366.4</ele>
        <time>2016-05-08T10:58:38Z</time>
      </trkpt>
      <trkpt lat="47.57542" lon="4.7028">
        <ele>366.4</ele>
        <time>2016-05-08T10:58:51Z</time>
      </trkpt>
      <trkpt lat="47.57526" lon="4.70293">
        <ele>366.4</ele>
        <time>2016-05-08T10:59:05Z</time>
      </trkpt>
      <trkpt lat="47.57517" lon="4.70304">
        <ele>365.92</ele>
        <time>2016-05-08T10:59:18Z</time>
      </trkpt>
      <trkpt lat="47.57509" lon="4.70311">
        <ele>364.96</ele>
        <time>2016-05-08T10:59:30Z</time>
      </trkpt>
      <trkpt lat="47.57503" lon="4.70319">
        <ele>364.96</ele>
        <time>2016-05-08T10:59:45Z</time>
      </trkpt>
      <trkpt lat="47.5749" lon="4.70334">
        <ele>364.96</ele>
        <time>2016-05-08T10:59:58Z</time>
      </trkpt>
      <trkpt lat="47.57475" lon="4.7035">
        <ele>364.96</ele>
        <time>2016-05-08T11:00:13Z</time>
      </trkpt>
      <trkpt lat="47.57469" lon="4.70361">
        <ele>364.96</ele>
        <time>2016-05-08T11:00:26Z</time>
      </trkpt>
      <trkpt lat="47.57463" lon="4.70371">
        <ele>364</ele>
        <time>2016-05-08T11:00:39Z</time>
      </trkpt>
      <trkpt lat="47.57453" lon="4.70384">
        <ele>363.52</ele>
        <time>2016-05-08T11:00:53Z</time>
      </trkpt>
      <trkpt lat="47.57441" lon="4.70397">
        <ele>363.04</ele>
        <time>2016-05-08T11:01:08Z</time>
      </trkpt>
      <trkpt lat="47.57433" lon="4.70405">
        <ele>362.07</ele>
        <time>2016-05-08T11:01:18Z</time>
      </trkpt>
      <trkpt lat="47.57433" lon="4.70406">
        <ele>362.07</ele>
        <time>2016-05-08T11:01:19Z</time>
      </trkpt>
      <trkpt lat="47.5743" lon="4.70413">
        <ele>362.55</ele>
        <time>2016-05-08T11:01:33Z</time>
      </trkpt>
      <trkpt lat="47.57422" lon="4.70422">
        <ele>363.04</ele>
        <time>2016-05-08T11:01:45Z</time>
      </trkpt>
      <trkpt lat="47.57413" lon="4.70428">
        <ele>361.59</ele>
        <time>2016-05-08T11:01:57Z</time>
      </trkpt>
      <trkpt lat="47.57404" lon="4.70439">
        <ele>361.59</ele>
        <time>2016-05-08T11:02:10Z</time>
      </trkpt>
      <trkpt lat="47.57393" lon="4.70447">
        <ele>362.07</ele>
        <time>2016-05-08T11:02:20Z</time>
      </trkpt>
      <trkpt lat="47.57388" lon="4.70453">
        <ele>362.07</ele>
        <time>2016-05-08T11:02:25Z</time>
      </trkpt>
      <trkpt lat="47.57378" lon="4.70459">
        <ele>361.59</ele>
        <time>2016-05-08T11:02:39Z</time>
      </trkpt>
      <trkpt lat="47.57375" lon="4.70463">
        <ele>362.07</ele>
        <time>2016-05-08T11:02:52Z</time>
      </trkpt>
      <trkpt lat="47.57371" lon="4.70467">
        <ele>362.07</ele>
        <time>2016-05-08T11:03:04Z</time>
      </trkpt>
      <trkpt lat="47.57367" lon="4.7047">
        <ele>362.55</ele>
        <time>2016-05-08T11:03:18Z</time>
      </trkpt>
      <trkpt lat="47.57359" lon="4.70476">
        <ele>362.55</ele>
        <time>2016-05-08T11:03:34Z</time>
      </trkpt>
      <trkpt lat="47.57351" lon="4.70482">
        <ele>362.55</ele>
        <time>2016-05-08T11:03:45Z</time>
      </trkpt>
      <trkpt lat="47.57332" lon="4.70495">
        <ele>362.07</ele>
        <time>2016-05-08T11:03:59Z</time>
      </trkpt>
      <trkpt lat="47.57307" lon="4.70513">
        <ele>361.59</ele>
        <time>2016-05-08T11:04:12Z</time>
      </trkpt>
      <trkpt lat="47.57298" lon="4.70517">
        <ele>361.59</ele>
        <time>2016-05-08T11:04:26Z</time>
      </trkpt>
      <trkpt lat="47.57281" lon="4.70525">
        <ele>361.11</ele>
        <time>2016-05-08T11:04:40Z</time>
      </trkpt>
      <trkpt lat="47.57266" lon="4.70535">
        <ele>361.11</ele>
        <time>2016-05-08T11:04:50Z</time>
      </trkpt>
      <trkpt lat="47.57253" lon="4.70537">
        <ele>361.59</ele>
        <time>2016-05-08T11:05:05Z</time>
      </trkpt>
      <trkpt lat="47.5724" lon="4.70542">
        <ele>361.11</ele>
        <time>2016-05-08T11:05:17Z</time>
      </trkpt>
      <trkpt lat="47.57237" lon="4.70543">
        <ele>360.63</ele>
        <time>2016-05-08T11:05:19Z</time>
      </trkpt>
      <trkpt lat="47.5722" lon="4.7055">
        <ele>360.63</ele>
        <time>2016-05-08T11:05:32Z</time>
      </trkpt>
      <trkpt lat="47.57214" lon="4.70552">
        <ele>371.21</ele>
        <time>2016-05-08T11:05:36Z</time>
      </trkpt>
      <trkpt lat="47.57213" lon="4.70553">
        <ele>364.96</ele>
        <time>2016-05-08T11:05:37Z</time>
      </trkpt>
      <trkpt lat="47.57211" lon="4.70553">
        <ele>348.62</ele>
        <time>2016-05-08T11:05:38Z</time>
      </trkpt>
      <trkpt lat="47.5721" lon="4.70553">
        <ele>364</ele>
        <time>2016-05-08T11:05:39Z</time>
      </trkpt>
      <trkpt lat="47.57209" lon="4.70554">
        <ele>354.38</ele>
        <time>2016-05-08T11:05:40Z</time>
      </trkpt>
      <trkpt lat="47.57208" lon="4.70555">
        <ele>361.11</ele>
        <time>2016-05-08T11:05:41Z</time>
      </trkpt>
      <trkpt lat="47.57204" lon="4.70556">
        <ele>358.23</ele>
        <time>2016-05-08T11:05:45Z</time>
      </trkpt>
      <trkpt lat="47.57192" lon="4.70564">
        <ele>359.19</ele>
        <time>2016-05-08T11:05:59Z</time>
      </trkpt>
      <trkpt lat="47.57177" lon="4.70574">
        <ele>359.19</ele>
        <time>2016-05-08T11:06:14Z</time>
      </trkpt>
      <trkpt lat="47.57164" lon="4.70581">
        <ele>359.19</ele>
        <time>2016-05-08T11:06:30Z</time>
      </trkpt>
      <trkpt lat="47.5715" lon="4.70592">
        <ele>359.67</ele>
        <time>2016-05-08T11:06:44Z</time>
      </trkpt>
      <trkpt lat="47.57134" lon="4.70605">
        <ele>359.67</ele>
        <time>2016-05-08T11:06:58Z</time>
      </trkpt>
      <trkpt lat="47.57118" lon="4.70614">
        <ele>359.19</ele>
        <time>2016-05-08T11:07:13Z</time>
      </trkpt>
      <trkpt lat="47.57107" lon="4.7062">
        <ele>358.23</ele>
        <time>2016-05-08T11:07:27Z</time>
      </trkpt>
      <trkpt lat="47.57092" lon="4.70629">
        <ele>357.27</ele>
        <time>2016-05-08T11:07:41Z</time>
      </trkpt>
      <trkpt lat="47.5708" lon="4.70641">
        <ele>357.27</ele>
        <time>2016-05-08T11:07:54Z</time>
      </trkpt>
      <trkpt lat="47.57073" lon="4.70652">
        <ele>356.79</ele>
        <time>2016-05-08T11:08:10Z</time>
      </trkpt>
      <trkpt lat="47.57068" lon="4.70658">
        <ele>356.79</ele>
        <time>2016-05-08T11:08:25Z</time>
      </trkpt>
      <trkpt lat="47.57067" lon="4.70658">
        <ele>356.31</ele>
        <time>2016-05-08T11:08:31Z</time>
      </trkpt>
      <trkpt lat="47.57067" lon="4.70651">
        <ele>355.34</ele>
        <time>2016-05-08T11:08:38Z</time>
      </trkpt>
      <trkpt lat="47.5706" lon="4.70633">
        <ele>353.9</ele>
        <time>2016-05-08T11:08:52Z</time>
      </trkpt>
      <trkpt lat="47.57054" lon="4.70626">
        <ele>353.42</ele>
        <time>2016-05-08T11:09:06Z</time>
      </trkpt>
      <trkpt lat="47.57052" lon="4.70624">
        <ele>353.9</ele>
        <time>2016-05-08T11:09:22Z</time>
      </trkpt>
      <trkpt lat="47.57053" lon="4.70623">
        <ele>353.42</ele>
        <time>2016-05-08T11:09:39Z</time>
      </trkpt>
      <trkpt lat="47.57053" lon="4.70625">
        <ele>353.42</ele>
        <time>2016-05-08T11:09:59Z</time>
      </trkpt>
      <trkpt lat="47.5705" lon="4.70628">
        <ele>352.94</ele>
        <time>2016-05-08T11:10:04Z</time>
      </trkpt>
      <trkpt lat="47.57047" lon="4.7063">
        <ele>352.94</ele>
        <time>2016-05-08T11:10:10Z</time>
      </trkpt>
      <trkpt lat="47.57027" lon="4.70637">
        <ele>351.98</ele>
        <time>2016-05-08T11:10:26Z</time>
      </trkpt>
      <trkpt lat="47.57016" lon="4.70639">
        <ele>351.98</ele>
        <time>2016-05-08T11:10:37Z</time>
      </trkpt>
      <trkpt lat="47.57006" lon="4.70641">
        <ele>351.02</ele>
        <time>2016-05-08T11:10:50Z</time>
      </trkpt>
      <trkpt lat="47.57005" lon="4.70641">
        <ele>351.02</ele>
        <time>2016-05-08T11:10:51Z</time>
      </trkpt>
      <trkpt lat="47.57001" lon="4.70645">
        <ele>351.5</ele>
        <time>2016-05-08T11:10:57Z</time>
      </trkpt>
      <trkpt lat="47.56996" lon="4.70657">
        <ele>351.02</ele>
        <time>2016-05-08T11:11:11Z</time>
      </trkpt>
      <trkpt lat="47.56997" lon="4.70656">
        <ele>351.5</ele>
        <time>2016-05-08T11:11:16Z</time>
      </trkpt>
      <trkpt lat="47.57" lon="4.70652">
        <ele>351.5</ele>
        <time>2016-05-08T11:11:22Z</time>
      </trkpt>
      <trkpt lat="47.57004" lon="4.70649">
        <ele>351.5</ele>
        <time>2016-05-08T11:11:29Z</time>
      </trkpt>
      <trkpt lat="47.5701" lon="4.70644">
        <ele>351.98</ele>
        <time>2016-05-08T11:11:35Z</time>
      </trkpt>
      <trkpt lat="47.57029" lon="4.70637">
        <ele>351.98</ele>
        <time>2016-05-08T11:11:49Z</time>
      </trkpt>
      <trkpt lat="47.57047" lon="4.7063">
        <ele>352.94</ele>
        <time>2016-05-08T11:12:04Z</time>
      </trkpt>
      <trkpt lat="47.57062" lon="4.7063">
        <ele>353.9</ele>
        <time>2016-05-08T11:12:18Z</time>
      </trkpt>
      <trkpt lat="47.57062" lon="4.7063">
        <ele>340.92</ele>
        <time>2016-05-08T11:12:19Z</time>
      </trkpt>
      <trkpt lat="47.57061" lon="4.7063">
        <ele>356.31</ele>
        <time>2016-05-08T11:12:20Z</time>
      </trkpt>
      <trkpt lat="47.57061" lon="4.70631">
        <ele>351.98</ele>
        <time>2016-05-08T11:12:21Z</time>
      </trkpt>
      <trkpt lat="47.57062" lon="4.70631">
        <ele>355.34</ele>
        <time>2016-05-08T11:12:22Z</time>
      </trkpt>
      <trkpt lat="47.57065" lon="4.70633">
        <ele>354.38</ele>
        <time>2016-05-08T11:12:40Z</time>
      </trkpt>
      <trkpt lat="47.57065" lon="4.70638">
        <ele>354.86</ele>
        <time>2016-05-08T11:12:53Z</time>
      </trkpt>
      <trkpt lat="47.57067" lon="4.70645">
        <ele>358.71</ele>
        <time>2016-05-08T11:13:02Z</time>
      </trkpt>
      <trkpt lat="47.57068" lon="4.70647">
        <ele>355.34</ele>
        <time>2016-05-08T11:13:05Z</time>
      </trkpt>
      <trkpt lat="47.57068" lon="4.70647">
        <ele>355.34</ele>
        <time>2016-05-08T11:13:09Z</time>
      </trkpt>
      <trkpt lat="47.5701" lon="4.70642">
        <ele>353.42</ele>
        <time>2016-05-08T11:47:57Z</time>
      </trkpt>
      <trkpt lat="47.57008" lon="4.70641">
        <ele>353.42</ele>
        <time>2016-05-08T11:47:58Z</time>
      </trkpt>
      <trkpt lat="47.57014" lon="4.70641">
        <ele>356.31</ele>
        <time>2016-05-08T11:48:23Z</time>
      </trkpt>
      <trkpt lat="47.57012" lon="4.70641">
        <ele>353.9</ele>
        <time>2016-05-08T11:48:28Z</time>
      </trkpt>
      <trkpt lat="47.57007" lon="4.7064">
        <ele>359.19</ele>
        <time>2016-05-08T11:48:38Z</time>
      </trkpt>
      <trkpt lat="47.57007" lon="4.7064">
        <ele>357.75</ele>
        <time>2016-05-08T11:48:39Z</time>
      </trkpt>
      <trkpt lat="47.57007" lon="4.7064">
        <ele>354.38</ele>
        <time>2016-05-08T11:48:40Z</time>
      </trkpt>
      <trkpt lat="47.57007" lon="4.7064">
        <ele>354.38</ele>
        <time>2016-05-08T11:48:41Z</time>
      </trkpt>
      <trkpt lat="47.57007" lon="4.70641">
        <ele>353.42</ele>
        <time>2016-05-08T11:48:53Z</time>
      </trkpt>
      <trkpt lat="47.57007" lon="4.70643">
        <ele>353.42</ele>
        <time>2016-05-08T11:49:06Z</time>
      </trkpt>
      <trkpt lat="47.57008" lon="4.70644">
        <ele>353.42</ele>
        <time>2016-05-08T11:49:21Z</time>
      </trkpt>
      <trkpt lat="47.57002" lon="4.70632">
        <ele>353.42</ele>
        <time>2016-05-08T11:49:42Z</time>
      </trkpt>
      <trkpt lat="47.57006" lon="4.70635">
        <ele>353.42</ele>
        <time>2016-05-08T11:50:08Z</time>
      </trkpt>
      <trkpt lat="47.57008" lon="4.70637">
        <ele>353.9</ele>
        <time>2016-05-08T11:50:37Z</time>
      </trkpt>
      <trkpt lat="47.57007" lon="4.70639">
        <ele>353.9</ele>
        <time>2016-05-08T11:50:59Z</time>
      </trkpt>
      <trkpt lat="47.57008" lon="4.70639">
        <ele>353.9</ele>
        <time>2016-05-08T11:51:17Z</time>
      </trkpt>
      <trkpt lat="47.57008" lon="4.70639">
        <ele>353.9</ele>
        <time>2016-05-08T11:51:35Z</time>
      </trkpt>
      <trkpt lat="47.57008" lon="4.70639">
        <ele>353.42</ele>
        <time>2016-05-08T11:51:56Z</time>
      </trkpt>
      <trkpt lat="47.57008" lon="4.7064">
        <ele>353.9</ele>
        <time>2016-05-08T11:52:15Z</time>
      </trkpt>
      <trkpt lat="47.57008" lon="4.7064">
        <ele>353.9</ele>
        <time>2016-05-08T11:52:30Z</time>
      </trkpt>
      <trkpt lat="47.57008" lon="4.70641">
        <ele>354.38</ele>
        <time>2016-05-08T11:52:45Z</time>
      </trkpt>
      <trkpt lat="47.57008" lon="4.70641">
        <ele>354.38</ele>
        <time>2016-05-08T11:53:03Z</time>
      </trkpt>
      <trkpt lat="47.57009" lon="4.70639">
        <ele>354.38</ele>
        <time>2016-05-08T11:53:18Z</time>
      </trkpt>
      <trkpt lat="47.57009" lon="4.70637">
        <ele>354.38</ele>
        <time>2016-05-08T11:53:34Z</time>
      </trkpt>
      <trkpt lat="47.57009" lon="4.70637">
        <ele>354.38</ele>
        <time>2016-05-08T11:53:50Z</time>
      </trkpt>
      <trkpt lat="47.57009" lon="4.70637">
        <ele>354.38</ele>
        <time>2016-05-08T11:54:11Z</time>
      </trkpt>
      <trkpt lat="47.57021" lon="4.70636">
        <ele>354.38</ele>
        <time>2016-05-08T11:54:26Z</time>
      </trkpt>
      <trkpt lat="47.57032" lon="4.70634">
        <ele>355.34</ele>
        <time>2016-05-08T11:54:39Z</time>
      </trkpt>
      <trkpt lat="47.57044" lon="4.70631">
        <ele>355.83</ele>
        <time>2016-05-08T11:54:57Z</time>
      </trkpt>
      <trkpt lat="47.57052" lon="4.70627">
        <ele>355.83</ele>
        <time>2016-05-08T11:55:12Z</time>
      </trkpt>
      <trkpt lat="47.57058" lon="4.70627">
        <ele>356.79</ele>
        <time>2016-05-08T11:55:29Z</time>
      </trkpt>
      <trkpt lat="47.57058" lon="4.70629">
        <ele>356.79</ele>
        <time>2016-05-08T11:55:46Z</time>
      </trkpt>
      <trkpt lat="47.5706" lon="4.70637">
        <ele>357.75</ele>
        <time>2016-05-08T11:55:59Z</time>
      </trkpt>
      <trkpt lat="47.57066" lon="4.70654">
        <ele>359.19</ele>
        <time>2016-05-08T11:56:16Z</time>
      </trkpt>
      <trkpt lat="47.5707" lon="4.70678">
        <ele>360.15</ele>
        <time>2016-05-08T11:56:34Z</time>
      </trkpt>
      <trkpt lat="47.57073" lon="4.70698">
        <ele>361.11</ele>
        <time>2016-05-08T11:56:49Z</time>
      </trkpt>
      <trkpt lat="47.57073" lon="4.70717">
        <ele>362.07</ele>
        <time>2016-05-08T11:57:04Z</time>
      </trkpt>
      <trkpt lat="47.57072" lon="4.70718">
        <ele>362.07</ele>
        <time>2016-05-08T11:57:05Z</time>
      </trkpt>
      <trkpt lat="47.57059" lon="4.70735">
        <ele>362.07</ele>
        <time>2016-05-08T11:57:21Z</time>
      </trkpt>
      <trkpt lat="47.57045" lon="4.70742">
        <ele>362.07</ele>
        <time>2016-05-08T11:57:37Z</time>
      </trkpt>
      <trkpt lat="47.5704" lon="4.70746">
        <ele>362.07</ele>
        <time>2016-05-08T11:57:44Z</time>
      </trkpt>
      <trkpt lat="47.57032" lon="4.70745">
        <ele>361.59</ele>
        <time>2016-05-08T11:57:58Z</time>
      </trkpt>
      <trkpt lat="47.57031" lon="4.70745">
        <ele>362.07</ele>
        <time>2016-05-08T11:58:01Z</time>
      </trkpt>
      <trkpt lat="47.57016" lon="4.70757">
        <ele>361.59</ele>
        <time>2016-05-08T11:58:16Z</time>
      </trkpt>
      <trkpt lat="47.57011" lon="4.70762">
        <ele>361.59</ele>
        <time>2016-05-08T11:58:33Z</time>
      </trkpt>
      <trkpt lat="47.5701" lon="4.70762">
        <ele>361.59</ele>
        <time>2016-05-08T11:58:56Z</time>
      </trkpt>
      <trkpt lat="47.57009" lon="4.70765">
        <ele>361.11</ele>
        <time>2016-05-08T11:59:12Z</time>
      </trkpt>
      <trkpt lat="47.57004" lon="4.70772">
        <ele>360.63</ele>
        <time>2016-05-08T11:59:26Z</time>
      </trkpt>
      <trkpt lat="47.57001" lon="4.70777">
        <ele>360.15</ele>
        <time>2016-05-08T11:59:42Z</time>
      </trkpt>
      <trkpt lat="47.56994" lon="4.70789">
        <ele>359.19</ele>
        <time>2016-05-08T11:59:59Z</time>
      </trkpt>
      <trkpt lat="47.56983" lon="4.70809">
        <ele>358.71</ele>
        <time>2016-05-08T12:00:18Z</time>
      </trkpt>
      <trkpt lat="47.56979" lon="4.70811">
        <ele>358.23</ele>
        <time>2016-05-08T12:00:37Z</time>
      </trkpt>
      <trkpt lat="47.56978" lon="4.70808">
        <ele>358.23</ele>
        <time>2016-05-08T12:00:39Z</time>
      </trkpt>
      <trkpt lat="47.56971" lon="4.70787">
        <ele>356.79</ele>
        <time>2016-05-08T12:00:53Z</time>
      </trkpt>
      <trkpt lat="47.56966" lon="4.70771">
        <ele>355.83</ele>
        <time>2016-05-08T12:01:07Z</time>
      </trkpt>
      <trkpt lat="47.56964" lon="4.70761">
        <ele>354.86</ele>
        <time>2016-05-08T12:01:21Z</time>
      </trkpt>
      <trkpt lat="47.56964" lon="4.7076">
        <ele>355.34</ele>
        <time>2016-05-08T12:01:42Z</time>
      </trkpt>
      <trkpt lat="47.56962" lon="4.70761">
        <ele>355.34</ele>
        <time>2016-05-08T12:01:56Z</time>
      </trkpt>
      <trkpt lat="47.56964" lon="4.70762">
        <ele>355.34</ele>
        <time>2016-05-08T12:02:17Z</time>
      </trkpt>
      <trkpt lat="47.56967" lon="4.70778">
        <ele>355.83</ele>
        <time>2016-05-08T12:02:32Z</time>
      </trkpt>
      <trkpt lat="47.56973" lon="4.70798">
        <ele>357.27</ele>
        <time>2016-05-08T12:02:46Z</time>
      </trkpt>
      <trkpt lat="47.56976" lon="4.70818">
        <ele>358.23</ele>
        <time>2016-05-08T12:03:04Z</time>
      </trkpt>
      <trkpt lat="47.56971" lon="4.70842">
        <ele>358.23</ele>
        <time>2016-05-08T12:03:22Z</time>
      </trkpt>
      <trkpt lat="47.56958" lon="4.70856">
        <ele>357.75</ele>
        <time>2016-05-08T12:03:36Z</time>
      </trkpt>
      <trkpt lat="47.56949" lon="4.70852">
        <ele>357.75</ele>
        <time>2016-05-08T12:03:50Z</time>
      </trkpt>
      <trkpt lat="47.5694" lon="4.70847">
        <ele>357.75</ele>
        <time>2016-05-08T12:03:59Z</time>
      </trkpt>
      <trkpt lat="47.56925" lon="4.70849">
        <ele>357.27</ele>
        <time>2016-05-08T12:04:16Z</time>
      </trkpt>
      <trkpt lat="47.56922" lon="4.7085">
        <ele>357.27</ele>
        <time>2016-05-08T12:04:28Z</time>
      </trkpt>
      <trkpt lat="47.56916" lon="4.70849">
        <ele>357.27</ele>
        <time>2016-05-08T12:04:48Z</time>
      </trkpt>
      <trkpt lat="47.56903" lon="4.70847">
        <ele>357.75</ele>
        <time>2016-05-08T12:05:04Z</time>
      </trkpt>
      <trkpt lat="47.56896" lon="4.70839">
        <ele>357.75</ele>
        <time>2016-05-08T12:05:17Z</time>
      </trkpt>
      <trkpt lat="47.56896" lon="4.70847">
        <ele>357.75</ele>
        <time>2016-05-08T12:05:35Z</time>
      </trkpt>
      <trkpt lat="47.56892" lon="4.70868">
        <ele>357.75</ele>
        <time>2016-05-08T12:05:48Z</time>
      </trkpt>
      <trkpt lat="47.56887" lon="4.70891">
        <ele>358.23</ele>
        <time>2016-05-08T12:06:03Z</time>
      </trkpt>
      <trkpt lat="47.56886" lon="4.70899">
        <ele>357.75</ele>
        <time>2016-05-08T12:06:11Z</time>
      </trkpt>
      <trkpt lat="47.56879" lon="4.70922">
        <ele>358.23</ele>
        <time>2016-05-08T12:06:25Z</time>
      </trkpt>
      <trkpt lat="47.56874" lon="4.70942">
        <ele>357.75</ele>
        <time>2016-05-08T12:06:38Z</time>
      </trkpt>
      <trkpt lat="47.56869" lon="4.70961">
        <ele>357.75</ele>
        <time>2016-05-08T12:06:50Z</time>
      </trkpt>
      <trkpt lat="47.56864" lon="4.70975">
        <ele>357.75</ele>
        <time>2016-05-08T12:07:06Z</time>
      </trkpt>
      <trkpt lat="47.56858" lon="4.70989">
        <ele>358.23</ele>
        <time>2016-05-08T12:07:20Z</time>
      </trkpt>
      <trkpt lat="47.56854" lon="4.70998">
        <ele>358.23</ele>
        <time>2016-05-08T12:07:34Z</time>
      </trkpt>
      <trkpt lat="47.56851" lon="4.71002">
        <ele>358.23</ele>
        <time>2016-05-08T12:07:51Z</time>
      </trkpt>
      <trkpt lat="47.56837" lon="4.71023">
        <ele>358.71</ele>
        <time>2016-05-08T12:08:08Z</time>
      </trkpt>
      <trkpt lat="47.56828" lon="4.71033">
        <ele>365.44</ele>
        <time>2016-05-08T12:08:16Z</time>
      </trkpt>
      <trkpt lat="47.56827" lon="4.71035">
        <ele>359.19</ele>
        <time>2016-05-08T12:08:17Z</time>
      </trkpt>
      <trkpt lat="47.56826" lon="4.71037">
        <ele>358.71</ele>
        <time>2016-05-08T12:08:18Z</time>
      </trkpt>
      <trkpt lat="47.56811" lon="4.71051">
        <ele>358.23</ele>
        <time>2016-05-08T12:08:30Z</time>
      </trkpt>
      <trkpt lat="47.56797" lon="4.71059">
        <ele>359.67</ele>
        <time>2016-05-08T12:08:45Z</time>
      </trkpt>
      <trkpt lat="47.56793" lon="4.71053">
        <ele>362.07</ele>
        <time>2016-05-08T12:08:59Z</time>
      </trkpt>
      <trkpt lat="47.56793" lon="4.71053">
        <ele>356.79</ele>
        <time>2016-05-08T12:09:00Z</time>
      </trkpt>
      <trkpt lat="47.56794" lon="4.71052">
        <ele>362.07</ele>
        <time>2016-05-08T12:09:01Z</time>
      </trkpt>
      <trkpt lat="47.56801" lon="4.7104">
        <ele>358.23</ele>
        <time>2016-05-08T12:09:17Z</time>
      </trkpt>
      <trkpt lat="47.56802" lon="4.71039">
        <ele>360.15</ele>
        <time>2016-05-08T12:09:18Z</time>
      </trkpt>
      <trkpt lat="47.56804" lon="4.71037">
        <ele>362.55</ele>
        <time>2016-05-08T12:09:21Z</time>
      </trkpt>
      <trkpt lat="47.5681" lon="4.7103">
        <ele>364</ele>
        <time>2016-05-08T12:09:36Z</time>
      </trkpt>
      <trkpt lat="47.56816" lon="4.71017">
        <ele>365.44</ele>
        <time>2016-05-08T12:09:52Z</time>
      </trkpt>
      <trkpt lat="47.56823" lon="4.71005">
        <ele>362.07</ele>
        <time>2016-05-08T12:10:02Z</time>
      </trkpt>
      <trkpt lat="47.56823" lon="4.71004">
        <ele>367.84</ele>
        <time>2016-05-08T12:10:03Z</time>
      </trkpt>
      <trkpt lat="47.5683" lon="4.70987">
        <ele>367.36</ele>
        <time>2016-05-08T12:10:18Z</time>
      </trkpt>
      <trkpt lat="47.56835" lon="4.70967">
        <ele>369.76</ele>
        <time>2016-05-08T12:10:34Z</time>
      </trkpt>
      <trkpt lat="47.5684" lon="4.70951">
        <ele>370.73</ele>
        <time>2016-05-08T12:10:48Z</time>
      </trkpt>
      <trkpt lat="47.5684" lon="4.70934">
        <ele>371.69</ele>
        <time>2016-05-08T12:11:00Z</time>
      </trkpt>
      <trkpt lat="47.56842" lon="4.70914">
        <ele>372.17</ele>
        <time>2016-05-08T12:11:15Z</time>
      </trkpt>
      <trkpt lat="47.56841" lon="4.70892">
        <ele>373.13</ele>
        <time>2016-05-08T12:11:31Z</time>
      </trkpt>
      <trkpt lat="47.56839" lon="4.70874">
        <ele>374.09</ele>
        <time>2016-05-08T12:11:45Z</time>
      </trkpt>
      <trkpt lat="47.56837" lon="4.70867">
        <ele>374.09</ele>
        <time>2016-05-08T12:11:51Z</time>
      </trkpt>
      <trkpt lat="47.56835" lon="4.7085">
        <ele>374.57</ele>
        <time>2016-05-08T12:12:05Z</time>
      </trkpt>
      <trkpt lat="47.56829" lon="4.70833">
        <ele>375.53</ele>
        <time>2016-05-08T12:12:18Z</time>
      </trkpt>
      <trkpt lat="47.56827" lon="4.7081">
        <ele>376.01</ele>
        <time>2016-05-08T12:12:34Z</time>
      </trkpt>
      <trkpt lat="47.56826" lon="4.7079">
        <ele>376.49</ele>
        <time>2016-05-08T12:12:49Z</time>
      </trkpt>
      <trkpt lat="47.56826" lon="4.70769">
        <ele>377.45</ele>
        <time>2016-05-08T12:13:03Z</time>
      </trkpt>
      <trkpt lat="47.56825" lon="4.70745">
        <ele>377.94</ele>
        <time>2016-05-08T12:13:17Z</time>
      </trkpt>
      <trkpt lat="47.56825" lon="4.70726">
        <ele>378.9</ele>
        <time>2016-05-08T12:13:31Z</time>
      </trkpt>
      <trkpt lat="47.56825" lon="4.70701">
        <ele>379.38</ele>
        <time>2016-05-08T12:13:47Z</time>
      </trkpt>
      <trkpt lat="47.56825" lon="4.7067">
        <ele>380.34</ele>
        <time>2016-05-08T12:14:06Z</time>
      </trkpt>
      <trkpt lat="47.56825" lon="4.70652">
        <ele>381.3</ele>
        <time>2016-05-08T12:14:19Z</time>
      </trkpt>
      <trkpt lat="47.56826" lon="4.70631">
        <ele>381.78</ele>
        <time>2016-05-08T12:14:36Z</time>
      </trkpt>
      <trkpt lat="47.56824" lon="4.70604">
        <ele>382.26</ele>
        <time>2016-05-08T12:14:51Z</time>
      </trkpt>
      <trkpt lat="47.56825" lon="4.70584">
        <ele>383.7</ele>
        <time>2016-05-08T12:15:04Z</time>
      </trkpt>
      <trkpt lat="47.56825" lon="4.70582">
        <ele>384.18</ele>
        <time>2016-05-08T12:15:05Z</time>
      </trkpt>
      <trkpt lat="47.56832" lon="4.70577">
        <ele>384.66</ele>
        <time>2016-05-08T12:15:18Z</time>
      </trkpt>
      <trkpt lat="47.56839" lon="4.70575">
        <ele>383.7</ele>
        <time>2016-05-08T12:15:31Z</time>
      </trkpt>
      <trkpt lat="47.56846" lon="4.70572">
        <ele>383.22</ele>
        <time>2016-05-08T12:15:39Z</time>
      </trkpt>
      <trkpt lat="47.56854" lon="4.7056">
        <ele>383.22</ele>
        <time>2016-05-08T12:15:52Z</time>
      </trkpt>
      <trkpt lat="47.56857" lon="4.70562">
        <ele>382.74</ele>
        <time>2016-05-08T12:16:05Z</time>
      </trkpt>
      <trkpt lat="47.56857" lon="4.70562">
        <ele>382.74</ele>
        <time>2016-05-08T12:16:30Z</time>
      </trkpt>
      <trkpt lat="47.56858" lon="4.70562">
        <ele>383.22</ele>
        <time>2016-05-08T12:16:55Z</time>
      </trkpt>
      <trkpt lat="47.56858" lon="4.70553">
        <ele>383.22</ele>
        <time>2016-05-08T12:17:05Z</time>
      </trkpt>
      <trkpt lat="47.56858" lon="4.7055">
        <ele>383.22</ele>
        <time>2016-05-08T12:17:07Z</time>
      </trkpt>
      <trkpt lat="47.56866" lon="4.7053">
        <ele>383.22</ele>
        <time>2016-05-08T12:17:21Z</time>
      </trkpt>
      <trkpt lat="47.56874" lon="4.70515">
        <ele>383.22</ele>
        <time>2016-05-08T12:17:34Z</time>
      </trkpt>
      <trkpt lat="47.56881" lon="4.705">
        <ele>383.7</ele>
        <time>2016-05-08T12:17:47Z</time>
      </trkpt>
      <trkpt lat="47.56888" lon="4.70483">
        <ele>383.7</ele>
        <time>2016-05-08T12:18:00Z</time>
      </trkpt>
      <trkpt lat="47.56892" lon="4.7047">
        <ele>383.7</ele>
        <time>2016-05-08T12:18:11Z</time>
      </trkpt>
      <trkpt lat="47.56897" lon="4.70469">
        <ele>383.7</ele>
        <time>2016-05-08T12:18:24Z</time>
      </trkpt>
      <trkpt lat="47.56897" lon="4.70455">
        <ele>384.66</ele>
        <time>2016-05-08T12:18:35Z</time>
      </trkpt>
      <trkpt lat="47.56899" lon="4.70442">
        <ele>385.15</ele>
        <time>2016-05-08T12:18:46Z</time>
      </trkpt>
      <trkpt lat="47.56899" lon="4.70428">
        <ele>386.11</ele>
        <time>2016-05-08T12:18:58Z</time>
      </trkpt>
      <trkpt lat="47.56903" lon="4.70416">
        <ele>386.59</ele>
        <time>2016-05-08T12:19:07Z</time>
      </trkpt>
      <trkpt lat="47.56906" lon="4.70405">
        <ele>387.55</ele>
        <time>2016-05-08T12:19:17Z</time>
      </trkpt>
      <trkpt lat="47.56914" lon="4.70391">
        <ele>387.55</ele>
        <time>2016-05-08T12:19:30Z</time>
      </trkpt>
      <trkpt lat="47.56921" lon="4.70374">
        <ele>388.03</ele>
        <time>2016-05-08T12:19:43Z</time>
      </trkpt>
      <trkpt lat="47.56926" lon="4.70362">
        <ele>388.03</ele>
        <time>2016-05-08T12:19:54Z</time>
      </trkpt>
      <trkpt lat="47.56927" lon="4.70361">
        <ele>387.55</ele>
        <time>2016-05-08T12:20:09Z</time>
      </trkpt>
      <trkpt lat="47.5693" lon="4.70364">
        <ele>386.11</ele>
        <time>2016-05-08T12:20:23Z</time>
      </trkpt>
      <trkpt lat="47.56934" lon="4.70365">
        <ele>385.15</ele>
        <time>2016-05-08T12:20:37Z</time>
      </trkpt>
      <trkpt lat="47.5694" lon="4.70369">
        <ele>383.22</ele>
        <time>2016-05-08T12:20:55Z</time>
      </trkpt>
      <trkpt lat="47.56942" lon="4.70373">
        <ele>381.3</ele>
        <time>2016-05-08T12:21:13Z</time>
      </trkpt>
      <trkpt lat="47.56944" lon="4.70376">
        <ele>377.94</ele>
        <time>2016-05-08T12:21:28Z</time>
      </trkpt>
      <trkpt lat="47.56953" lon="4.7039">
        <ele>374.57</ele>
        <time>2016-05-08T12:21:37Z</time>
      </trkpt>
      <trkpt lat="47.56956" lon="4.70397">
        <ele>371.69</ele>
        <time>2016-05-08T12:21:52Z</time>
      </trkpt>
      <trkpt lat="47.56959" lon="4.70402">
        <ele>367.84</ele>
        <time>2016-05-08T12:22:04Z</time>
      </trkpt>
      <trkpt lat="47.56968" lon="4.70414">
        <ele>365.44</ele>
        <time>2016-05-08T12:22:17Z</time>
      </trkpt>
      <trkpt lat="47.56974" lon="4.7042">
        <ele>363.52</ele>
        <time>2016-05-08T12:22:29Z</time>
      </trkpt>
      <trkpt lat="47.56979" lon="4.70429">
        <ele>362.07</ele>
        <time>2016-05-08T12:22:42Z</time>
      </trkpt>
      <trkpt lat="47.56984" lon="4.70437">
        <ele>359.67</ele>
        <time>2016-05-08T12:22:49Z</time>
      </trkpt>
      <trkpt lat="47.56995" lon="4.70448">
        <ele>357.27</ele>
        <time>2016-05-08T12:23:04Z</time>
      </trkpt>
      <trkpt lat="47.57015" lon="4.70456">
        <ele>354.86</ele>
        <time>2016-05-08T12:23:19Z</time>
      </trkpt>
      <trkpt lat="47.5702" lon="4.70467">
        <ele>353.9</ele>
        <time>2016-05-08T12:23:35Z</time>
      </trkpt>
      <trkpt lat="47.57025" lon="4.70477">
        <ele>351.98</ele>
        <time>2016-05-08T12:23:48Z</time>
      </trkpt>
      <trkpt lat="47.57028" lon="4.70483">
        <ele>351.5</ele>
        <time>2016-05-08T12:24:02Z</time>
      </trkpt>
      <trkpt lat="47.57017" lon="4.70482">
        <ele>353.9</ele>
        <time>2016-05-08T12:24:21Z</time>
      </trkpt>
      <trkpt lat="47.57011" lon="4.70469">
        <ele>355.34</ele>
        <time>2016-05-08T12:24:36Z</time>
      </trkpt>
      <trkpt lat="47.57006" lon="4.70459">
        <ele>357.27</ele>
        <time>2016-05-08T12:24:50Z</time>
      </trkpt>
      <trkpt lat="47.56996" lon="4.70451">
        <ele>359.67</ele>
        <time>2016-05-08T12:25:06Z</time>
      </trkpt>
      <trkpt lat="47.56992" lon="4.70447">
        <ele>362.07</ele>
        <time>2016-05-08T12:25:26Z</time>
      </trkpt>
      <trkpt lat="47.56986" lon="4.70441">
        <ele>361.59</ele>
        <time>2016-05-08T12:25:53Z</time>
      </trkpt>
      <trkpt lat="47.56983" lon="4.70433">
        <ele>362.07</ele>
        <time>2016-05-08T12:26:21Z</time>
      </trkpt>
      <trkpt lat="47.56981" lon="4.70431">
        <ele>361.59</ele>
        <time>2016-05-08T12:26:51Z</time>
      </trkpt>
      <trkpt lat="47.56981" lon="4.70429">
        <ele>362.07</ele>
        <time>2016-05-08T12:27:19Z</time>
      </trkpt>
      <trkpt lat="47.5698" lon="4.70427">
        <ele>361.59</ele>
        <time>2016-05-08T12:27:56Z</time>
      </trkpt>
      <trkpt lat="47.5698" lon="4.70428">
        <ele>362.07</ele>
        <time>2016-05-08T12:28:24Z</time>
      </trkpt>
      <trkpt lat="47.5698" lon="4.70426">
        <ele>362.07</ele>
        <time>2016-05-08T12:28:55Z</time>
      </trkpt>
      <trkpt lat="47.5698" lon="4.70425">
        <ele>362.55</ele>
        <time>2016-05-08T12:29:26Z</time>
      </trkpt>
      <trkpt lat="47.56979" lon="4.70424">
        <ele>364.96</ele>
        <time>2016-05-08T12:29:43Z</time>
      </trkpt>
      <trkpt lat="47.56979" lon="4.7042">
        <ele>365.44</ele>
        <time>2016-05-08T12:30:02Z</time>
      </trkpt>
      <trkpt lat="47.56977" lon="4.70414">
        <ele>365.92</ele>
        <time>2016-05-08T12:30:30Z</time>
      </trkpt>
      <trkpt lat="47.56975" lon="4.70411">
        <ele>369.28</ele>
        <time>2016-05-08T12:30:42Z</time>
      </trkpt>
      <trkpt lat="47.56971" lon="4.70404">
        <ele>371.69</ele>
        <time>2016-05-08T12:31:02Z</time>
      </trkpt>
      <trkpt lat="47.56969" lon="4.70401">
        <ele>372.65</ele>
        <time>2016-05-08T12:31:24Z</time>
      </trkpt>
      <trkpt lat="47.56968" lon="4.70399">
        <ele>375.53</ele>
        <time>2016-05-08T12:31:37Z</time>
      </trkpt>
      <trkpt lat="47.56963" lon="4.70389">
        <ele>378.9</ele>
        <time>2016-05-08T12:31:52Z</time>
      </trkpt>
      <trkpt lat="47.5696" lon="4.70387">
        <ele>378.9</ele>
        <time>2016-05-08T12:32:12Z</time>
      </trkpt>
      <trkpt lat="47.5696" lon="4.70387">
        <ele>377.94</ele>
        <time>2016-05-08T12:32:36Z</time>
      </trkpt>
      <trkpt lat="47.5696" lon="4.70386">
        <ele>377.45</ele>
        <time>2016-05-08T12:33:04Z</time>
      </trkpt>
      <trkpt lat="47.56959" lon="4.70385">
        <ele>377.45</ele>
        <time>2016-05-08T12:33:27Z</time>
      </trkpt>
      <trkpt lat="47.56958" lon="4.70384">
        <ele>376.97</ele>
        <time>2016-05-08T12:33:51Z</time>
      </trkpt>
      <trkpt lat="47.56957" lon="4.70384">
        <ele>376.97</ele>
        <time>2016-05-08T12:34:12Z</time>
      </trkpt>
      <trkpt lat="47.56957" lon="4.70385">
        <ele>375.53</ele>
        <time>2016-05-08T12:34:33Z</time>
      </trkpt>
      <trkpt lat="47.56956" lon="4.70387">
        <ele>375.05</ele>
        <time>2016-05-08T12:34:57Z</time>
      </trkpt>
      <trkpt lat="47.56957" lon="4.70388">
        <ele>374.09</ele>
        <time>2016-05-08T12:35:21Z</time>
      </trkpt>
      <trkpt lat="47.56958" lon="4.70391">
        <ele>374.09</ele>
        <time>2016-05-08T12:35:35Z</time>
      </trkpt>
      <trkpt lat="47.56956" lon="4.70397">
        <ele>371.69</ele>
        <time>2016-05-08T12:35:55Z</time>
      </trkpt>
      <trkpt lat="47.56957" lon="4.70401">
        <ele>371.69</ele>
        <time>2016-05-08T12:36:16Z</time>
      </trkpt>
      <trkpt lat="47.56954" lon="4.70403">
        <ele>371.69</ele>
        <time>2016-05-08T12:36:45Z</time>
      </trkpt>
      <trkpt lat="47.56953" lon="4.70406">
        <ele>371.21</ele>
        <time>2016-05-08T12:37:09Z</time>
      </trkpt>
      <trkpt lat="47.56953" lon="4.70408">
        <ele>370.73</ele>
        <time>2016-05-08T12:37:29Z</time>
      </trkpt>
      <trkpt lat="47.56957" lon="4.70405">
        <ele>370.24</ele>
        <time>2016-05-08T12:37:48Z</time>
      </trkpt>
      <trkpt lat="47.56956" lon="4.70406">
        <ele>369.76</ele>
        <time>2016-05-08T12:38:20Z</time>
      </trkpt>
      <trkpt lat="47.56956" lon="4.70407">
        <ele>370.24</ele>
        <time>2016-05-08T12:38:49Z</time>
      </trkpt>
      <trkpt lat="47.56957" lon="4.70404">
        <ele>369.76</ele>
        <time>2016-05-08T12:39:15Z</time>
      </trkpt>
      <trkpt lat="47.56957" lon="4.70405">
        <ele>369.76</ele>
        <time>2016-05-08T12:39:39Z</time>
      </trkpt>
      <trkpt lat="47.56958" lon="4.70408">
        <ele>370.24</ele>
        <time>2016-05-08T12:40:11Z</time>
      </trkpt>
      <trkpt lat="47.56957" lon="4.70409">
        <ele>370.73</ele>
        <time>2016-05-08T12:40:42Z</time>
      </trkpt>
      <trkpt lat="47.56958" lon="4.7041">
        <ele>368.32</ele>
        <time>2016-05-08T12:41:01Z</time>
      </trkpt>
      <trkpt lat="47.56958" lon="4.70411">
        <ele>369.28</ele>
        <time>2016-05-08T12:41:24Z</time>
      </trkpt>
      <trkpt lat="47.56959" lon="4.7041">
        <ele>368.8</ele>
        <time>2016-05-08T12:41:53Z</time>
      </trkpt>
      <trkpt lat="47.56959" lon="4.7041">
        <ele>368.8</ele>
        <time>2016-05-08T12:42:21Z</time>
      </trkpt>
      <trkpt lat="47.56968" lon="4.70418">
        <ele>367.36</ele>
        <time>2016-05-08T12:42:40Z</time>
      </trkpt>
      <trkpt lat="47.56978" lon="4.70424">
        <ele>365.44</ele>
        <time>2016-05-08T12:42:54Z</time>
      </trkpt>
      <trkpt lat="47.5698" lon="4.70424">
        <ele>364.48</ele>
        <time>2016-05-08T12:43:16Z</time>
      </trkpt>
      <trkpt lat="47.56979" lon="4.70424">
        <ele>364.96</ele>
        <time>2016-05-08T12:43:39Z</time>
      </trkpt>
      <trkpt lat="47.56982" lon="4.70432">
        <ele>362.55</ele>
        <time>2016-05-08T12:44:02Z</time>
      </trkpt>
      <trkpt lat="47.56983" lon="4.70433">
        <ele>361.59</ele>
        <time>2016-05-08T12:44:25Z</time>
      </trkpt>
      <trkpt lat="47.56981" lon="4.70434">
        <ele>362.07</ele>
        <time>2016-05-08T12:44:52Z</time>
      </trkpt>
      <trkpt lat="47.56981" lon="4.70436">
        <ele>362.07</ele>
        <time>2016-05-08T12:45:22Z</time>
      </trkpt>
      <trkpt lat="47.56987" lon="4.70446">
        <ele>360.15</ele>
        <time>2016-05-08T12:45:45Z</time>
      </trkpt>
      <trkpt lat="47.56989" lon="4.70446">
        <ele>360.15</ele>
        <time>2016-05-08T12:46:01Z</time>
      </trkpt>
      <trkpt lat="47.56992" lon="4.70446">
        <ele>359.67</ele>
        <time>2016-05-08T12:46:24Z</time>
      </trkpt>
      <trkpt lat="47.56994" lon="4.70447">
        <ele>358.23</ele>
        <time>2016-05-08T12:46:40Z</time>
      </trkpt>
      <trkpt lat="47.57002" lon="4.70449">
        <ele>356.31</ele>
        <time>2016-05-08T12:46:56Z</time>
      </trkpt>
      <trkpt lat="47.57004" lon="4.70449">
        <ele>355.83</ele>
        <time>2016-05-08T12:47:10Z</time>
      </trkpt>
      <trkpt lat="47.57014" lon="4.70449">
        <ele>355.83</ele>
        <time>2016-05-08T12:47:27Z</time>
      </trkpt>
      <trkpt lat="47.57032" lon="4.70451">
        <ele>352.94</ele>
        <time>2016-05-08T12:47:43Z</time>
      </trkpt>
      <trkpt lat="47.57039" lon="4.7045">
        <ele>352.94</ele>
        <time>2016-05-08T12:47:59Z</time>
      </trkpt>
      <trkpt lat="47.57041" lon="4.70445">
        <ele>353.42</ele>
        <time>2016-05-08T12:48:17Z</time>
      </trkpt>
      <trkpt lat="47.57043" lon="4.70439">
        <ele>354.38</ele>
        <time>2016-05-08T12:48:27Z</time>
      </trkpt>
      <trkpt lat="47.57047" lon="4.70433">
        <ele>354.38</ele>
        <time>2016-05-08T12:48:31Z</time>
      </trkpt>
      <trkpt lat="47.57057" lon="4.70421">
        <ele>355.34</ele>
        <time>2016-05-08T12:48:45Z</time>
      </trkpt>
      <trkpt lat="47.5706" lon="4.70417">
        <ele>355.34</ele>
        <time>2016-05-08T12:49:07Z</time>
      </trkpt>
      <trkpt lat="47.57064" lon="4.70413">
        <ele>354.86</ele>
        <time>2016-05-08T12:49:29Z</time>
      </trkpt>
      <trkpt lat="47.57065" lon="4.70409">
        <ele>354.86</ele>
        <time>2016-05-08T12:49:55Z</time>
      </trkpt>
      <trkpt lat="47.57067" lon="4.70407">
        <ele>354.86</ele>
        <time>2016-05-08T12:50:25Z</time>
      </trkpt>
      <trkpt lat="47.57068" lon="4.70406">
        <ele>354.86</ele>
        <time>2016-05-08T12:50:44Z</time>
      </trkpt>
      <trkpt lat="47.57068" lon="4.70406">
        <ele>354.86</ele>
        <time>2016-05-08T12:50:59Z</time>
      </trkpt>
      <trkpt lat="47.57069" lon="4.70406">
        <ele>342.37</ele>
        <time>2016-05-08T12:51:10Z</time>
      </trkpt>
      <trkpt lat="47.57069" lon="4.70406">
        <ele>357.75</ele>
        <time>2016-05-08T12:51:11Z</time>
      </trkpt>
      <trkpt lat="47.57069" lon="4.70406">
        <ele>343.81</ele>
        <time>2016-05-08T12:51:12Z</time>
      </trkpt>
      <trkpt lat="47.57069" lon="4.70406">
        <ele>364.48</ele>
        <time>2016-05-08T12:51:13Z</time>
      </trkpt>
      <trkpt lat="47.57069" lon="4.70406">
        <ele>355.83</ele>
        <time>2016-05-08T12:51:14Z</time>
      </trkpt>
      <trkpt lat="47.57069" lon="4.70406">
        <ele>354.86</ele>
        <time>2016-05-08T12:51:15Z</time>
      </trkpt>
      <trkpt lat="47.57072" lon="4.70405">
        <ele>354.38</ele>
        <time>2016-05-08T12:51:27Z</time>
      </trkpt>
      <trkpt lat="47.57078" lon="4.704">
        <ele>354.38</ele>
        <time>2016-05-08T12:51:40Z</time>
      </trkpt>
      <trkpt lat="47.57084" lon="4.70394">
        <ele>354.86</ele>
        <time>2016-05-08T12:51:54Z</time>
      </trkpt>
      <trkpt lat="47.5709" lon="4.70386">
        <ele>354.86</ele>
        <time>2016-05-08T12:52:06Z</time>
      </trkpt>
      <trkpt lat="47.57105" lon="4.70371">
        <ele>354.86</ele>
        <time>2016-05-08T12:52:21Z</time>
      </trkpt>
      <trkpt lat="47.57121" lon="4.70362">
        <ele>354.38</ele>
        <time>2016-05-08T12:52:33Z</time>
      </trkpt>
      <trkpt lat="47.57123" lon="4.7036">
        <ele>354.38</ele>
        <time>2016-05-08T12:52:39Z</time>
      </trkpt>
      <trkpt lat="47.57132" lon="4.70346">
        <ele>354.38</ele>
        <time>2016-05-08T12:52:52Z</time>
      </trkpt>
      <trkpt lat="47.5714" lon="4.7034">
        <ele>354.86</ele>
        <time>2016-05-08T12:53:04Z</time>
      </trkpt>
      <trkpt lat="47.57143" lon="4.70336">
        <ele>354.38</ele>
        <time>2016-05-08T12:53:19Z</time>
      </trkpt>
      <trkpt lat="47.57148" lon="4.7033">
        <ele>354.38</ele>
        <time>2016-05-08T12:53:32Z</time>
      </trkpt>
      <trkpt lat="47.57154" lon="4.70322">
        <ele>354.86</ele>
        <time>2016-05-08T12:53:42Z</time>
      </trkpt>
      <trkpt lat="47.57162" lon="4.70309">
        <ele>355.34</ele>
        <time>2016-05-08T12:53:56Z</time>
      </trkpt>
      <trkpt lat="47.57177" lon="4.70297">
        <ele>355.83</ele>
        <time>2016-05-08T12:54:08Z</time>
      </trkpt>
      <trkpt lat="47.57182" lon="4.70282">
        <ele>356.79</ele>
        <time>2016-05-08T12:54:21Z</time>
      </trkpt>
      <trkpt lat="47.57188" lon="4.7027">
        <ele>357.75</ele>
        <time>2016-05-08T12:54:34Z</time>
      </trkpt>
      <trkpt lat="47.57189" lon="4.70269">
        <ele>358.23</ele>
        <time>2016-05-08T12:54:49Z</time>
      </trkpt>
      <trkpt lat="47.5719" lon="4.7027">
        <ele>358.23</ele>
        <time>2016-05-08T12:55:06Z</time>
      </trkpt>
      <trkpt lat="47.57189" lon="4.70271">
        <ele>358.23</ele>
        <time>2016-05-08T12:55:19Z</time>
      </trkpt>
      <trkpt lat="47.57189" lon="4.70274">
        <ele>358.23</ele>
        <time>2016-05-08T12:55:45Z</time>
      </trkpt>
      <trkpt lat="47.5719" lon="4.70274">
        <ele>358.23</ele>
        <time>2016-05-08T12:56:00Z</time>
      </trkpt>
      <trkpt lat="47.5719" lon="4.70276">
        <ele>357.75</ele>
        <time>2016-05-08T12:56:31Z</time>
      </trkpt>
      <trkpt lat="47.57191" lon="4.70277">
        <ele>358.23</ele>
        <time>2016-05-08T12:56:55Z</time>
      </trkpt>
      <trkpt lat="47.57191" lon="4.70273">
        <ele>358.23</ele>
        <time>2016-05-08T12:57:12Z</time>
      </trkpt>
      <trkpt lat="47.57195" lon="4.7026">
        <ele>358.71</ele>
        <time>2016-05-08T12:57:24Z</time>
      </trkpt>
      <trkpt lat="47.57198" lon="4.70251">
        <ele>359.67</ele>
        <time>2016-05-08T12:57:38Z</time>
      </trkpt>
      <trkpt lat="47.57204" lon="4.70239">
        <ele>360.63</ele>
        <time>2016-05-08T12:57:51Z</time>
      </trkpt>
      <trkpt lat="47.57206" lon="4.70227">
        <ele>361.59</ele>
        <time>2016-05-08T12:58:02Z</time>
      </trkpt>
      <trkpt lat="47.57212" lon="4.70211">
        <ele>363.04</ele>
        <time>2016-05-08T12:58:15Z</time>
      </trkpt>
      <trkpt lat="47.57221" lon="4.70199">
        <ele>364</ele>
        <time>2016-05-08T12:58:28Z</time>
      </trkpt>
      <trkpt lat="47.57226" lon="4.70189">
        <ele>365.44</ele>
        <time>2016-05-08T12:58:40Z</time>
      </trkpt>
      <trkpt lat="47.57232" lon="4.70172">
        <ele>365.44</ele>
        <time>2016-05-08T12:58:50Z</time>
      </trkpt>
      <trkpt lat="47.5724" lon="4.70156">
        <ele>366.4</ele>
        <time>2016-05-08T12:59:02Z</time>
      </trkpt>
      <trkpt lat="47.57244" lon="4.70145">
        <ele>366.88</ele>
        <time>2016-05-08T12:59:15Z</time>
      </trkpt>
      <trkpt lat="47.57249" lon="4.70134">
        <ele>366.88</ele>
        <time>2016-05-08T12:59:27Z</time>
      </trkpt>
      <trkpt lat="47.57253" lon="4.70131">
        <ele>366.88</ele>
        <time>2016-05-08T12:59:38Z</time>
      </trkpt>
      <trkpt lat="47.57254" lon="4.70124">
        <ele>366.88</ele>
        <time>2016-05-08T12:59:43Z</time>
      </trkpt>
      <trkpt lat="47.57265" lon="4.70105">
        <ele>367.36</ele>
        <time>2016-05-08T12:59:54Z</time>
      </trkpt>
      <trkpt lat="47.57267" lon="4.70102">
        <ele>367.36</ele>
        <time>2016-05-08T12:59:56Z</time>
      </trkpt>
      <trkpt lat="47.57275" lon="4.70086">
        <ele>367.84</ele>
        <time>2016-05-08T13:00:10Z</time>
      </trkpt>
      <trkpt lat="47.57276" lon="4.70083">
        <ele>368.32</ele>
        <time>2016-05-08T13:00:14Z</time>
      </trkpt>
      <trkpt lat="47.57279" lon="4.70079">
        <ele>367.84</ele>
        <time>2016-05-08T13:00:16Z</time>
      </trkpt>
      <trkpt lat="47.57287" lon="4.70064">
        <ele>369.28</ele>
        <time>2016-05-08T13:00:28Z</time>
      </trkpt>
      <trkpt lat="47.57301" lon="4.70047">
        <ele>369.76</ele>
        <time>2016-05-08T13:00:39Z</time>
      </trkpt>
      <trkpt lat="47.57311" lon="4.70033">
        <ele>369.76</ele>
        <time>2016-05-08T13:00:51Z</time>
      </trkpt>
      <trkpt lat="47.57317" lon="4.7002">
        <ele>369.28</ele>
        <time>2016-05-08T13:01:05Z</time>
      </trkpt>
      <trkpt lat="47.57318" lon="4.70019">
        <ele>369.28</ele>
        <time>2016-05-08T13:01:06Z</time>
      </trkpt>
      <trkpt lat="47.57321" lon="4.70014">
        <ele>369.28</ele>
        <time>2016-05-08T13:01:10Z</time>
      </trkpt>
      <trkpt lat="47.57328" lon="4.69997">
        <ele>368.32</ele>
        <time>2016-05-08T13:01:22Z</time>
      </trkpt>
      <trkpt lat="47.57335" lon="4.69985">
        <ele>367.84</ele>
        <time>2016-05-08T13:01:35Z</time>
      </trkpt>
      <trkpt lat="47.57343" lon="4.69975">
        <ele>367.84</ele>
        <time>2016-05-08T13:01:47Z</time>
      </trkpt>
      <trkpt lat="47.57346" lon="4.69975">
        <ele>368.32</ele>
        <time>2016-05-08T13:02:06Z</time>
      </trkpt>
      <trkpt lat="47.57345" lon="4.69974">
        <ele>368.32</ele>
        <time>2016-05-08T13:02:25Z</time>
      </trkpt>
      <trkpt lat="47.57346" lon="4.69975">
        <ele>368.32</ele>
        <time>2016-05-08T13:02:59Z</time>
      </trkpt>
      <trkpt lat="47.57347" lon="4.69972">
        <ele>367.84</ele>
        <time>2016-05-08T13:03:22Z</time>
      </trkpt>
      <trkpt lat="47.5735" lon="4.6996">
        <ele>368.32</ele>
        <time>2016-05-08T13:03:34Z</time>
      </trkpt>
      <trkpt lat="47.57361" lon="4.69946">
        <ele>369.28</ele>
        <time>2016-05-08T13:03:47Z</time>
      </trkpt>
      <trkpt lat="47.57374" lon="4.69935">
        <ele>370.24</ele>
        <time>2016-05-08T13:03:59Z</time>
      </trkpt>
      <trkpt lat="47.57387" lon="4.69922">
        <ele>370.24</ele>
        <time>2016-05-08T13:04:13Z</time>
      </trkpt>
      <trkpt lat="47.5739" lon="4.6992">
        <ele>370.24</ele>
        <time>2016-05-08T13:04:15Z</time>
      </trkpt>
      <trkpt lat="47.57397" lon="4.6991">
        <ele>370.24</ele>
        <time>2016-05-08T13:04:24Z</time>
      </trkpt>
      <trkpt lat="47.57411" lon="4.69899">
        <ele>370.24</ele>
        <time>2016-05-08T13:04:37Z</time>
      </trkpt>
      <trkpt lat="47.5742" lon="4.69887">
        <ele>370.73</ele>
        <time>2016-05-08T13:04:48Z</time>
      </trkpt>
      <trkpt lat="47.57429" lon="4.69874">
        <ele>372.17</ele>
        <time>2016-05-08T13:05:00Z</time>
      </trkpt>
      <trkpt lat="47.57443" lon="4.69859">
        <ele>373.61</ele>
        <time>2016-05-08T13:05:12Z</time>
      </trkpt>
      <trkpt lat="47.57456" lon="4.69847">
        <ele>374.57</ele>
        <time>2016-05-08T13:05:24Z</time>
      </trkpt>
      <trkpt lat="47.57469" lon="4.69839">
        <ele>375.53</ele>
        <time>2016-05-08T13:05:38Z</time>
      </trkpt>
      <trkpt lat="47.57476" lon="4.69828">
        <ele>376.97</ele>
        <time>2016-05-08T13:05:52Z</time>
      </trkpt>
      <trkpt lat="47.57491" lon="4.69815">
        <ele>378.42</ele>
        <time>2016-05-08T13:06:07Z</time>
      </trkpt>
      <trkpt lat="47.57493" lon="4.69814">
        <ele>387.07</ele>
        <time>2016-05-08T13:06:10Z</time>
      </trkpt>
      <trkpt lat="47.57493" lon="4.69814">
        <ele>364</ele>
        <time>2016-05-08T13:06:11Z</time>
      </trkpt>
      <trkpt lat="47.57493" lon="4.69814">
        <ele>383.7</ele>
        <time>2016-05-08T13:06:13Z</time>
      </trkpt>
      <trkpt lat="47.57493" lon="4.69814">
        <ele>375.05</ele>
        <time>2016-05-08T13:06:14Z</time>
      </trkpt>
      <trkpt lat="47.57493" lon="4.69814">
        <ele>379.86</ele>
        <time>2016-05-08T13:06:15Z</time>
      </trkpt>
      <trkpt lat="47.57493" lon="4.69814">
        <ele>368.32</ele>
        <time>2016-05-08T13:06:16Z</time>
      </trkpt>
      <trkpt lat="47.57493" lon="4.69814">
        <ele>375.05</ele>
        <time>2016-05-08T13:06:17Z</time>
      </trkpt>
      <trkpt lat="47.57493" lon="4.69814">
        <ele>381.3</ele>
        <time>2016-05-08T13:06:18Z</time>
      </trkpt>
      <trkpt lat="47.57493" lon="4.69813">
        <ele>378.9</ele>
        <time>2016-05-08T13:06:19Z</time>
      </trkpt>
      <trkpt lat="47.575" lon="4.69809">
        <ele>379.86</ele>
        <time>2016-05-08T13:06:37Z</time>
      </trkpt>
      <trkpt lat="47.57503" lon="4.69807">
        <ele>380.34</ele>
        <time>2016-05-08T13:07:01Z</time>
      </trkpt>
      <trkpt lat="47.57507" lon="4.69807">
        <ele>380.34</ele>
        <time>2016-05-08T13:07:28Z</time>
      </trkpt>
      <trkpt lat="47.57509" lon="4.698">
        <ele>380.34</ele>
        <time>2016-05-08T13:07:48Z</time>
      </trkpt>
      <trkpt lat="47.57515" lon="4.69791">
        <ele>380.34</ele>
        <time>2016-05-08T13:08:03Z</time>
      </trkpt>
      <trkpt lat="47.57517" lon="4.69787">
        <ele>380.82</ele>
        <time>2016-05-08T13:08:06Z</time>
      </trkpt>
      <trkpt lat="47.57539" lon="4.69771">
        <ele>380.82</ele>
        <time>2016-05-08T13:08:20Z</time>
      </trkpt>
      <trkpt lat="47.57549" lon="4.69769">
        <ele>381.3</ele>
        <time>2016-05-08T13:08:32Z</time>
      </trkpt>
      <trkpt lat="47.57555" lon="4.6976">
        <ele>382.74</ele>
        <time>2016-05-08T13:08:45Z</time>
      </trkpt>
      <trkpt lat="47.57566" lon="4.69742">
        <ele>384.66</ele>
        <time>2016-05-08T13:08:58Z</time>
      </trkpt>
      <trkpt lat="47.57564" lon="4.69731">
        <ele>385.63</ele>
        <time>2016-05-08T13:09:09Z</time>
      </trkpt>
      <trkpt lat="47.57565" lon="4.69715">
        <ele>386.59</ele>
        <time>2016-05-08T13:09:19Z</time>
      </trkpt>
      <trkpt lat="47.57568" lon="4.697">
        <ele>387.55</ele>
        <time>2016-05-08T13:09:31Z</time>
      </trkpt>
      <trkpt lat="47.57563" lon="4.69679">
        <ele>388.03</ele>
        <time>2016-05-08T13:09:42Z</time>
      </trkpt>
      <trkpt lat="47.57564" lon="4.69663">
        <ele>388.51</ele>
        <time>2016-05-08T13:09:55Z</time>
      </trkpt>
      <trkpt lat="47.57564" lon="4.69651">
        <ele>388.99</ele>
        <time>2016-05-08T13:10:05Z</time>
      </trkpt>
      <trkpt lat="47.57563" lon="4.69631">
        <ele>388.99</ele>
        <time>2016-05-08T13:10:15Z</time>
      </trkpt>
      <trkpt lat="47.57557" lon="4.69615">
        <ele>389.47</ele>
        <time>2016-05-08T13:10:24Z</time>
      </trkpt>
      <trkpt lat="47.57556" lon="4.69613">
        <ele>389.47</ele>
        <time>2016-05-08T13:10:26Z</time>
      </trkpt>
      <trkpt lat="47.57556" lon="4.69596">
        <ele>389.47</ele>
        <time>2016-05-08T13:10:36Z</time>
      </trkpt>
      <trkpt lat="47.57562" lon="4.69579">
        <ele>389.47</ele>
        <time>2016-05-08T13:10:47Z</time>
      </trkpt>
      <trkpt lat="47.57563" lon="4.69569">
        <ele>388.99</ele>
        <time>2016-05-08T13:11:00Z</time>
      </trkpt>
      <trkpt lat="47.57563" lon="4.69563">
        <ele>389.47</ele>
        <time>2016-05-08T13:11:05Z</time>
      </trkpt>
      <trkpt lat="47.57553" lon="4.69535">
        <ele>389.47</ele>
        <time>2016-05-08T13:11:17Z</time>
      </trkpt>
      <trkpt lat="47.57552" lon="4.69518">
        <ele>389.47</ele>
        <time>2016-05-08T13:11:29Z</time>
      </trkpt>
      <trkpt lat="47.57553" lon="4.69504">
        <ele>389.47</ele>
        <time>2016-05-08T13:11:40Z</time>
      </trkpt>
      <trkpt lat="47.57552" lon="4.69494">
        <ele>389.47</ele>
        <time>2016-05-08T13:11:58Z</time>
      </trkpt>
      <trkpt lat="47.57554" lon="4.69489">
        <ele>389.47</ele>
        <time>2016-05-08T13:12:22Z</time>
      </trkpt>
      <trkpt lat="47.57555" lon="4.6948">
        <ele>389.47</ele>
        <time>2016-05-08T13:12:34Z</time>
      </trkpt>
      <trkpt lat="47.57555" lon="4.69473">
        <ele>389.95</ele>
        <time>2016-05-08T13:12:50Z</time>
      </trkpt>
      <trkpt lat="47.57553" lon="4.6947">
        <ele>389.47</ele>
        <time>2016-05-08T13:13:20Z</time>
      </trkpt>
      <trkpt lat="47.57553" lon="4.69467">
        <ele>389.95</ele>
        <time>2016-05-08T13:13:44Z</time>
      </trkpt>
      <trkpt lat="47.57551" lon="4.69468">
        <ele>389.95</ele>
        <time>2016-05-08T13:14:17Z</time>
      </trkpt>
      <trkpt lat="47.57551" lon="4.69468">
        <ele>389.47</ele>
        <time>2016-05-08T13:14:47Z</time>
      </trkpt>
      <trkpt lat="47.57553" lon="4.69463">
        <ele>389.47</ele>
        <time>2016-05-08T13:15:12Z</time>
      </trkpt>
      <trkpt lat="47.57553" lon="4.69453">
        <ele>393.32</ele>
        <time>2016-05-08T13:15:23Z</time>
      </trkpt>
      <trkpt lat="47.57553" lon="4.69453">
        <ele>389.95</ele>
        <time>2016-05-08T13:15:25Z</time>
      </trkpt>
      <trkpt lat="47.57552" lon="4.69451">
        <ele>390.43</ele>
        <time>2016-05-08T13:15:43Z</time>
      </trkpt>
      <trkpt lat="47.57551" lon="4.69441">
        <ele>390.43</ele>
        <time>2016-05-08T13:15:58Z</time>
      </trkpt>
      <trkpt lat="47.57549" lon="4.6942">
        <ele>389.47</ele>
        <time>2016-05-08T13:16:12Z</time>
      </trkpt>
      <trkpt lat="47.57552" lon="4.69406">
        <ele>388.99</ele>
        <time>2016-05-08T13:16:25Z</time>
      </trkpt>
      <trkpt lat="47.57552" lon="4.69401">
        <ele>388.99</ele>
        <time>2016-05-08T13:16:40Z</time>
      </trkpt>
      <trkpt lat="47.57552" lon="4.69401">
        <ele>388.99</ele>
        <time>2016-05-08T13:16:41Z</time>
      </trkpt>
      <trkpt lat="47.57561" lon="4.69379">
        <ele>388.99</ele>
        <time>2016-05-08T13:16:54Z</time>
      </trkpt>
      <trkpt lat="47.57563" lon="4.69377">
        <ele>379.38</ele>
        <time>2016-05-08T13:16:56Z</time>
      </trkpt>
      <trkpt lat="47.57563" lon="4.69376">
        <ele>395.72</ele>
        <time>2016-05-08T13:16:57Z</time>
      </trkpt>
      <trkpt lat="47.57564" lon="4.69375">
        <ele>389.47</ele>
        <time>2016-05-08T13:16:58Z</time>
      </trkpt>
      <trkpt lat="47.57563" lon="4.69374">
        <ele>392.84</ele>
        <time>2016-05-08T13:17:00Z</time>
      </trkpt>
      <trkpt lat="47.57563" lon="4.69372">
        <ele>384.18</ele>
        <time>2016-05-08T13:17:01Z</time>
      </trkpt>
      <trkpt lat="47.57563" lon="4.69371">
        <ele>390.43</ele>
        <time>2016-05-08T13:17:02Z</time>
      </trkpt>
      <trkpt lat="47.57565" lon="4.69366">
        <ele>396.2</ele>
        <time>2016-05-08T13:17:06Z</time>
      </trkpt>
      <trkpt lat="47.57567" lon="4.69363">
        <ele>389.95</ele>
        <time>2016-05-08T13:17:08Z</time>
      </trkpt>
      <trkpt lat="47.57568" lon="4.6936">
        <ele>389.47</ele>
        <time>2016-05-08T13:17:10Z</time>
      </trkpt>
      <trkpt lat="47.57581" lon="4.69349">
        <ele>388.99</ele>
        <time>2016-05-08T13:17:24Z</time>
      </trkpt>
      <trkpt lat="47.57586" lon="4.6935">
        <ele>389.47</ele>
        <time>2016-05-08T13:17:30Z</time>
      </trkpt>
      <trkpt lat="47.57587" lon="4.69351">
        <ele>386.59</ele>
        <time>2016-05-08T13:17:32Z</time>
      </trkpt>
      <trkpt lat="47.57589" lon="4.69352">
        <ele>389.95</ele>
        <time>2016-05-08T13:17:33Z</time>
      </trkpt>
      <trkpt lat="47.57589" lon="4.69352">
        <ele>384.66</ele>
        <time>2016-05-08T13:17:34Z</time>
      </trkpt>
      <trkpt lat="47.5759" lon="4.69353">
        <ele>389.95</ele>
        <time>2016-05-08T13:17:35Z</time>
      </trkpt>
      <trkpt lat="47.57602" lon="4.69359">
        <ele>390.43</ele>
        <time>2016-05-08T13:17:49Z</time>
      </trkpt>
      <trkpt lat="47.57614" lon="4.69363">
        <ele>390.91</ele>
        <time>2016-05-08T13:18:04Z</time>
      </trkpt>
      <trkpt lat="47.57629" lon="4.6937">
        <ele>392.84</ele>
        <time>2016-05-08T13:18:20Z</time>
      </trkpt>
      <trkpt lat="47.57646" lon="4.69377">
        <ele>393.8</ele>
        <time>2016-05-08T13:18:35Z</time>
      </trkpt>
      <trkpt lat="47.5766" lon="4.69379">
        <ele>395.24</ele>
        <time>2016-05-08T13:18:50Z</time>
      </trkpt>
      <trkpt lat="47.57663" lon="4.69379">
        <ele>396.2</ele>
        <time>2016-05-08T13:18:54Z</time>
      </trkpt>
      <trkpt lat="47.57672" lon="4.69375">
        <ele>397.64</ele>
        <time>2016-05-08T13:19:06Z</time>
      </trkpt>
      <trkpt lat="47.57682" lon="4.69369">
        <ele>399.08</ele>
        <time>2016-05-08T13:19:20Z</time>
      </trkpt>
      <trkpt lat="47.57692" lon="4.69358">
        <ele>401.01</ele>
        <time>2016-05-08T13:19:34Z</time>
      </trkpt>
      <trkpt lat="47.577" lon="4.69349">
        <ele>401.97</ele>
        <time>2016-05-08T13:19:46Z</time>
      </trkpt>
      <trkpt lat="47.57707" lon="4.69339">
        <ele>403.41</ele>
        <time>2016-05-08T13:19:58Z</time>
      </trkpt>
      <trkpt lat="47.57713" lon="4.69327">
        <ele>404.85</ele>
        <time>2016-05-08T13:20:10Z</time>
      </trkpt>
      <trkpt lat="47.57718" lon="4.69316">
        <ele>406.29</ele>
        <time>2016-05-08T13:20:22Z</time>
      </trkpt>
      <trkpt lat="47.57725" lon="4.69303">
        <ele>407.74</ele>
        <time>2016-05-08T13:20:34Z</time>
      </trkpt>
      <trkpt lat="47.57731" lon="4.69289">
        <ele>408.7</ele>
        <time>2016-05-08T13:20:47Z</time>
      </trkpt>
      <trkpt lat="47.57737" lon="4.69272">
        <ele>409.66</ele>
        <time>2016-05-08T13:21:00Z</time>
      </trkpt>
      <trkpt lat="47.57741" lon="4.6926">
        <ele>410.62</ele>
        <time>2016-05-08T13:21:10Z</time>
      </trkpt>
      <trkpt lat="47.57746" lon="4.69251">
        <ele>411.1</ele>
        <time>2016-05-08T13:21:17Z</time>
      </trkpt>
      <trkpt lat="47.57747" lon="4.69246">
        <ele>411.1</ele>
        <time>2016-05-08T13:21:20Z</time>
      </trkpt>
      <trkpt lat="47.57749" lon="4.6924">
        <ele>412.06</ele>
        <time>2016-05-08T13:21:24Z</time>
      </trkpt>
      <trkpt lat="47.57752" lon="4.6923">
        <ele>412.06</ele>
        <time>2016-05-08T13:21:31Z</time>
      </trkpt>
      <trkpt lat="47.57754" lon="4.69222">
        <ele>412.06</ele>
        <time>2016-05-08T13:21:37Z</time>
      </trkpt>
      <trkpt lat="47.57756" lon="4.69219">
        <ele>412.54</ele>
        <time>2016-05-08T13:21:39Z</time>
      </trkpt>
      <trkpt lat="47.57757" lon="4.69213">
        <ele>412.06</ele>
        <time>2016-05-08T13:21:43Z</time>
      </trkpt>
      <trkpt lat="47.57757" lon="4.6921">
        <ele>412.54</ele>
        <time>2016-05-08T13:21:45Z</time>
      </trkpt>
      <trkpt lat="47.57761" lon="4.69194">
        <ele>413.02</ele>
        <time>2016-05-08T13:21:54Z</time>
      </trkpt>
      <trkpt lat="47.57761" lon="4.69188">
        <ele>413.5</ele>
        <time>2016-05-08T13:21:58Z</time>
      </trkpt>
      <trkpt lat="47.57764" lon="4.69174">
        <ele>413.5</ele>
        <time>2016-05-08T13:22:07Z</time>
      </trkpt>
      <trkpt lat="47.57764" lon="4.69162">
        <ele>413.5</ele>
        <time>2016-05-08T13:22:13Z</time>
      </trkpt>
      <trkpt lat="47.57764" lon="4.69158">
        <ele>413.98</ele>
        <time>2016-05-08T13:22:16Z</time>
      </trkpt>
      <trkpt lat="47.57766" lon="4.69135">
        <ele>414.47</ele>
        <time>2016-05-08T13:22:30Z</time>
      </trkpt>
      <trkpt lat="47.57767" lon="4.6911">
        <ele>414.95</ele>
        <time>2016-05-08T13:22:44Z</time>
      </trkpt>
      <trkpt lat="47.57768" lon="4.6909">
        <ele>414.95</ele>
        <time>2016-05-08T13:22:55Z</time>
      </trkpt>
      <trkpt lat="47.5777" lon="4.69068">
        <ele>414.95</ele>
        <time>2016-05-08T13:23:07Z</time>
      </trkpt>
      <trkpt lat="47.57771" lon="4.69057">
        <ele>414.95</ele>
        <time>2016-05-08T13:23:15Z</time>
      </trkpt>
      <trkpt lat="47.57773" lon="4.69033">
        <ele>415.43</ele>
        <time>2016-05-08T13:23:29Z</time>
      </trkpt>
      <trkpt lat="47.57773" lon="4.69027">
        <ele>415.43</ele>
        <time>2016-05-08T13:23:33Z</time>
      </trkpt>
      <trkpt lat="47.57773" lon="4.69005">
        <ele>414.95</ele>
        <time>2016-05-08T13:23:46Z</time>
      </trkpt>
      <trkpt lat="47.57773" lon="4.69004">
        <ele>415.43</ele>
        <time>2016-05-08T13:23:47Z</time>
      </trkpt>
      <trkpt lat="47.57775" lon="4.68981">
        <ele>414.95</ele>
        <time>2016-05-08T13:24:00Z</time>
      </trkpt>
      <trkpt lat="47.57776" lon="4.6896">
        <ele>415.43</ele>
        <time>2016-05-08T13:24:13Z</time>
      </trkpt>
      <trkpt lat="47.57779" lon="4.68945">
        <ele>414.95</ele>
        <time>2016-05-08T13:24:23Z</time>
      </trkpt>
      <trkpt lat="47.5778" lon="4.68934">
        <ele>414.95</ele>
        <time>2016-05-08T13:24:29Z</time>
      </trkpt>
      <trkpt lat="47.57781" lon="4.68912">
        <ele>414.47</ele>
        <time>2016-05-08T13:24:42Z</time>
      </trkpt>
      <trkpt lat="47.57782" lon="4.68905">
        <ele>414.47</ele>
        <time>2016-05-08T13:24:46Z</time>
      </trkpt>
      <trkpt lat="47.57783" lon="4.6889">
        <ele>413.5</ele>
        <time>2016-05-08T13:24:55Z</time>
      </trkpt>
      <trkpt lat="47.57783" lon="4.68868">
        <ele>413.5</ele>
        <time>2016-05-08T13:25:08Z</time>
      </trkpt>
      <trkpt lat="47.57785" lon="4.68844">
        <ele>412.06</ele>
        <time>2016-05-08T13:25:22Z</time>
      </trkpt>
      <trkpt lat="47.57785" lon="4.68829">
        <ele>412.54</ele>
        <time>2016-05-08T13:25:31Z</time>
      </trkpt>
      <trkpt lat="47.57788" lon="4.68802">
        <ele>412.54</ele>
        <time>2016-05-08T13:25:45Z</time>
      </trkpt>
      <trkpt lat="47.57795" lon="4.68776">
        <ele>413.02</ele>
        <time>2016-05-08T13:26:01Z</time>
      </trkpt>
      <trkpt lat="47.57797" lon="4.68756">
        <ele>413.02</ele>
        <time>2016-05-08T13:26:13Z</time>
      </trkpt>
      <trkpt lat="47.57799" lon="4.68751">
        <ele>413.5</ele>
        <time>2016-05-08T13:26:16Z</time>
      </trkpt>
      <trkpt lat="47.57799" lon="4.68746">
        <ele>413.5</ele>
        <time>2016-05-08T13:26:19Z</time>
      </trkpt>
      <trkpt lat="47.57804" lon="4.68728">
        <ele>413.98</ele>
        <time>2016-05-08T13:26:32Z</time>
      </trkpt>
      <trkpt lat="47.57803" lon="4.68728">
        <ele>414.47</ele>
        <time>2016-05-08T13:26:40Z</time>
      </trkpt>
      <trkpt lat="47.57804" lon="4.6873">
        <ele>414.47</ele>
        <time>2016-05-08T13:26:48Z</time>
      </trkpt>
      <trkpt lat="47.57809" lon="4.68705">
        <ele>414.95</ele>
        <time>2016-05-08T13:27:02Z</time>
      </trkpt>
      <trkpt lat="47.57813" lon="4.68684">
        <ele>415.91</ele>
        <time>2016-05-08T13:27:15Z</time>
      </trkpt>
      <trkpt lat="47.57814" lon="4.68677">
        <ele>415.91</ele>
        <time>2016-05-08T13:27:20Z</time>
      </trkpt>
      <trkpt lat="47.57816" lon="4.6867">
        <ele>415.91</ele>
        <time>2016-05-08T13:27:24Z</time>
      </trkpt>
      <trkpt lat="47.57819" lon="4.68659">
        <ele>416.39</ele>
        <time>2016-05-08T13:27:31Z</time>
      </trkpt>
      <trkpt lat="47.57821" lon="4.68648">
        <ele>416.39</ele>
        <time>2016-05-08T13:27:38Z</time>
      </trkpt>
      <trkpt lat="47.57827" lon="4.68622">
        <ele>417.35</ele>
        <time>2016-05-08T13:27:53Z</time>
      </trkpt>
      <trkpt lat="47.57833" lon="4.68596">
        <ele>417.83</ele>
        <time>2016-05-08T13:28:09Z</time>
      </trkpt>
      <trkpt lat="47.57839" lon="4.68567">
        <ele>418.79</ele>
        <time>2016-05-08T13:28:26Z</time>
      </trkpt>
      <trkpt lat="47.57839" lon="4.68566">
        <ele>418.79</ele>
        <time>2016-05-08T13:28:27Z</time>
      </trkpt>
      <trkpt lat="47.57845" lon="4.68537">
        <ele>420.23</ele>
        <time>2016-05-08T13:28:44Z</time>
      </trkpt>
      <trkpt lat="47.5785" lon="4.68508">
        <ele>420.71</ele>
        <time>2016-05-08T13:28:59Z</time>
      </trkpt>
      <trkpt lat="47.57855" lon="4.68488">
        <ele>420.71</ele>
        <time>2016-05-08T13:29:11Z</time>
      </trkpt>
      <trkpt lat="47.57859" lon="4.68468">
        <ele>421.68</ele>
        <time>2016-05-08T13:29:22Z</time>
      </trkpt>
      <trkpt lat="47.57864" lon="4.68449">
        <ele>422.16</ele>
        <time>2016-05-08T13:29:33Z</time>
      </trkpt>
      <trkpt lat="47.57868" lon="4.68433">
        <ele>422.64</ele>
        <time>2016-05-08T13:29:42Z</time>
      </trkpt>
      <trkpt lat="47.57871" lon="4.68412">
        <ele>423.6</ele>
        <time>2016-05-08T13:29:55Z</time>
      </trkpt>
      <trkpt lat="47.5787" lon="4.68408">
        <ele>424.08</ele>
        <time>2016-05-08T13:30:06Z</time>
      </trkpt>
      <trkpt lat="47.57868" lon="4.68407">
        <ele>424.08</ele>
        <time>2016-05-08T13:30:23Z</time>
      </trkpt>
      <trkpt lat="47.57869" lon="4.68408">
        <ele>424.08</ele>
        <time>2016-05-08T13:30:43Z</time>
      </trkpt>
      <trkpt lat="47.57869" lon="4.68404">
        <ele>424.08</ele>
        <time>2016-05-08T13:30:55Z</time>
      </trkpt>
      <trkpt lat="47.57871" lon="4.68399">
        <ele>424.56</ele>
        <time>2016-05-08T13:30:58Z</time>
      </trkpt>
      <trkpt lat="47.57871" lon="4.68394">
        <ele>424.56</ele>
        <time>2016-05-08T13:31:01Z</time>
      </trkpt>
      <trkpt lat="47.57872" lon="4.68391">
        <ele>425.04</ele>
        <time>2016-05-08T13:31:03Z</time>
      </trkpt>
      <trkpt lat="47.57875" lon="4.68385">
        <ele>424.56</ele>
        <time>2016-05-08T13:31:09Z</time>
      </trkpt>
      <trkpt lat="47.57871" lon="4.68365">
        <ele>425.52</ele>
        <time>2016-05-08T13:31:24Z</time>
      </trkpt>
      <trkpt lat="47.57864" lon="4.68351">
        <ele>426</ele>
        <time>2016-05-08T13:31:38Z</time>
      </trkpt>
      <trkpt lat="47.57854" lon="4.6834">
        <ele>426.96</ele>
        <time>2016-05-08T13:31:51Z</time>
      </trkpt>
      <trkpt lat="47.57849" lon="4.6833">
        <ele>426.96</ele>
        <time>2016-05-08T13:32:00Z</time>
      </trkpt>
      <trkpt lat="47.57836" lon="4.68315">
        <ele>427.92</ele>
        <time>2016-05-08T13:32:18Z</time>
      </trkpt>
      <trkpt lat="47.57833" lon="4.68312">
        <ele>428.4</ele>
        <time>2016-05-08T13:32:22Z</time>
      </trkpt>
      <trkpt lat="47.57823" lon="4.683">
        <ele>428.89</ele>
        <time>2016-05-08T13:32:36Z</time>
      </trkpt>
      <trkpt lat="47.57814" lon="4.68289">
        <ele>429.37</ele>
        <time>2016-05-08T13:32:49Z</time>
      </trkpt>
      <trkpt lat="47.57814" lon="4.68289">
        <ele>429.37</ele>
        <time>2016-05-08T13:32:50Z</time>
      </trkpt>
      <trkpt lat="47.57802" lon="4.68279">
        <ele>429.85</ele>
        <time>2016-05-08T13:33:07Z</time>
      </trkpt>
      <trkpt lat="47.57791" lon="4.68267">
        <ele>430.33</ele>
        <time>2016-05-08T13:33:22Z</time>
      </trkpt>
      <trkpt lat="47.5778" lon="4.68256">
        <ele>430.33</ele>
        <time>2016-05-08T13:33:37Z</time>
      </trkpt>
      <trkpt lat="47.57767" lon="4.68246">
        <ele>430.33</ele>
        <time>2016-05-08T13:33:53Z</time>
      </trkpt>
      <trkpt lat="47.57755" lon="4.68232">
        <ele>430.33</ele>
        <time>2016-05-08T13:34:07Z</time>
      </trkpt>
      <trkpt lat="47.57741" lon="4.68214">
        <ele>430.81</ele>
        <time>2016-05-08T13:34:22Z</time>
      </trkpt>
      <trkpt lat="47.57733" lon="4.68205">
        <ele>431.29</ele>
        <time>2016-05-08T13:34:35Z</time>
      </trkpt>
      <trkpt lat="47.57724" lon="4.68192">
        <ele>430.81</ele>
        <time>2016-05-08T13:34:49Z</time>
      </trkpt>
      <trkpt lat="47.57714" lon="4.68182">
        <ele>431.29</ele>
        <time>2016-05-08T13:35:01Z</time>
      </trkpt>
      <trkpt lat="47.57718" lon="4.68182">
        <ele>431.29</ele>
        <time>2016-05-08T13:35:17Z</time>
      </trkpt>
      <trkpt lat="47.57719" lon="4.68185">
        <ele>431.29</ele>
        <time>2016-05-08T13:35:34Z</time>
      </trkpt>
      <trkpt lat="47.57719" lon="4.68187">
        <ele>431.29</ele>
        <time>2016-05-08T13:35:48Z</time>
      </trkpt>
      <trkpt lat="47.5772" lon="4.6819">
        <ele>431.29</ele>
        <time>2016-05-08T13:36:03Z</time>
      </trkpt>
      <trkpt lat="47.5772" lon="4.68192">
        <ele>430.81</ele>
        <time>2016-05-08T13:36:17Z</time>
      </trkpt>
      <trkpt lat="47.57721" lon="4.68191">
        <ele>430.81</ele>
        <time>2016-05-08T13:36:38Z</time>
      </trkpt>
      <trkpt lat="47.5772" lon="4.68191">
        <ele>430.81</ele>
        <time>2016-05-08T13:36:57Z</time>
      </trkpt>
      <trkpt lat="47.57721" lon="4.68193">
        <ele>430.33</ele>
        <time>2016-05-08T13:37:13Z</time>
      </trkpt>
      <trkpt lat="47.57723" lon="4.68194">
        <ele>430.81</ele>
        <time>2016-05-08T13:37:31Z</time>
      </trkpt>
      <trkpt lat="47.57724" lon="4.68196">
        <ele>430.33</ele>
        <time>2016-05-08T13:37:46Z</time>
      </trkpt>
      <trkpt lat="47.57723" lon="4.68188">
        <ele>430.81</ele>
        <time>2016-05-08T13:38:05Z</time>
      </trkpt>
      <trkpt lat="47.57723" lon="4.68188">
        <ele>430.81</ele>
        <time>2016-05-08T13:38:26Z</time>
      </trkpt>
      <trkpt lat="47.57723" lon="4.68188">
        <ele>430.81</ele>
        <time>2016-05-08T13:38:50Z</time>
      </trkpt>
      <trkpt lat="47.57723" lon="4.68188">
        <ele>431.29</ele>
        <time>2016-05-08T13:39:13Z</time>
      </trkpt>
      <trkpt lat="47.57723" lon="4.68188">
        <ele>430.81</ele>
        <time>2016-05-08T13:39:37Z</time>
      </trkpt>
      <trkpt lat="47.57723" lon="4.68188">
        <ele>431.29</ele>
        <time>2016-05-08T13:39:58Z</time>
      </trkpt>
      <trkpt lat="47.57723" lon="4.68189">
        <ele>431.29</ele>
        <time>2016-05-08T13:40:22Z</time>
      </trkpt>
      <trkpt lat="47.57722" lon="4.6819">
        <ele>431.29</ele>
        <time>2016-05-08T13:40:38Z</time>
      </trkpt>
      <trkpt lat="47.57721" lon="4.6819">
        <ele>431.29</ele>
        <time>2016-05-08T13:40:54Z</time>
      </trkpt>
      <trkpt lat="47.5772" lon="4.68192">
        <ele>431.77</ele>
        <time>2016-05-08T13:41:12Z</time>
      </trkpt>
      <trkpt lat="47.57715" lon="4.68184">
        <ele>431.77</ele>
        <time>2016-05-08T13:41:26Z</time>
      </trkpt>
      <trkpt lat="47.57704" lon="4.68168">
        <ele>431.29</ele>
        <time>2016-05-08T13:41:40Z</time>
      </trkpt>
      <trkpt lat="47.57693" lon="4.68151">
        <ele>431.29</ele>
        <time>2016-05-08T13:41:54Z</time>
      </trkpt>
      <trkpt lat="47.57682" lon="4.68127">
        <ele>430.81</ele>
        <time>2016-05-08T13:42:08Z</time>
      </trkpt>
      <trkpt lat="47.57679" lon="4.68114">
        <ele>430.81</ele>
        <time>2016-05-08T13:42:17Z</time>
      </trkpt>
      <trkpt lat="47.57677" lon="4.68097">
        <ele>429.85</ele>
        <time>2016-05-08T13:42:31Z</time>
      </trkpt>
      <trkpt lat="47.57669" lon="4.68078">
        <ele>429.85</ele>
        <time>2016-05-08T13:42:43Z</time>
      </trkpt>
      <trkpt lat="47.57662" lon="4.68061">
        <ele>429.37</ele>
        <time>2016-05-08T13:42:56Z</time>
      </trkpt>
      <trkpt lat="47.57656" lon="4.68039">
        <ele>428.89</ele>
        <time>2016-05-08T13:43:09Z</time>
      </trkpt>
      <trkpt lat="47.57656" lon="4.68038">
        <ele>428.89</ele>
        <time>2016-05-08T13:43:10Z</time>
      </trkpt>
      <trkpt lat="47.57646" lon="4.68012">
        <ele>428.4</ele>
        <time>2016-05-08T13:43:28Z</time>
      </trkpt>
      <trkpt lat="47.57637" lon="4.67997">
        <ele>427.92</ele>
        <time>2016-05-08T13:43:40Z</time>
      </trkpt>
      <trkpt lat="47.57631" lon="4.67992">
        <ele>427.92</ele>
        <time>2016-05-08T13:43:45Z</time>
      </trkpt>
      <trkpt lat="47.57622" lon="4.67985">
        <ele>428.4</ele>
        <time>2016-05-08T13:43:53Z</time>
      </trkpt>
      <trkpt lat="47.57614" lon="4.67975">
        <ele>428.4</ele>
        <time>2016-05-08T13:44:03Z</time>
      </trkpt>
      <trkpt lat="47.57606" lon="4.67965">
        <ele>427.92</ele>
        <time>2016-05-08T13:44:17Z</time>
      </trkpt>
      <trkpt lat="47.57598" lon="4.67946">
        <ele>427.44</ele>
        <time>2016-05-08T13:44:31Z</time>
      </trkpt>
      <trkpt lat="47.57594" lon="4.67936">
        <ele>426.96</ele>
        <time>2016-05-08T13:44:38Z</time>
      </trkpt>
      <trkpt lat="47.57592" lon="4.6793">
        <ele>426.96</ele>
        <time>2016-05-08T13:44:41Z</time>
      </trkpt>
      <trkpt lat="47.57589" lon="4.6792">
        <ele>426.48</ele>
        <time>2016-05-08T13:44:48Z</time>
      </trkpt>
      <trkpt lat="47.57588" lon="4.67914">
        <ele>426</ele>
        <time>2016-05-08T13:44:52Z</time>
      </trkpt>
      <trkpt lat="47.57584" lon="4.67892">
        <ele>425.52</ele>
        <time>2016-05-08T13:45:06Z</time>
      </trkpt>
      <trkpt lat="47.57584" lon="4.67872">
        <ele>425.04</ele>
        <time>2016-05-08T13:45:18Z</time>
      </trkpt>
      <trkpt lat="47.57585" lon="4.67864">
        <ele>425.52</ele>
        <time>2016-05-08T13:45:24Z</time>
      </trkpt>
      <trkpt lat="47.57585" lon="4.67858">
        <ele>424.56</ele>
        <time>2016-05-08T13:45:28Z</time>
      </trkpt>
      <trkpt lat="47.57585" lon="4.67843">
        <ele>424.56</ele>
        <time>2016-05-08T13:45:36Z</time>
      </trkpt>
      <trkpt lat="47.57583" lon="4.67825">
        <ele>424.08</ele>
        <time>2016-05-08T13:45:48Z</time>
      </trkpt>
      <trkpt lat="47.57583" lon="4.67804">
        <ele>423.6</ele>
        <time>2016-05-08T13:46:01Z</time>
      </trkpt>
      <trkpt lat="47.57583" lon="4.67802">
        <ele>423.12</ele>
        <time>2016-05-08T13:46:02Z</time>
      </trkpt>
      <trkpt lat="47.57582" lon="4.67789">
        <ele>423.6</ele>
        <time>2016-05-08T13:46:08Z</time>
      </trkpt>
      <trkpt lat="47.57582" lon="4.67786">
        <ele>415.43</ele>
        <time>2016-05-08T13:46:10Z</time>
      </trkpt>
      <trkpt lat="47.57582" lon="4.67784">
        <ele>426</ele>
        <time>2016-05-08T13:46:11Z</time>
      </trkpt>
      <trkpt lat="47.57581" lon="4.67782">
        <ele>416.39</ele>
        <time>2016-05-08T13:46:12Z</time>
      </trkpt>
      <trkpt lat="47.57581" lon="4.6778">
        <ele>422.16</ele>
        <time>2016-05-08T13:46:13Z</time>
      </trkpt>
      <trkpt lat="47.5758" lon="4.67777">
        <ele>428.89</ele>
        <time>2016-05-08T13:46:15Z</time>
      </trkpt>
      <trkpt lat="47.5758" lon="4.67774">
        <ele>427.44</ele>
        <time>2016-05-08T13:46:16Z</time>
      </trkpt>
      <trkpt lat="47.5758" lon="4.67773">
        <ele>423.6</ele>
        <time>2016-05-08T13:46:17Z</time>
      </trkpt>
      <trkpt lat="47.5758" lon="4.67771">
        <ele>426.48</ele>
        <time>2016-05-08T13:46:18Z</time>
      </trkpt>
      <trkpt lat="47.57579" lon="4.67769">
        <ele>420.23</ele>
        <time>2016-05-08T13:46:19Z</time>
      </trkpt>
      <trkpt lat="47.57579" lon="4.67767">
        <ele>425.04</ele>
        <time>2016-05-08T13:46:20Z</time>
      </trkpt>
      <trkpt lat="47.57579" lon="4.67765">
        <ele>417.35</ele>
        <time>2016-05-08T13:46:21Z</time>
      </trkpt>
      <trkpt lat="47.57579" lon="4.67763">
        <ele>427.44</ele>
        <time>2016-05-08T13:46:22Z</time>
      </trkpt>
      <trkpt lat="47.57579" lon="4.67761">
        <ele>423.6</ele>
        <time>2016-05-08T13:46:23Z</time>
      </trkpt>
      <trkpt lat="47.57576" lon="4.67733">
        <ele>422.16</ele>
        <time>2016-05-08T13:46:40Z</time>
      </trkpt>
      <trkpt lat="47.57573" lon="4.67697">
        <ele>422.16</ele>
        <time>2016-05-08T13:47:02Z</time>
      </trkpt>
      <trkpt lat="47.57572" lon="4.67682">
        <ele>418.31</ele>
        <time>2016-05-08T13:47:10Z</time>
      </trkpt>
      <trkpt lat="47.57572" lon="4.6768">
        <ele>422.64</ele>
        <time>2016-05-08T13:47:11Z</time>
      </trkpt>
      <trkpt lat="47.5757" lon="4.6766">
        <ele>426.96</ele>
        <time>2016-05-08T13:47:23Z</time>
      </trkpt>
      <trkpt lat="47.5757" lon="4.67658">
        <ele>422.16</ele>
        <time>2016-05-08T13:47:24Z</time>
      </trkpt>
      <trkpt lat="47.57568" lon="4.67629">
        <ele>425.52</ele>
        <time>2016-05-08T13:47:40Z</time>
      </trkpt>
      <trkpt lat="47.57568" lon="4.67626">
        <ele>422.16</ele>
        <time>2016-05-08T13:47:42Z</time>
      </trkpt>
      <trkpt lat="47.57565" lon="4.67598">
        <ele>422.16</ele>
        <time>2016-05-08T13:47:58Z</time>
      </trkpt>
      <trkpt lat="47.57556" lon="4.67584">
        <ele>422.16</ele>
        <time>2016-05-08T13:48:12Z</time>
      </trkpt>
      <trkpt lat="47.57547" lon="4.67576">
        <ele>422.16</ele>
        <time>2016-05-08T13:48:23Z</time>
      </trkpt>
      <trkpt lat="47.57534" lon="4.67566">
        <ele>422.64</ele>
        <time>2016-05-08T13:48:36Z</time>
      </trkpt>
      <trkpt lat="47.5753" lon="4.67564">
        <ele>422.64</ele>
        <time>2016-05-08T13:48:41Z</time>
      </trkpt>
      <trkpt lat="47.57527" lon="4.67562">
        <ele>423.12</ele>
        <time>2016-05-08T13:48:44Z</time>
      </trkpt>
      <trkpt lat="47.57518" lon="4.67553">
        <ele>423.6</ele>
        <time>2016-05-08T13:48:55Z</time>
      </trkpt>
      <trkpt lat="47.57517" lon="4.67552">
        <ele>423.12</ele>
        <time>2016-05-08T13:48:56Z</time>
      </trkpt>
      <trkpt lat="47.57515" lon="4.67551">
        <ele>424.08</ele>
        <time>2016-05-08T13:48:59Z</time>
      </trkpt>
      <trkpt lat="47.57506" lon="4.67544">
        <ele>423.6</ele>
        <time>2016-05-08T13:49:08Z</time>
      </trkpt>
      <trkpt lat="47.57493" lon="4.67534">
        <ele>424.56</ele>
        <time>2016-05-08T13:49:23Z</time>
      </trkpt>
      <trkpt lat="47.57487" lon="4.6753">
        <ele>425.04</ele>
        <time>2016-05-08T13:49:29Z</time>
      </trkpt>
      <trkpt lat="47.57476" lon="4.6752">
        <ele>425.04</ele>
        <time>2016-05-08T13:49:42Z</time>
      </trkpt>
      <trkpt lat="47.57466" lon="4.67513">
        <ele>425.52</ele>
        <time>2016-05-08T13:49:54Z</time>
      </trkpt>
      <trkpt lat="47.57455" lon="4.67503">
        <ele>426.48</ele>
        <time>2016-05-08T13:50:06Z</time>
      </trkpt>
      <trkpt lat="47.57453" lon="4.67503">
        <ele>426</ele>
        <time>2016-05-08T13:50:08Z</time>
      </trkpt>
      <trkpt lat="47.57451" lon="4.67502">
        <ele>426.48</ele>
        <time>2016-05-08T13:50:10Z</time>
      </trkpt>
      <trkpt lat="47.57438" lon="4.6749">
        <ele>426.48</ele>
        <time>2016-05-08T13:50:24Z</time>
      </trkpt>
      <trkpt lat="47.57426" lon="4.67481">
        <ele>426.96</ele>
        <time>2016-05-08T13:50:37Z</time>
      </trkpt>
      <trkpt lat="47.57415" lon="4.67472">
        <ele>427.92</ele>
        <time>2016-05-08T13:50:49Z</time>
      </trkpt>
      <trkpt lat="47.57413" lon="4.67471">
        <ele>427.92</ele>
        <time>2016-05-08T13:50:51Z</time>
      </trkpt>
      <trkpt lat="47.574" lon="4.67456">
        <ele>428.89</ele>
        <time>2016-05-08T13:51:06Z</time>
      </trkpt>
      <trkpt lat="47.57393" lon="4.67447">
        <ele>428.89</ele>
        <time>2016-05-08T13:51:15Z</time>
      </trkpt>
      <trkpt lat="47.57392" lon="4.67444">
        <ele>428.89</ele>
        <time>2016-05-08T13:51:17Z</time>
      </trkpt>
      <trkpt lat="47.57389" lon="4.67439">
        <ele>428.4</ele>
        <time>2016-05-08T13:51:21Z</time>
      </trkpt>
      <trkpt lat="47.57382" lon="4.67428">
        <ele>428.89</ele>
        <time>2016-05-08T13:51:31Z</time>
      </trkpt>
      <trkpt lat="47.57373" lon="4.67411">
        <ele>428.89</ele>
        <time>2016-05-08T13:51:44Z</time>
      </trkpt>
      <trkpt lat="47.57369" lon="4.67404">
        <ele>428.89</ele>
        <time>2016-05-08T13:51:50Z</time>
      </trkpt>
      <trkpt lat="47.57366" lon="4.67399">
        <ele>428.89</ele>
        <time>2016-05-08T13:51:54Z</time>
      </trkpt>
      <trkpt lat="47.57359" lon="4.67383">
        <ele>429.37</ele>
        <time>2016-05-08T13:52:06Z</time>
      </trkpt>
      <trkpt lat="47.57355" lon="4.67378">
        <ele>428.89</ele>
        <time>2016-05-08T13:52:11Z</time>
      </trkpt>
      <trkpt lat="47.57345" lon="4.67361">
        <ele>428.89</ele>
        <time>2016-05-08T13:52:24Z</time>
      </trkpt>
      <trkpt lat="47.57343" lon="4.67357">
        <ele>428.89</ele>
        <time>2016-05-08T13:52:27Z</time>
      </trkpt>
      <trkpt lat="47.57335" lon="4.67337">
        <ele>428.4</ele>
        <time>2016-05-08T13:52:39Z</time>
      </trkpt>
      <trkpt lat="47.57326" lon="4.67318">
        <ele>427.92</ele>
        <time>2016-05-08T13:52:53Z</time>
      </trkpt>
      <trkpt lat="47.57323" lon="4.67313">
        <ele>427.92</ele>
        <time>2016-05-08T13:52:57Z</time>
      </trkpt>
      <trkpt lat="47.57315" lon="4.67294">
        <ele>427.92</ele>
        <time>2016-05-08T13:53:10Z</time>
      </trkpt>
      <trkpt lat="47.57314" lon="4.67292">
        <ele>427.92</ele>
        <time>2016-05-08T13:53:11Z</time>
      </trkpt>
      <trkpt lat="47.57305" lon="4.67271">
        <ele>427.92</ele>
        <time>2016-05-08T13:53:26Z</time>
      </trkpt>
      <trkpt lat="47.57296" lon="4.67251">
        <ele>427.44</ele>
        <time>2016-05-08T13:53:40Z</time>
      </trkpt>
      <trkpt lat="47.57295" lon="4.67249">
        <ele>427.44</ele>
        <time>2016-05-08T13:53:41Z</time>
      </trkpt>
      <trkpt lat="47.57284" lon="4.67228">
        <ele>426.96</ele>
        <time>2016-05-08T13:53:56Z</time>
      </trkpt>
      <trkpt lat="47.57284" lon="4.67227">
        <ele>426.96</ele>
        <time>2016-05-08T13:53:57Z</time>
      </trkpt>
      <trkpt lat="47.57281" lon="4.6722">
        <ele>426.96</ele>
        <time>2016-05-08T13:54:02Z</time>
      </trkpt>
      <trkpt lat="47.57271" lon="4.67198">
        <ele>426.48</ele>
        <time>2016-05-08T13:54:17Z</time>
      </trkpt>
      <trkpt lat="47.57262" lon="4.67179">
        <ele>426</ele>
        <time>2016-05-08T13:54:31Z</time>
      </trkpt>
      <trkpt lat="47.57259" lon="4.67174">
        <ele>426</ele>
        <time>2016-05-08T13:54:35Z</time>
      </trkpt>
      <trkpt lat="47.57257" lon="4.67167">
        <ele>425.52</ele>
        <time>2016-05-08T13:54:47Z</time>
      </trkpt>
      <trkpt lat="47.57255" lon="4.67165">
        <ele>426</ele>
        <time>2016-05-08T13:54:51Z</time>
      </trkpt>
      <trkpt lat="47.57245" lon="4.67142">
        <ele>425.52</ele>
        <time>2016-05-08T13:55:06Z</time>
      </trkpt>
      <trkpt lat="47.57234" lon="4.67122">
        <ele>425.04</ele>
        <time>2016-05-08T13:55:21Z</time>
      </trkpt>
      <trkpt lat="47.57233" lon="4.67119">
        <ele>424.56</ele>
        <time>2016-05-08T13:55:23Z</time>
      </trkpt>
      <trkpt lat="47.57225" lon="4.67102">
        <ele>424.56</ele>
        <time>2016-05-08T13:55:35Z</time>
      </trkpt>
      <trkpt lat="47.57221" lon="4.67092">
        <ele>424.56</ele>
        <time>2016-05-08T13:55:41Z</time>
      </trkpt>
      <trkpt lat="47.5722" lon="4.67089">
        <ele>424.08</ele>
        <time>2016-05-08T13:55:43Z</time>
      </trkpt>
      <trkpt lat="47.57213" lon="4.67077">
        <ele>424.56</ele>
        <time>2016-05-08T13:55:53Z</time>
      </trkpt>
      <trkpt lat="47.57208" lon="4.67068">
        <ele>424.08</ele>
        <time>2016-05-08T13:55:59Z</time>
      </trkpt>
      <trkpt lat="47.57197" lon="4.67046">
        <ele>422.64</ele>
        <time>2016-05-08T13:56:14Z</time>
      </trkpt>
      <trkpt lat="47.57188" lon="4.67029">
        <ele>422.16</ele>
        <time>2016-05-08T13:56:27Z</time>
      </trkpt>
      <trkpt lat="47.57183" lon="4.67018">
        <ele>422.16</ele>
        <time>2016-05-08T13:56:36Z</time>
      </trkpt>
      <trkpt lat="47.57178" lon="4.67007">
        <ele>422.16</ele>
        <time>2016-05-08T13:56:44Z</time>
      </trkpt>
      <trkpt lat="47.57173" lon="4.66994">
        <ele>422.64</ele>
        <time>2016-05-08T13:56:53Z</time>
      </trkpt>
      <trkpt lat="47.57163" lon="4.66974">
        <ele>422.64</ele>
        <time>2016-05-08T13:57:08Z</time>
      </trkpt>
      <trkpt lat="47.57156" lon="4.66962">
        <ele>423.12</ele>
        <time>2016-05-08T13:57:17Z</time>
      </trkpt>
      <trkpt lat="47.5715" lon="4.6695">
        <ele>423.6</ele>
        <time>2016-05-08T13:57:26Z</time>
      </trkpt>
      <trkpt lat="47.57148" lon="4.66946">
        <ele>423.6</ele>
        <time>2016-05-08T13:57:29Z</time>
      </trkpt>
      <trkpt lat="47.57146" lon="4.6694">
        <ele>423.6</ele>
        <time>2016-05-08T13:57:34Z</time>
      </trkpt>
      <trkpt lat="47.57136" lon="4.66917">
        <ele>424.56</ele>
        <time>2016-05-08T13:57:50Z</time>
      </trkpt>
      <trkpt lat="47.57135" lon="4.66916">
        <ele>424.56</ele>
        <time>2016-05-08T13:57:51Z</time>
      </trkpt>
      <trkpt lat="47.57126" lon="4.66899">
        <ele>425.52</ele>
        <time>2016-05-08T13:58:04Z</time>
      </trkpt>
      <trkpt lat="47.57116" lon="4.66878">
        <ele>425.52</ele>
        <time>2016-05-08T13:58:20Z</time>
      </trkpt>
      <trkpt lat="47.57113" lon="4.66873">
        <ele>426</ele>
        <time>2016-05-08T13:58:23Z</time>
      </trkpt>
      <trkpt lat="47.57104" lon="4.66856">
        <ele>426.48</ele>
        <time>2016-05-08T13:58:37Z</time>
      </trkpt>
      <trkpt lat="47.57103" lon="4.66853">
        <ele>426.48</ele>
        <time>2016-05-08T13:58:39Z</time>
      </trkpt>
      <trkpt lat="47.57102" lon="4.66851">
        <ele>426</ele>
        <time>2016-05-08T13:58:41Z</time>
      </trkpt>
      <trkpt lat="47.571" lon="4.66848">
        <ele>426.48</ele>
        <time>2016-05-08T13:58:43Z</time>
      </trkpt>
      <trkpt lat="47.57089" lon="4.66825">
        <ele>426</ele>
        <time>2016-05-08T13:58:59Z</time>
      </trkpt>
      <trkpt lat="47.57088" lon="4.66819">
        <ele>426</ele>
        <time>2016-05-08T13:59:06Z</time>
      </trkpt>
      <trkpt lat="47.57084" lon="4.66811">
        <ele>426.48</ele>
        <time>2016-05-08T13:59:13Z</time>
      </trkpt>
      <trkpt lat="47.57078" lon="4.66795">
        <ele>426</ele>
        <time>2016-05-08T13:59:28Z</time>
      </trkpt>
      <trkpt lat="47.57078" lon="4.66795">
        <ele>426.96</ele>
        <time>2016-05-08T13:59:29Z</time>
      </trkpt>
      <trkpt lat="47.57073" lon="4.66785">
        <ele>426.96</ele>
        <time>2016-05-08T13:59:36Z</time>
      </trkpt>
      <trkpt lat="47.57063" lon="4.66763">
        <ele>427.44</ele>
        <time>2016-05-08T13:59:51Z</time>
      </trkpt>
      <trkpt lat="47.57054" lon="4.66743">
        <ele>426.96</ele>
        <time>2016-05-08T14:00:04Z</time>
      </trkpt>
      <trkpt lat="47.57048" lon="4.66733">
        <ele>426.96</ele>
        <time>2016-05-08T14:00:11Z</time>
      </trkpt>
      <trkpt lat="47.57037" lon="4.66707">
        <ele>426.48</ele>
        <time>2016-05-08T14:00:28Z</time>
      </trkpt>
      <trkpt lat="47.57027" lon="4.66685">
        <ele>426.48</ele>
        <time>2016-05-08T14:00:43Z</time>
      </trkpt>
      <trkpt lat="47.57025" lon="4.66681">
        <ele>426</ele>
        <time>2016-05-08T14:00:46Z</time>
      </trkpt>
      <trkpt lat="47.57016" lon="4.66662">
        <ele>424.56</ele>
        <time>2016-05-08T14:01:00Z</time>
      </trkpt>
      <trkpt lat="47.57007" lon="4.66643">
        <ele>424.56</ele>
        <time>2016-05-08T14:01:13Z</time>
      </trkpt>
      <trkpt lat="47.56998" lon="4.66625">
        <ele>424.08</ele>
        <time>2016-05-08T14:01:27Z</time>
      </trkpt>
      <trkpt lat="47.56996" lon="4.66621">
        <ele>423.12</ele>
        <time>2016-05-08T14:01:31Z</time>
      </trkpt>
      <trkpt lat="47.56988" lon="4.66604">
        <ele>423.12</ele>
        <time>2016-05-08T14:01:46Z</time>
      </trkpt>
      <trkpt lat="47.56987" lon="4.66604">
        <ele>423.12</ele>
        <time>2016-05-08T14:02:06Z</time>
      </trkpt>
      <trkpt lat="47.56987" lon="4.66604">
        <ele>423.12</ele>
        <time>2016-05-08T14:02:30Z</time>
      </trkpt>
      <trkpt lat="47.56988" lon="4.66604">
        <ele>423.12</ele>
        <time>2016-05-08T14:02:54Z</time>
      </trkpt>
      <trkpt lat="47.56987" lon="4.66604">
        <ele>423.12</ele>
        <time>2016-05-08T14:03:19Z</time>
      </trkpt>
      <trkpt lat="47.56987" lon="4.66604">
        <ele>423.12</ele>
        <time>2016-05-08T14:03:42Z</time>
      </trkpt>
      <trkpt lat="47.56987" lon="4.66605">
        <ele>423.12</ele>
        <time>2016-05-08T14:04:10Z</time>
      </trkpt>
      <trkpt lat="47.56988" lon="4.66606">
        <ele>423.12</ele>
        <time>2016-05-08T14:04:33Z</time>
      </trkpt>
      <trkpt lat="47.56988" lon="4.66606">
        <ele>422.64</ele>
        <time>2016-05-08T14:04:51Z</time>
      </trkpt>
      <trkpt lat="47.56988" lon="4.66606">
        <ele>422.64</ele>
        <time>2016-05-08T14:05:17Z</time>
      </trkpt>
      <trkpt lat="47.56988" lon="4.66606">
        <ele>423.12</ele>
        <time>2016-05-08T14:05:39Z</time>
      </trkpt>
      <trkpt lat="47.56988" lon="4.66605">
        <ele>423.12</ele>
        <time>2016-05-08T14:06:01Z</time>
      </trkpt>
      <trkpt lat="47.56988" lon="4.66604">
        <ele>423.12</ele>
        <time>2016-05-08T14:06:25Z</time>
      </trkpt>
      <trkpt lat="47.56988" lon="4.66604">
        <ele>423.12</ele>
        <time>2016-05-08T14:06:54Z</time>
      </trkpt>
      <trkpt lat="47.5699" lon="4.666">
        <ele>422.64</ele>
        <time>2016-05-08T14:07:16Z</time>
      </trkpt>
      <trkpt lat="47.5699" lon="4.6659">
        <ele>423.12</ele>
        <time>2016-05-08T14:07:23Z</time>
      </trkpt>
      <trkpt lat="47.56992" lon="4.66589">
        <ele>423.12</ele>
        <time>2016-05-08T14:07:25Z</time>
      </trkpt>
      <trkpt lat="47.57004" lon="4.66569">
        <ele>422.16</ele>
        <time>2016-05-08T14:07:42Z</time>
      </trkpt>
      <trkpt lat="47.57016" lon="4.66551">
        <ele>421.68</ele>
        <time>2016-05-08T14:07:56Z</time>
      </trkpt>
      <trkpt lat="47.57028" lon="4.66533">
        <ele>421.68</ele>
        <time>2016-05-08T14:08:11Z</time>
      </trkpt>
      <trkpt lat="47.5704" lon="4.66512">
        <ele>420.71</ele>
        <time>2016-05-08T14:08:28Z</time>
      </trkpt>
      <trkpt lat="47.57041" lon="4.66511">
        <ele>421.19</ele>
        <time>2016-05-08T14:08:29Z</time>
      </trkpt>
      <trkpt lat="47.57056" lon="4.66487">
        <ele>419.75</ele>
        <time>2016-05-08T14:08:47Z</time>
      </trkpt>
      <trkpt lat="47.57066" lon="4.6647">
        <ele>419.75</ele>
        <time>2016-05-08T14:09:00Z</time>
      </trkpt>
      <trkpt lat="47.57076" lon="4.66453">
        <ele>418.79</ele>
        <time>2016-05-08T14:09:12Z</time>
      </trkpt>
      <trkpt lat="47.57083" lon="4.66437">
        <ele>418.79</ele>
        <time>2016-05-08T14:09:23Z</time>
      </trkpt>
      <trkpt lat="47.57092" lon="4.66421">
        <ele>418.31</ele>
        <time>2016-05-08T14:09:34Z</time>
      </trkpt>
      <trkpt lat="47.57095" lon="4.66413">
        <ele>417.83</ele>
        <time>2016-05-08T14:09:39Z</time>
      </trkpt>
      <trkpt lat="47.57098" lon="4.66407">
        <ele>417.83</ele>
        <time>2016-05-08T14:09:43Z</time>
      </trkpt>
      <trkpt lat="47.57106" lon="4.66386">
        <ele>417.35</ele>
        <time>2016-05-08T14:09:57Z</time>
      </trkpt>
      <trkpt lat="47.57116" lon="4.6636">
        <ele>416.87</ele>
        <time>2016-05-08T14:10:13Z</time>
      </trkpt>
      <trkpt lat="47.57124" lon="4.66337">
        <ele>416.87</ele>
        <time>2016-05-08T14:10:27Z</time>
      </trkpt>
      <trkpt lat="47.5713" lon="4.66317">
        <ele>416.39</ele>
        <time>2016-05-08T14:10:40Z</time>
      </trkpt>
      <trkpt lat="47.57132" lon="4.66312">
        <ele>416.39</ele>
        <time>2016-05-08T14:10:43Z</time>
      </trkpt>
      <trkpt lat="47.57139" lon="4.66289">
        <ele>416.39</ele>
        <time>2016-05-08T14:10:58Z</time>
      </trkpt>
      <trkpt lat="47.5714" lon="4.66284">
        <ele>416.39</ele>
        <time>2016-05-08T14:11:01Z</time>
      </trkpt>
      <trkpt lat="47.57138" lon="4.66278">
        <ele>415.91</ele>
        <time>2016-05-08T14:11:05Z</time>
      </trkpt>
      <trkpt lat="47.57129" lon="4.66266">
        <ele>414.95</ele>
        <time>2016-05-08T14:11:19Z</time>
      </trkpt>
      <trkpt lat="47.57122" lon="4.66259">
        <ele>414.47</ele>
        <time>2016-05-08T14:11:31Z</time>
      </trkpt>
      <trkpt lat="47.57121" lon="4.66258">
        <ele>414.47</ele>
        <time>2016-05-08T14:11:32Z</time>
      </trkpt>
      <trkpt lat="47.57102" lon="4.66243">
        <ele>413.98</ele>
        <time>2016-05-08T14:11:50Z</time>
      </trkpt>
      <trkpt lat="47.57087" lon="4.66229">
        <ele>413.5</ele>
        <time>2016-05-08T14:12:06Z</time>
      </trkpt>
      <trkpt lat="47.57071" lon="4.66216">
        <ele>412.54</ele>
        <time>2016-05-08T14:12:22Z</time>
      </trkpt>
      <trkpt lat="47.57067" lon="4.66212">
        <ele>412.06</ele>
        <time>2016-05-08T14:12:26Z</time>
      </trkpt>
      <trkpt lat="47.57053" lon="4.66199">
        <ele>410.62</ele>
        <time>2016-05-08T14:12:41Z</time>
      </trkpt>
      <trkpt lat="47.57039" lon="4.66185">
        <ele>409.18</ele>
        <time>2016-05-08T14:12:56Z</time>
      </trkpt>
      <trkpt lat="47.57025" lon="4.6617">
        <ele>407.26</ele>
        <time>2016-05-08T14:13:12Z</time>
      </trkpt>
      <trkpt lat="47.57011" lon="4.66163">
        <ele>404.85</ele>
        <time>2016-05-08T14:13:27Z</time>
      </trkpt>
      <trkpt lat="47.56995" lon="4.66164">
        <ele>403.41</ele>
        <time>2016-05-08T14:13:43Z</time>
      </trkpt>
      <trkpt lat="47.56982" lon="4.66163">
        <ele>402.93</ele>
        <time>2016-05-08T14:13:56Z</time>
      </trkpt>
      <trkpt lat="47.56965" lon="4.66163">
        <ele>401.97</ele>
        <time>2016-05-08T14:14:11Z</time>
      </trkpt>
      <trkpt lat="47.56946" lon="4.66162">
        <ele>401.97</ele>
        <time>2016-05-08T14:14:27Z</time>
      </trkpt>
      <trkpt lat="47.56929" lon="4.66161">
        <ele>401.01</ele>
        <time>2016-05-08T14:14:41Z</time>
      </trkpt>
      <trkpt lat="47.56917" lon="4.6616">
        <ele>400.53</ele>
        <time>2016-05-08T14:14:53Z</time>
      </trkpt>
      <trkpt lat="47.56905" lon="4.66159">
        <ele>399.08</ele>
        <time>2016-05-08T14:15:03Z</time>
      </trkpt>
      <trkpt lat="47.56892" lon="4.6616">
        <ele>398.12</ele>
        <time>2016-05-08T14:15:14Z</time>
      </trkpt>
      <trkpt lat="47.56878" lon="4.66163">
        <ele>396.68</ele>
        <time>2016-05-08T14:15:28Z</time>
      </trkpt>
      <trkpt lat="47.56862" lon="4.66165">
        <ele>395.72</ele>
        <time>2016-05-08T14:15:42Z</time>
      </trkpt>
      <trkpt lat="47.56846" lon="4.66167">
        <ele>395.24</ele>
        <time>2016-05-08T14:15:55Z</time>
      </trkpt>
      <trkpt lat="47.56826" lon="4.66165">
        <ele>402.93</ele>
        <time>2016-05-08T14:16:10Z</time>
      </trkpt>
      <trkpt lat="47.56825" lon="4.66165">
        <ele>392.84</ele>
        <time>2016-05-08T14:16:11Z</time>
      </trkpt>
      <trkpt lat="47.56822" lon="4.66164">
        <ele>401.01</ele>
        <time>2016-05-08T14:16:14Z</time>
      </trkpt>
      <trkpt lat="47.56821" lon="4.66163">
        <ele>398.6</ele>
        <time>2016-05-08T14:16:15Z</time>
      </trkpt>
      <trkpt lat="47.56816" lon="4.66161">
        <ele>390.91</ele>
        <time>2016-05-08T14:16:20Z</time>
      </trkpt>
      <trkpt lat="47.56815" lon="4.66161">
        <ele>397.16</ele>
        <time>2016-05-08T14:16:21Z</time>
      </trkpt>
      <trkpt lat="47.56813" lon="4.6616">
        <ele>392.84</ele>
        <time>2016-05-08T14:16:23Z</time>
      </trkpt>
      <trkpt lat="47.5681" lon="4.66159">
        <ele>396.2</ele>
        <time>2016-05-08T14:16:27Z</time>
      </trkpt>
      <trkpt lat="47.56803" lon="4.66156">
        <ele>395.72</ele>
        <time>2016-05-08T14:16:35Z</time>
      </trkpt>
      <trkpt lat="47.56788" lon="4.66147">
        <ele>395.72</ele>
        <time>2016-05-08T14:16:50Z</time>
      </trkpt>
      <trkpt lat="47.56782" lon="4.6614">
        <ele>396.2</ele>
        <time>2016-05-08T14:17:02Z</time>
      </trkpt>
      <trkpt lat="47.56782" lon="4.66136">
        <ele>395.72</ele>
        <time>2016-05-08T14:17:22Z</time>
      </trkpt>
      <trkpt lat="47.56783" lon="4.66136">
        <ele>395.72</ele>
        <time>2016-05-08T14:17:39Z</time>
      </trkpt>
      <trkpt lat="47.56783" lon="4.66124">
        <ele>395.24</ele>
        <time>2016-05-08T14:17:52Z</time>
      </trkpt>
      <trkpt lat="47.56783" lon="4.6612">
        <ele>394.76</ele>
        <time>2016-05-08T14:18:20Z</time>
      </trkpt>
      <trkpt lat="47.56787" lon="4.66102">
        <ele>393.32</ele>
        <time>2016-05-08T14:18:32Z</time>
      </trkpt>
      <trkpt lat="47.56789" lon="4.66093">
        <ele>392.84</ele>
        <time>2016-05-08T14:18:48Z</time>
      </trkpt>
      <trkpt lat="47.56789" lon="4.66093">
        <ele>392.84</ele>
        <time>2016-05-08T14:19:13Z</time>
      </trkpt>
      <trkpt lat="47.56789" lon="4.66094">
        <ele>392.84</ele>
        <time>2016-05-08T14:19:30Z</time>
      </trkpt>
      <trkpt lat="47.56789" lon="4.66094">
        <ele>392.84</ele>
        <time>2016-05-08T14:19:54Z</time>
      </trkpt>
      <trkpt lat="47.56789" lon="4.66094">
        <ele>392.84</ele>
        <time>2016-05-08T14:20:14Z</time>
      </trkpt>
      <trkpt lat="47.56789" lon="4.66095">
        <ele>392.84</ele>
        <time>2016-05-08T14:20:34Z</time>
      </trkpt>
      <trkpt lat="47.5679" lon="4.66096">
        <ele>392.84</ele>
        <time>2016-05-08T14:20:50Z</time>
      </trkpt>
      <trkpt lat="47.56803" lon="4.66077">
        <ele>391.87</ele>
        <time>2016-05-08T14:21:06Z</time>
      </trkpt>
      <trkpt lat="47.5681" lon="4.66073">
        <ele>391.39</ele>
        <time>2016-05-08T14:21:15Z</time>
      </trkpt>
      <trkpt lat="47.56825" lon="4.66063">
        <ele>390.91</ele>
        <time>2016-05-08T14:21:30Z</time>
      </trkpt>
      <trkpt lat="47.56832" lon="4.66056">
        <ele>391.39</ele>
        <time>2016-05-08T14:21:43Z</time>
      </trkpt>
      <trkpt lat="47.56833" lon="4.66052">
        <ele>390.91</ele>
        <time>2016-05-08T14:21:49Z</time>
      </trkpt>
      <trkpt lat="47.56835" lon="4.66048">
        <ele>390.91</ele>
        <time>2016-05-08T14:21:52Z</time>
      </trkpt>
      <trkpt lat="47.56842" lon="4.66037">
        <ele>391.39</ele>
        <time>2016-05-08T14:22:01Z</time>
      </trkpt>
      <trkpt lat="47.56856" lon="4.6602">
        <ele>390.91</ele>
        <time>2016-05-08T14:22:17Z</time>
      </trkpt>
      <trkpt lat="47.5687" lon="4.66006">
        <ele>389.95</ele>
        <time>2016-05-08T14:22:32Z</time>
      </trkpt>
      <trkpt lat="47.56874" lon="4.66005">
        <ele>389.95</ele>
        <time>2016-05-08T14:22:36Z</time>
      </trkpt>
      <trkpt lat="47.56887" lon="4.65995">
        <ele>389.47</ele>
        <time>2016-05-08T14:22:50Z</time>
      </trkpt>
      <trkpt lat="47.56898" lon="4.65985">
        <ele>389.47</ele>
        <time>2016-05-08T14:23:02Z</time>
      </trkpt>
      <trkpt lat="47.56912" lon="4.65976">
        <ele>389.47</ele>
        <time>2016-05-08T14:23:15Z</time>
      </trkpt>
      <trkpt lat="47.56927" lon="4.65964">
        <ele>389.95</ele>
        <time>2016-05-08T14:23:30Z</time>
      </trkpt>
      <trkpt lat="47.56935" lon="4.65958">
        <ele>389.95</ele>
        <time>2016-05-08T14:23:38Z</time>
      </trkpt>
      <trkpt lat="47.56949" lon="4.65945">
        <ele>389.47</ele>
        <time>2016-05-08T14:23:52Z</time>
      </trkpt>
      <trkpt lat="47.56959" lon="4.65928">
        <ele>389.47</ele>
        <time>2016-05-08T14:24:07Z</time>
      </trkpt>
      <trkpt lat="47.56967" lon="4.65915">
        <ele>389.47</ele>
        <time>2016-05-08T14:24:17Z</time>
      </trkpt>
      <trkpt lat="47.56976" lon="4.65899">
        <ele>389.47</ele>
        <time>2016-05-08T14:24:28Z</time>
      </trkpt>
      <trkpt lat="47.56988" lon="4.65882">
        <ele>389.47</ele>
        <time>2016-05-08T14:24:41Z</time>
      </trkpt>
      <trkpt lat="47.56999" lon="4.65866">
        <ele>388.99</ele>
        <time>2016-05-08T14:24:53Z</time>
      </trkpt>
      <trkpt lat="47.57009" lon="4.6585">
        <ele>388.51</ele>
        <time>2016-05-08T14:25:06Z</time>
      </trkpt>
      <trkpt lat="47.57021" lon="4.65827">
        <ele>388.51</ele>
        <time>2016-05-08T14:25:22Z</time>
      </trkpt>
      <trkpt lat="47.57033" lon="4.65811">
        <ele>388.03</ele>
        <time>2016-05-08T14:25:36Z</time>
      </trkpt>
      <trkpt lat="47.57041" lon="4.658">
        <ele>388.99</ele>
        <time>2016-05-08T14:25:47Z</time>
      </trkpt>
      <trkpt lat="47.57046" lon="4.65793">
        <ele>388.03</ele>
        <time>2016-05-08T14:25:53Z</time>
      </trkpt>
      <trkpt lat="47.57057" lon="4.65777">
        <ele>388.51</ele>
        <time>2016-05-08T14:26:07Z</time>
      </trkpt>
      <trkpt lat="47.57064" lon="4.65768">
        <ele>388.51</ele>
        <time>2016-05-08T14:26:17Z</time>
      </trkpt>
      <trkpt lat="47.57069" lon="4.6576">
        <ele>388.51</ele>
        <time>2016-05-08T14:26:23Z</time>
      </trkpt>
      <trkpt lat="47.5708" lon="4.65743">
        <ele>388.51</ele>
        <time>2016-05-08T14:26:37Z</time>
      </trkpt>
      <trkpt lat="47.57089" lon="4.65727">
        <ele>388.51</ele>
        <time>2016-05-08T14:26:50Z</time>
      </trkpt>
      <trkpt lat="47.571" lon="4.6571">
        <ele>389.47</ele>
        <time>2016-05-08T14:27:05Z</time>
      </trkpt>
      <trkpt lat="47.57112" lon="4.657">
        <ele>389.95</ele>
        <time>2016-05-08T14:27:17Z</time>
      </trkpt>
      <trkpt lat="47.57121" lon="4.65687">
        <ele>390.43</ele>
        <time>2016-05-08T14:27:30Z</time>
      </trkpt>
      <trkpt lat="47.57131" lon="4.6567">
        <ele>390.43</ele>
        <time>2016-05-08T14:27:43Z</time>
      </trkpt>
      <trkpt lat="47.5714" lon="4.65653">
        <ele>390.91</ele>
        <time>2016-05-08T14:27:55Z</time>
      </trkpt>
      <trkpt lat="47.57145" lon="4.6564">
        <ele>391.39</ele>
        <time>2016-05-08T14:28:07Z</time>
      </trkpt>
      <trkpt lat="47.57154" lon="4.65623">
        <ele>391.39</ele>
        <time>2016-05-08T14:28:21Z</time>
      </trkpt>
      <trkpt lat="47.5716" lon="4.65605">
        <ele>390.43</ele>
        <time>2016-05-08T14:28:34Z</time>
      </trkpt>
      <trkpt lat="47.57167" lon="4.65589">
        <ele>390.91</ele>
        <time>2016-05-08T14:28:46Z</time>
      </trkpt>
      <trkpt lat="47.57178" lon="4.65573">
        <ele>389.95</ele>
        <time>2016-05-08T14:29:01Z</time>
      </trkpt>
      <trkpt lat="47.57187" lon="4.65557">
        <ele>389.47</ele>
        <time>2016-05-08T14:29:15Z</time>
      </trkpt>
      <trkpt lat="47.57196" lon="4.65538">
        <ele>388.51</ele>
        <time>2016-05-08T14:29:29Z</time>
      </trkpt>
      <trkpt lat="47.57205" lon="4.6552">
        <ele>388.03</ele>
        <time>2016-05-08T14:29:43Z</time>
      </trkpt>
      <trkpt lat="47.57212" lon="4.6551">
        <ele>387.07</ele>
        <time>2016-05-08T14:29:53Z</time>
      </trkpt>
      <trkpt lat="47.57221" lon="4.65491">
        <ele>388.03</ele>
        <time>2016-05-08T14:30:07Z</time>
      </trkpt>
      <trkpt lat="47.57229" lon="4.65473">
        <ele>387.07</ele>
        <time>2016-05-08T14:30:21Z</time>
      </trkpt>
      <trkpt lat="47.57239" lon="4.65455">
        <ele>386.11</ele>
        <time>2016-05-08T14:30:34Z</time>
      </trkpt>
      <trkpt lat="47.57248" lon="4.65438">
        <ele>385.63</ele>
        <time>2016-05-08T14:30:46Z</time>
      </trkpt>
      <trkpt lat="47.57256" lon="4.65421">
        <ele>385.63</ele>
        <time>2016-05-08T14:30:59Z</time>
      </trkpt>
      <trkpt lat="47.57266" lon="4.65402">
        <ele>385.63</ele>
        <time>2016-05-08T14:31:14Z</time>
      </trkpt>
      <trkpt lat="47.57271" lon="4.65394">
        <ele>385.15</ele>
        <time>2016-05-08T14:31:21Z</time>
      </trkpt>
      <trkpt lat="47.57281" lon="4.65374">
        <ele>385.15</ele>
        <time>2016-05-08T14:31:36Z</time>
      </trkpt>
      <trkpt lat="47.57285" lon="4.65368">
        <ele>384.66</ele>
        <time>2016-05-08T14:31:41Z</time>
      </trkpt>
      <trkpt lat="47.57288" lon="4.6536">
        <ele>384.66</ele>
        <time>2016-05-08T14:31:47Z</time>
      </trkpt>
      <trkpt lat="47.57298" lon="4.65343">
        <ele>384.66</ele>
        <time>2016-05-08T14:32:01Z</time>
      </trkpt>
      <trkpt lat="47.573" lon="4.65338">
        <ele>385.15</ele>
        <time>2016-05-08T14:32:05Z</time>
      </trkpt>
      <trkpt lat="47.57303" lon="4.65333">
        <ele>384.66</ele>
        <time>2016-05-08T14:32:09Z</time>
      </trkpt>
      <trkpt lat="47.57308" lon="4.65324">
        <ele>384.18</ele>
        <time>2016-05-08T14:32:16Z</time>
      </trkpt>
      <trkpt lat="47.57314" lon="4.65312">
        <ele>384.18</ele>
        <time>2016-05-08T14:32:25Z</time>
      </trkpt>
      <trkpt lat="47.57321" lon="4.65299">
        <ele>384.18</ele>
        <time>2016-05-08T14:32:35Z</time>
      </trkpt>
      <trkpt lat="47.57331" lon="4.65281">
        <ele>384.18</ele>
        <time>2016-05-08T14:32:49Z</time>
      </trkpt>
      <trkpt lat="47.57343" lon="4.65262">
        <ele>384.18</ele>
        <time>2016-05-08T14:33:05Z</time>
      </trkpt>
      <trkpt lat="47.57348" lon="4.65254">
        <ele>383.7</ele>
        <time>2016-05-08T14:33:12Z</time>
      </trkpt>
      <trkpt lat="47.5735" lon="4.65251">
        <ele>384.18</ele>
        <time>2016-05-08T14:33:14Z</time>
      </trkpt>
      <trkpt lat="47.57362" lon="4.65235">
        <ele>383.7</ele>
        <time>2016-05-08T14:33:29Z</time>
      </trkpt>
      <trkpt lat="47.57375" lon="4.65219">
        <ele>383.7</ele>
        <time>2016-05-08T14:33:43Z</time>
      </trkpt>
      <trkpt lat="47.57382" lon="4.6521">
        <ele>383.7</ele>
        <time>2016-05-08T14:33:52Z</time>
      </trkpt>
      <trkpt lat="47.57395" lon="4.65195">
        <ele>383.22</ele>
        <time>2016-05-08T14:34:06Z</time>
      </trkpt>
      <trkpt lat="47.57409" lon="4.65179">
        <ele>383.22</ele>
        <time>2016-05-08T14:34:21Z</time>
      </trkpt>
      <trkpt lat="47.5742" lon="4.65166">
        <ele>383.7</ele>
        <time>2016-05-08T14:34:34Z</time>
      </trkpt>
      <trkpt lat="47.57432" lon="4.65151">
        <ele>383.7</ele>
        <time>2016-05-08T14:34:48Z</time>
      </trkpt>
      <trkpt lat="47.57443" lon="4.65137">
        <ele>383.22</ele>
        <time>2016-05-08T14:35:00Z</time>
      </trkpt>
      <trkpt lat="47.57455" lon="4.65121">
        <ele>383.7</ele>
        <time>2016-05-08T14:35:14Z</time>
      </trkpt>
      <trkpt lat="47.57467" lon="4.65106">
        <ele>383.22</ele>
        <time>2016-05-08T14:35:27Z</time>
      </trkpt>
      <trkpt lat="47.57477" lon="4.65093">
        <ele>383.22</ele>
        <time>2016-05-08T14:35:41Z</time>
      </trkpt>
      <trkpt lat="47.57488" lon="4.65078">
        <ele>384.18</ele>
        <time>2016-05-08T14:35:54Z</time>
      </trkpt>
      <trkpt lat="47.57502" lon="4.6506">
        <ele>384.18</ele>
        <time>2016-05-08T14:36:09Z</time>
      </trkpt>
      <trkpt lat="47.57503" lon="4.65055">
        <ele>384.66</ele>
        <time>2016-05-08T14:36:22Z</time>
      </trkpt>
      <trkpt lat="47.57503" lon="4.65055">
        <ele>384.66</ele>
        <time>2016-05-08T14:36:48Z</time>
      </trkpt>
      <trkpt lat="47.57504" lon="4.65055">
        <ele>384.18</ele>
        <time>2016-05-08T14:37:08Z</time>
      </trkpt>
      <trkpt lat="47.57504" lon="4.65052">
        <ele>384.18</ele>
        <time>2016-05-08T14:37:30Z</time>
      </trkpt>
      <trkpt lat="47.57505" lon="4.65051">
        <ele>385.15</ele>
        <time>2016-05-08T14:37:48Z</time>
      </trkpt>
      <trkpt lat="47.57505" lon="4.65051">
        <ele>376.97</ele>
        <time>2016-05-08T14:37:49Z</time>
      </trkpt>
      <trkpt lat="47.57505" lon="4.65051">
        <ele>382.26</ele>
        <time>2016-05-08T14:37:50Z</time>
      </trkpt>
      <trkpt lat="47.57505" lon="4.65051">
        <ele>386.11</ele>
        <time>2016-05-08T14:37:57Z</time>
      </trkpt>
      <trkpt lat="47.57505" lon="4.65051">
        <ele>384.18</ele>
        <time>2016-05-08T14:38:19Z</time>
      </trkpt>
      <trkpt lat="47.57507" lon="4.6505">
        <ele>384.18</ele>
        <time>2016-05-08T14:38:35Z</time>
      </trkpt>
      <trkpt lat="47.57507" lon="4.6505">
        <ele>384.18</ele>
        <time>2016-05-08T14:38:59Z</time>
      </trkpt>
      <trkpt lat="47.57507" lon="4.6505">
        <ele>384.18</ele>
        <time>2016-05-08T14:39:15Z</time>
      </trkpt>
      <trkpt lat="47.57507" lon="4.6505">
        <ele>384.18</ele>
        <time>2016-05-08T14:39:36Z</time>
      </trkpt>
      <trkpt lat="47.57507" lon="4.6505">
        <ele>384.66</ele>
        <time>2016-05-08T14:40:04Z</time>
      </trkpt>
      <trkpt lat="47.57505" lon="4.65051">
        <ele>384.66</ele>
        <time>2016-05-08T14:40:37Z</time>
      </trkpt>
      <trkpt lat="47.57505" lon="4.65051">
        <ele>384.18</ele>
        <time>2016-05-08T14:41:07Z</time>
      </trkpt>
      <trkpt lat="47.57505" lon="4.65051">
        <ele>384.66</ele>
        <time>2016-05-08T14:41:28Z</time>
      </trkpt>
      <trkpt lat="47.57505" lon="4.65051">
        <ele>384.18</ele>
        <time>2016-05-08T14:41:54Z</time>
      </trkpt>
      <trkpt lat="47.57505" lon="4.65051">
        <ele>384.66</ele>
        <time>2016-05-08T14:42:17Z</time>
      </trkpt>
      <trkpt lat="47.57505" lon="4.65051">
        <ele>384.66</ele>
        <time>2016-05-08T14:42:40Z</time>
      </trkpt>
      <trkpt lat="47.57505" lon="4.65051">
        <ele>384.66</ele>
        <time>2016-05-08T14:43:03Z</time>
      </trkpt>
      <trkpt lat="47.57506" lon="4.65051">
        <ele>384.66</ele>
        <time>2016-05-08T14:43:32Z</time>
      </trkpt>
      <trkpt lat="47.57506" lon="4.65051">
        <ele>384.18</ele>
        <time>2016-05-08T14:43:48Z</time>
      </trkpt>
      <trkpt lat="47.57505" lon="4.6505">
        <ele>384.66</ele>
        <time>2016-05-08T14:44:09Z</time>
      </trkpt>
      <trkpt lat="47.57505" lon="4.6505">
        <ele>384.18</ele>
        <time>2016-05-08T14:44:26Z</time>
      </trkpt>
      <trkpt lat="47.57505" lon="4.6505">
        <ele>384.66</ele>
        <time>2016-05-08T14:44:57Z</time>
      </trkpt>
      <trkpt lat="47.57504" lon="4.65047">
        <ele>384.66</ele>
        <time>2016-05-08T14:45:19Z</time>
      </trkpt>
      <trkpt lat="47.57503" lon="4.65042">
        <ele>384.66</ele>
        <time>2016-05-08T14:45:24Z</time>
      </trkpt>
      <trkpt lat="47.57502" lon="4.65039">
        <ele>384.66</ele>
        <time>2016-05-08T14:45:26Z</time>
      </trkpt>
      <trkpt lat="47.57502" lon="4.65036">
        <ele>384.66</ele>
        <time>2016-05-08T14:45:28Z</time>
      </trkpt>
      <trkpt lat="47.57499" lon="4.65017">
        <ele>384.66</ele>
        <time>2016-05-08T14:45:43Z</time>
      </trkpt>
      <trkpt lat="47.57499" lon="4.64994">
        <ele>384.18</ele>
        <time>2016-05-08T14:45:57Z</time>
      </trkpt>
      <trkpt lat="47.57501" lon="4.64972">
        <ele>384.18</ele>
        <time>2016-05-08T14:46:10Z</time>
      </trkpt>
      <trkpt lat="47.57503" lon="4.64963">
        <ele>384.66</ele>
        <time>2016-05-08T14:46:16Z</time>
      </trkpt>
      <trkpt lat="47.57503" lon="4.64958">
        <ele>385.15</ele>
        <time>2016-05-08T14:46:19Z</time>
      </trkpt>
      <trkpt lat="47.57511" lon="4.64942">
        <ele>385.15</ele>
        <time>2016-05-08T14:46:31Z</time>
      </trkpt>
      <trkpt lat="47.5752" lon="4.64925">
        <ele>385.63</ele>
        <time>2016-05-08T14:46:45Z</time>
      </trkpt>
      <trkpt lat="47.57522" lon="4.64921">
        <ele>385.63</ele>
        <time>2016-05-08T14:46:48Z</time>
      </trkpt>
      <trkpt lat="47.57527" lon="4.64912">
        <ele>385.63</ele>
        <time>2016-05-08T14:46:55Z</time>
      </trkpt>
      <trkpt lat="47.57529" lon="4.64909">
        <ele>385.63</ele>
        <time>2016-05-08T14:46:58Z</time>
      </trkpt>
      <trkpt lat="47.57533" lon="4.649">
        <ele>385.63</ele>
        <time>2016-05-08T14:47:04Z</time>
      </trkpt>
      <trkpt lat="47.57541" lon="4.64882">
        <ele>386.11</ele>
        <time>2016-05-08T14:47:18Z</time>
      </trkpt>
      <trkpt lat="47.57541" lon="4.64881">
        <ele>385.63</ele>
        <time>2016-05-08T14:47:19Z</time>
      </trkpt>
      <trkpt lat="47.57543" lon="4.64878">
        <ele>386.11</ele>
        <time>2016-05-08T14:47:21Z</time>
      </trkpt>
      <trkpt lat="47.57552" lon="4.6486">
        <ele>385.63</ele>
        <time>2016-05-08T14:47:35Z</time>
      </trkpt>
      <trkpt lat="47.57557" lon="4.64852">
        <ele>385.63</ele>
        <time>2016-05-08T14:47:41Z</time>
      </trkpt>
      <trkpt lat="47.57565" lon="4.64832">
        <ele>386.11</ele>
        <time>2016-05-08T14:47:55Z</time>
      </trkpt>
      <trkpt lat="47.5757" lon="4.64819">
        <ele>385.63</ele>
        <time>2016-05-08T14:48:05Z</time>
      </trkpt>
      <trkpt lat="47.57574" lon="4.64805">
        <ele>385.15</ele>
        <time>2016-05-08T14:48:14Z</time>
      </trkpt>
      <trkpt lat="47.5758" lon="4.64784">
        <ele>385.15</ele>
        <time>2016-05-08T14:48:28Z</time>
      </trkpt>
      <trkpt lat="47.57588" lon="4.64758">
        <ele>384.66</ele>
        <time>2016-05-08T14:48:44Z</time>
      </trkpt>
      <trkpt lat="47.57592" lon="4.64745">
        <ele>384.66</ele>
        <time>2016-05-08T14:48:58Z</time>
      </trkpt>
      <trkpt lat="47.57595" lon="4.64733">
        <ele>384.66</ele>
        <time>2016-05-08T14:49:06Z</time>
      </trkpt>
      <trkpt lat="47.57604" lon="4.64705">
        <ele>384.18</ele>
        <time>2016-05-08T14:49:24Z</time>
      </trkpt>
      <trkpt lat="47.5761" lon="4.64681">
        <ele>384.18</ele>
        <time>2016-05-08T14:49:39Z</time>
      </trkpt>
      <trkpt lat="47.57612" lon="4.6467">
        <ele>378.42</ele>
        <time>2016-05-08T14:49:46Z</time>
      </trkpt>
      <trkpt lat="47.57613" lon="4.64668">
        <ele>386.11</ele>
        <time>2016-05-08T14:49:47Z</time>
      </trkpt>
      <trkpt lat="47.57615" lon="4.64661">
        <ele>382.26</ele>
        <time>2016-05-08T14:49:51Z</time>
      </trkpt>
      <trkpt lat="47.57615" lon="4.64658">
        <ele>385.15</ele>
        <time>2016-05-08T14:49:53Z</time>
      </trkpt>
      <trkpt lat="47.57615" lon="4.64656">
        <ele>375.05</ele>
        <time>2016-05-08T14:49:54Z</time>
      </trkpt>
      <trkpt lat="47.57616" lon="4.64654">
        <ele>384.18</ele>
        <time>2016-05-08T14:49:55Z</time>
      </trkpt>
      <trkpt lat="47.57618" lon="4.64643">
        <ele>380.82</ele>
        <time>2016-05-08T14:50:02Z</time>
      </trkpt>
      <trkpt lat="47.57619" lon="4.64641">
        <ele>384.18</ele>
        <time>2016-05-08T14:50:03Z</time>
      </trkpt>
      <trkpt lat="47.5762" lon="4.64638">
        <ele>380.82</ele>
        <time>2016-05-08T14:50:05Z</time>
      </trkpt>
      <trkpt lat="47.5762" lon="4.64634">
        <ele>390.43</ele>
        <time>2016-05-08T14:50:08Z</time>
      </trkpt>
      <trkpt lat="47.57621" lon="4.64632">
        <ele>384.18</ele>
        <time>2016-05-08T14:50:09Z</time>
      </trkpt>
      <trkpt lat="47.57623" lon="4.64625">
        <ele>383.7</ele>
        <time>2016-05-08T14:50:18Z</time>
      </trkpt>
      <trkpt lat="47.57623" lon="4.64623">
        <ele>383.22</ele>
        <time>2016-05-08T14:50:20Z</time>
      </trkpt>
      <trkpt lat="47.57624" lon="4.64617">
        <ele>383.7</ele>
        <time>2016-05-08T14:50:24Z</time>
      </trkpt>
      <trkpt lat="47.57626" lon="4.64608">
        <ele>383.7</ele>
        <time>2016-05-08T14:50:29Z</time>
      </trkpt>
      <trkpt lat="47.5763" lon="4.64583">
        <ele>383.22</ele>
        <time>2016-05-08T14:50:43Z</time>
      </trkpt>
      <trkpt lat="47.57632" lon="4.64555">
        <ele>383.7</ele>
        <time>2016-05-08T14:50:58Z</time>
      </trkpt>
      <trkpt lat="47.57634" lon="4.64532">
        <ele>378.9</ele>
        <time>2016-05-08T14:51:10Z</time>
      </trkpt>
      <trkpt lat="47.57634" lon="4.64531">
        <ele>384.18</ele>
        <time>2016-05-08T14:51:11Z</time>
      </trkpt>
      <trkpt lat="47.57636" lon="4.64505">
        <ele>383.7</ele>
        <time>2016-05-08T14:51:26Z</time>
      </trkpt>
      <trkpt lat="47.5764" lon="4.64475">
        <ele>383.22</ele>
        <time>2016-05-08T14:51:42Z</time>
      </trkpt>
      <trkpt lat="47.57642" lon="4.64454">
        <ele>383.22</ele>
        <time>2016-05-08T14:51:54Z</time>
      </trkpt>
      <trkpt lat="47.57643" lon="4.64427">
        <ele>381.78</ele>
        <time>2016-05-08T14:52:10Z</time>
      </trkpt>
      <trkpt lat="47.57643" lon="4.64425">
        <ele>385.15</ele>
        <time>2016-05-08T14:52:11Z</time>
      </trkpt>
      <trkpt lat="47.57645" lon="4.64402">
        <ele>382.74</ele>
        <time>2016-05-08T14:52:24Z</time>
      </trkpt>
      <trkpt lat="47.57646" lon="4.64392">
        <ele>382.74</ele>
        <time>2016-05-08T14:52:30Z</time>
      </trkpt>
      <trkpt lat="47.5765" lon="4.6437">
        <ele>383.22</ele>
        <time>2016-05-08T14:52:43Z</time>
      </trkpt>
      <trkpt lat="47.57655" lon="4.64343">
        <ele>382.74</ele>
        <time>2016-05-08T14:52:59Z</time>
      </trkpt>
      <trkpt lat="47.5766" lon="4.64327">
        <ele>383.22</ele>
        <time>2016-05-08T14:53:12Z</time>
      </trkpt>
      <trkpt lat="47.57664" lon="4.64326">
        <ele>383.22</ele>
        <time>2016-05-08T14:53:16Z</time>
      </trkpt>
      <trkpt lat="47.57683" lon="4.6433">
        <ele>381.78</ele>
        <time>2016-05-08T14:53:34Z</time>
      </trkpt>
      <trkpt lat="47.57698" lon="4.64333">
        <ele>381.3</ele>
        <time>2016-05-08T14:53:47Z</time>
      </trkpt>
      <trkpt lat="47.5771" lon="4.64336">
        <ele>380.34</ele>
        <time>2016-05-08T14:53:58Z</time>
      </trkpt>
      <trkpt lat="47.57714" lon="4.64337">
        <ele>380.82</ele>
        <time>2016-05-08T14:54:02Z</time>
      </trkpt>
      <trkpt lat="47.57728" lon="4.64342">
        <ele>379.86</ele>
        <time>2016-05-08T14:54:15Z</time>
      </trkpt>
      <trkpt lat="47.57739" lon="4.64345">
        <ele>379.38</ele>
        <time>2016-05-08T14:54:26Z</time>
      </trkpt>
      <trkpt lat="47.57753" lon="4.64348">
        <ele>379.86</ele>
        <time>2016-05-08T14:54:40Z</time>
      </trkpt>
      <trkpt lat="47.57764" lon="4.64352">
        <ele>380.34</ele>
        <time>2016-05-08T14:54:52Z</time>
      </trkpt>
      <trkpt lat="47.57777" lon="4.64356">
        <ele>380.82</ele>
        <time>2016-05-08T14:55:06Z</time>
      </trkpt>
      <trkpt lat="47.57791" lon="4.6436">
        <ele>381.3</ele>
        <time>2016-05-08T14:55:20Z</time>
      </trkpt>
      <trkpt lat="47.57803" lon="4.64363">
        <ele>381.78</ele>
        <time>2016-05-08T14:55:33Z</time>
      </trkpt>
      <trkpt lat="47.57809" lon="4.64366">
        <ele>382.26</ele>
        <time>2016-05-08T14:55:39Z</time>
      </trkpt>
      <trkpt lat="47.57818" lon="4.64366">
        <ele>382.74</ele>
        <time>2016-05-08T14:55:55Z</time>
      </trkpt>
      <trkpt lat="47.57829" lon="4.64369">
        <ele>383.22</ele>
        <time>2016-05-08T14:56:08Z</time>
      </trkpt>
      <trkpt lat="47.57841" lon="4.64372">
        <ele>384.18</ele>
        <time>2016-05-08T14:56:21Z</time>
      </trkpt>
      <trkpt lat="47.57852" lon="4.64375">
        <ele>384.66</ele>
        <time>2016-05-08T14:56:33Z</time>
      </trkpt>
      <trkpt lat="47.57854" lon="4.64377">
        <ele>384.66</ele>
        <time>2016-05-08T14:56:36Z</time>
      </trkpt>
      <trkpt lat="47.57863" lon="4.64381">
        <ele>384.66</ele>
        <time>2016-05-08T14:56:48Z</time>
      </trkpt>
      <trkpt lat="47.57874" lon="4.64385">
        <ele>385.15</ele>
        <time>2016-05-08T14:57:02Z</time>
      </trkpt>
      <trkpt lat="47.57886" lon="4.64388">
        <ele>386.11</ele>
        <time>2016-05-08T14:57:15Z</time>
      </trkpt>
      <trkpt lat="47.57896" lon="4.64392">
        <ele>386.59</ele>
        <time>2016-05-08T14:57:30Z</time>
      </trkpt>
      <trkpt lat="47.57902" lon="4.64394">
        <ele>387.07</ele>
        <time>2016-05-08T14:57:42Z</time>
      </trkpt>
      <trkpt lat="47.5791" lon="4.64397">
        <ele>387.55</ele>
        <time>2016-05-08T14:57:54Z</time>
      </trkpt>
      <trkpt lat="47.57921" lon="4.644">
        <ele>388.03</ele>
        <time>2016-05-08T14:58:09Z</time>
      </trkpt>
      <trkpt lat="47.57932" lon="4.64403">
        <ele>388.51</ele>
        <time>2016-05-08T14:58:24Z</time>
      </trkpt>
      <trkpt lat="47.57941" lon="4.64406">
        <ele>388.51</ele>
        <time>2016-05-08T14:58:38Z</time>
      </trkpt>
      <trkpt lat="47.57951" lon="4.64408">
        <ele>389.47</ele>
        <time>2016-05-08T14:58:51Z</time>
      </trkpt>
      <trkpt lat="47.57958" lon="4.64411">
        <ele>389.95</ele>
        <time>2016-05-08T14:59:03Z</time>
      </trkpt>
      <trkpt lat="47.57966" lon="4.64414">
        <ele>390.43</ele>
        <time>2016-05-08T14:59:14Z</time>
      </trkpt>
      <trkpt lat="47.57978" lon="4.64418">
        <ele>390.43</ele>
        <time>2016-05-08T14:59:28Z</time>
      </trkpt>
      <trkpt lat="47.57983" lon="4.64419">
        <ele>390.43</ele>
        <time>2016-05-08T14:59:35Z</time>
      </trkpt>
      <trkpt lat="47.57993" lon="4.64421">
        <ele>391.39</ele>
        <time>2016-05-08T14:59:48Z</time>
      </trkpt>
      <trkpt lat="47.58003" lon="4.64424">
        <ele>391.39</ele>
        <time>2016-05-08T15:00:02Z</time>
      </trkpt>
      <trkpt lat="47.58005" lon="4.64427">
        <ele>391.39</ele>
        <time>2016-05-08T15:00:07Z</time>
      </trkpt>
      <trkpt lat="47.58018" lon="4.64432">
        <ele>391.87</ele>
        <time>2016-05-08T15:00:20Z</time>
      </trkpt>
      <trkpt lat="47.58029" lon="4.64434">
        <ele>391.87</ele>
        <time>2016-05-08T15:00:34Z</time>
      </trkpt>
      <trkpt lat="47.58042" lon="4.64437">
        <ele>392.84</ele>
        <time>2016-05-08T15:00:47Z</time>
      </trkpt>
      <trkpt lat="47.58053" lon="4.64439">
        <ele>393.32</ele>
        <time>2016-05-08T15:01:00Z</time>
      </trkpt>
      <trkpt lat="47.58057" lon="4.64439">
        <ele>393.8</ele>
        <time>2016-05-08T15:01:13Z</time>
      </trkpt>
      <trkpt lat="47.58062" lon="4.6444">
        <ele>393.8</ele>
        <time>2016-05-08T15:01:24Z</time>
      </trkpt>
      <trkpt lat="47.58071" lon="4.64441">
        <ele>393.8</ele>
        <time>2016-05-08T15:01:35Z</time>
      </trkpt>
      <trkpt lat="47.58079" lon="4.64442">
        <ele>394.28</ele>
        <time>2016-05-08T15:01:48Z</time>
      </trkpt>
      <trkpt lat="47.58088" lon="4.64444">
        <ele>394.76</ele>
        <time>2016-05-08T15:02:00Z</time>
      </trkpt>
      <trkpt lat="47.58095" lon="4.64445">
        <ele>395.24</ele>
        <time>2016-05-08T15:02:09Z</time>
      </trkpt>
      <trkpt lat="47.58106" lon="4.64447">
        <ele>395.72</ele>
        <time>2016-05-08T15:02:22Z</time>
      </trkpt>
      <trkpt lat="47.58108" lon="4.64448">
        <ele>395.72</ele>
        <time>2016-05-08T15:02:24Z</time>
      </trkpt>
      <trkpt lat="47.5812" lon="4.64448">
        <ele>395.72</ele>
        <time>2016-05-08T15:02:36Z</time>
      </trkpt>
      <trkpt lat="47.58125" lon="4.6445">
        <ele>397.16</ele>
        <time>2016-05-08T15:02:50Z</time>
      </trkpt>
      <trkpt lat="47.58127" lon="4.64448">
        <ele>396.68</ele>
        <time>2016-05-08T15:03:07Z</time>
      </trkpt>
      <trkpt lat="47.58129" lon="4.64443">
        <ele>397.16</ele>
        <time>2016-05-08T15:03:25Z</time>
      </trkpt>
      <trkpt lat="47.5813" lon="4.6444">
        <ele>397.64</ele>
        <time>2016-05-08T15:03:40Z</time>
      </trkpt>
      <trkpt lat="47.58133" lon="4.64432">
        <ele>399.08</ele>
        <time>2016-05-08T15:03:54Z</time>
      </trkpt>
      <trkpt lat="47.58135" lon="4.64427">
        <ele>399.57</ele>
        <time>2016-05-08T15:04:13Z</time>
      </trkpt>
      <trkpt lat="47.58138" lon="4.64417">
        <ele>401.01</ele>
        <time>2016-05-08T15:04:28Z</time>
      </trkpt>
      <trkpt lat="47.5814" lon="4.64407">
        <ele>401.97</ele>
        <time>2016-05-08T15:04:42Z</time>
      </trkpt>
      <trkpt lat="47.58141" lon="4.64399">
        <ele>403.41</ele>
        <time>2016-05-08T15:04:50Z</time>
      </trkpt>
      <trkpt lat="47.58146" lon="4.64382">
        <ele>405.33</ele>
        <time>2016-05-08T15:05:02Z</time>
      </trkpt>
      <trkpt lat="47.58145" lon="4.64376">
        <ele>405.33</ele>
        <time>2016-05-08T15:05:11Z</time>
      </trkpt>
      <trkpt lat="47.58143" lon="4.64373">
        <ele>405.33</ele>
        <time>2016-05-08T15:05:22Z</time>
      </trkpt>
      <trkpt lat="47.58141" lon="4.64373">
        <ele>405.33</ele>
        <time>2016-05-08T15:05:24Z</time>
      </trkpt>
      <trkpt lat="47.58125" lon="4.64368">
        <ele>404.85</ele>
        <time>2016-05-08T15:05:36Z</time>
      </trkpt>
      <trkpt lat="47.58109" lon="4.64359">
        <ele>404.37</ele>
        <time>2016-05-08T15:05:48Z</time>
      </trkpt>
      <trkpt lat="47.58107" lon="4.64359">
        <ele>403.89</ele>
        <time>2016-05-08T15:05:50Z</time>
      </trkpt>
      <trkpt lat="47.58101" lon="4.64362">
        <ele>401.49</ele>
        <time>2016-05-08T15:06:02Z</time>
      </trkpt>
      <trkpt lat="47.58097" lon="4.64377">
        <ele>398.6</ele>
        <time>2016-05-08T15:06:15Z</time>
      </trkpt>
      <trkpt lat="47.58088" lon="4.64398">
        <ele>396.68</ele>
        <time>2016-05-08T15:06:29Z</time>
      </trkpt>
      <trkpt lat="47.58084" lon="4.64407">
        <ele>395.72</ele>
        <time>2016-05-08T15:06:39Z</time>
      </trkpt>
      <trkpt lat="47.58074" lon="4.64427">
        <ele>394.28</ele>
        <time>2016-05-08T15:06:53Z</time>
      </trkpt>
      <trkpt lat="47.58071" lon="4.64431">
        <ele>393.8</ele>
        <time>2016-05-08T15:06:56Z</time>
      </trkpt>
      <trkpt lat="47.58068" lon="4.64435">
        <ele>393.8</ele>
        <time>2016-05-08T15:07:11Z</time>
      </trkpt>
      <trkpt lat="47.58066" lon="4.64439">
        <ele>393.8</ele>
        <time>2016-05-08T15:07:23Z</time>
      </trkpt>
      <trkpt lat="47.58065" lon="4.64438">
        <ele>393.32</ele>
        <time>2016-05-08T15:07:39Z</time>
      </trkpt>
      <trkpt lat="47.58065" lon="4.64438">
        <ele>393.32</ele>
        <time>2016-05-08T15:08:03Z</time>
      </trkpt>
      <trkpt lat="47.58068" lon="4.64438">
        <ele>392.84</ele>
        <time>2016-05-08T15:08:34Z</time>
      </trkpt>
      <trkpt lat="47.58068" lon="4.64438">
        <ele>393.32</ele>
        <time>2016-05-08T15:08:54Z</time>
      </trkpt>
      <trkpt lat="47.58068" lon="4.64438">
        <ele>393.32</ele>
        <time>2016-05-08T15:09:26Z</time>
      </trkpt>
      <trkpt lat="47.58068" lon="4.64438">
        <ele>393.32</ele>
        <time>2016-05-08T15:09:55Z</time>
      </trkpt>
      <trkpt lat="47.58068" lon="4.64438">
        <ele>392.84</ele>
        <time>2016-05-08T15:10:22Z</time>
      </trkpt>
      <trkpt lat="47.58068" lon="4.64438">
        <ele>393.32</ele>
        <time>2016-05-08T15:10:53Z</time>
      </trkpt>
      <trkpt lat="47.58069" lon="4.64438">
        <ele>393.8</ele>
        <time>2016-05-08T15:11:24Z</time>
      </trkpt>
      <trkpt lat="47.58069" lon="4.64438">
        <ele>393.8</ele>
        <time>2016-05-08T15:11:50Z</time>
      </trkpt>
      <trkpt lat="47.58069" lon="4.64438">
        <ele>393.32</ele>
        <time>2016-05-08T15:12:17Z</time>
      </trkpt>
      <trkpt lat="47.58069" lon="4.64438">
        <ele>393.8</ele>
        <time>2016-05-08T15:12:50Z</time>
      </trkpt>
      <trkpt lat="47.58069" lon="4.64439">
        <ele>393.8</ele>
        <time>2016-05-08T15:13:21Z</time>
      </trkpt>
      <trkpt lat="47.58069" lon="4.64438">
        <ele>393.32</ele>
        <time>2016-05-08T15:13:40Z</time>
      </trkpt>
      <trkpt lat="47.58068" lon="4.64439">
        <ele>393.8</ele>
        <time>2016-05-08T15:14:10Z</time>
      </trkpt>
      <trkpt lat="47.58068" lon="4.64439">
        <ele>393.8</ele>
        <time>2016-05-08T15:14:28Z</time>
      </trkpt>
      <trkpt lat="47.58069" lon="4.64439">
        <ele>393.8</ele>
        <time>2016-05-08T15:15:02Z</time>
      </trkpt>
      <trkpt lat="47.58069" lon="4.64438">
        <ele>394.28</ele>
        <time>2016-05-08T15:15:14Z</time>
      </trkpt>
      <trkpt lat="47.58069" lon="4.64436">
        <ele>394.28</ele>
        <time>2016-05-08T15:15:41Z</time>
      </trkpt>
      <trkpt lat="47.58074" lon="4.64426">
        <ele>394.76</ele>
        <time>2016-05-08T15:15:52Z</time>
      </trkpt>
      <trkpt lat="47.58079" lon="4.64415">
        <ele>395.24</ele>
        <time>2016-05-08T15:16:04Z</time>
      </trkpt>
      <trkpt lat="47.58083" lon="4.64409">
        <ele>396.2</ele>
        <time>2016-05-08T15:16:15Z</time>
      </trkpt>
      <trkpt lat="47.58086" lon="4.64401">
        <ele>397.16</ele>
        <time>2016-05-08T15:16:27Z</time>
      </trkpt>
      <trkpt lat="47.5809" lon="4.64392">
        <ele>399.08</ele>
        <time>2016-05-08T15:16:40Z</time>
      </trkpt>
      <trkpt lat="47.58091" lon="4.64388">
        <ele>399.08</ele>
        <time>2016-05-08T15:16:55Z</time>
      </trkpt>
      <trkpt lat="47.58094" lon="4.64385">
        <ele>400.05</ele>
        <time>2016-05-08T15:17:06Z</time>
      </trkpt>
      <trkpt lat="47.58099" lon="4.64377">
        <ele>401.97</ele>
        <time>2016-05-08T15:17:19Z</time>
      </trkpt>
      <trkpt lat="47.58099" lon="4.64367">
        <ele>401.49</ele>
        <time>2016-05-08T15:17:31Z</time>
      </trkpt>
      <trkpt lat="47.581" lon="4.64365">
        <ele>401.97</ele>
        <time>2016-05-08T15:17:34Z</time>
      </trkpt>
      <trkpt lat="47.58104" lon="4.64358">
        <ele>403.41</ele>
        <time>2016-05-08T15:17:46Z</time>
      </trkpt>
      <trkpt lat="47.58109" lon="4.64357">
        <ele>404.37</ele>
        <time>2016-05-08T15:17:59Z</time>
      </trkpt>
      <trkpt lat="47.58114" lon="4.64356">
        <ele>404.37</ele>
        <time>2016-05-08T15:18:24Z</time>
      </trkpt>
      <trkpt lat="47.58119" lon="4.6436">
        <ele>404.85</ele>
        <time>2016-05-08T15:18:38Z</time>
      </trkpt>
      <trkpt lat="47.58129" lon="4.64365">
        <ele>405.81</ele>
        <time>2016-05-08T15:18:51Z</time>
      </trkpt>
      <trkpt lat="47.58137" lon="4.64369">
        <ele>405.81</ele>
        <time>2016-05-08T15:19:05Z</time>
      </trkpt>
      <trkpt lat="47.58151" lon="4.64375">
        <ele>405.81</ele>
        <time>2016-05-08T15:19:21Z</time>
      </trkpt>
      <trkpt lat="47.58165" lon="4.64381">
        <ele>406.29</ele>
        <time>2016-05-08T15:19:32Z</time>
      </trkpt>
      <trkpt lat="47.58172" lon="4.64383">
        <ele>406.29</ele>
        <time>2016-05-08T15:19:38Z</time>
      </trkpt>
      <trkpt lat="47.58187" lon="4.64387">
        <ele>407.26</ele>
        <time>2016-05-08T15:19:52Z</time>
      </trkpt>
      <trkpt lat="47.58194" lon="4.64387">
        <ele>407.74</ele>
        <time>2016-05-08T15:20:11Z</time>
      </trkpt>
      <trkpt lat="47.58199" lon="4.64386">
        <ele>407.26</ele>
        <time>2016-05-08T15:20:24Z</time>
      </trkpt>
      <trkpt lat="47.58203" lon="4.64386">
        <ele>408.22</ele>
        <time>2016-05-08T15:20:38Z</time>
      </trkpt>
      <trkpt lat="47.58204" lon="4.64387">
        <ele>408.7</ele>
        <time>2016-05-08T15:20:54Z</time>
      </trkpt>
      <trkpt lat="47.58219" lon="4.64395">
        <ele>410.14</ele>
        <time>2016-05-08T15:21:09Z</time>
      </trkpt>
      <trkpt lat="47.58231" lon="4.64396">
        <ele>410.14</ele>
        <time>2016-05-08T15:21:23Z</time>
      </trkpt>
      <trkpt lat="47.58233" lon="4.64398">
        <ele>410.62</ele>
        <time>2016-05-08T15:21:37Z</time>
      </trkpt>
      <trkpt lat="47.58236" lon="4.644">
        <ele>411.1</ele>
        <time>2016-05-08T15:21:48Z</time>
      </trkpt>
      <trkpt lat="47.58243" lon="4.64403">
        <ele>412.06</ele>
        <time>2016-05-08T15:22:03Z</time>
      </trkpt>
      <trkpt lat="47.58255" lon="4.64411">
        <ele>412.54</ele>
        <time>2016-05-08T15:22:20Z</time>
      </trkpt>
      <trkpt lat="47.58255" lon="4.64413">
        <ele>412.54</ele>
        <time>2016-05-08T15:22:24Z</time>
      </trkpt>
      <trkpt lat="47.58268" lon="4.6442">
        <ele>413.5</ele>
        <time>2016-05-08T15:22:39Z</time>
      </trkpt>
      <trkpt lat="47.58281" lon="4.64426">
        <ele>413.5</ele>
        <time>2016-05-08T15:22:53Z</time>
      </trkpt>
      <trkpt lat="47.58298" lon="4.64434">
        <ele>413.98</ele>
        <time>2016-05-08T15:23:06Z</time>
      </trkpt>
      <trkpt lat="47.58321" lon="4.64446">
        <ele>414.47</ele>
        <time>2016-05-08T15:23:21Z</time>
      </trkpt>
      <trkpt lat="47.58338" lon="4.64456">
        <ele>415.43</ele>
        <time>2016-05-08T15:23:40Z</time>
      </trkpt>
      <trkpt lat="47.58364" lon="4.6446">
        <ele>416.39</ele>
        <time>2016-05-08T15:23:57Z</time>
      </trkpt>
      <trkpt lat="47.58365" lon="4.6446">
        <ele>416.39</ele>
        <time>2016-05-08T15:24:15Z</time>
      </trkpt>
      <trkpt lat="47.58365" lon="4.6446">
        <ele>415.91</ele>
        <time>2016-05-08T15:24:30Z</time>
      </trkpt>
      <trkpt lat="47.58364" lon="4.6446">
        <ele>416.39</ele>
        <time>2016-05-08T15:24:44Z</time>
      </trkpt>
      <trkpt lat="47.58365" lon="4.64458">
        <ele>415.91</ele>
        <time>2016-05-08T15:25:00Z</time>
      </trkpt>
      <trkpt lat="47.58364" lon="4.64457">
        <ele>416.39</ele>
        <time>2016-05-08T15:25:16Z</time>
      </trkpt>
      <trkpt lat="47.58364" lon="4.64454">
        <ele>415.91</ele>
        <time>2016-05-08T15:25:34Z</time>
      </trkpt>
      <trkpt lat="47.58364" lon="4.64452">
        <ele>415.91</ele>
        <time>2016-05-08T15:25:36Z</time>
      </trkpt>
      <trkpt lat="47.58364" lon="4.6445">
        <ele>416.39</ele>
        <time>2016-05-08T15:25:38Z</time>
      </trkpt>
      <trkpt lat="47.58363" lon="4.64423">
        <ele>416.39</ele>
        <time>2016-05-08T15:25:54Z</time>
      </trkpt>
      <trkpt lat="47.58361" lon="4.64396">
        <ele>416.87</ele>
        <time>2016-05-08T15:26:09Z</time>
      </trkpt>
      <trkpt lat="47.58359" lon="4.64368">
        <ele>417.35</ele>
        <time>2016-05-08T15:26:26Z</time>
      </trkpt>
      <trkpt lat="47.58357" lon="4.64352">
        <ele>417.35</ele>
        <time>2016-05-08T15:26:36Z</time>
      </trkpt>
      <trkpt lat="47.58356" lon="4.64335">
        <ele>418.31</ele>
        <time>2016-05-08T15:26:46Z</time>
      </trkpt>
      <trkpt lat="47.58355" lon="4.6433">
        <ele>418.31</ele>
        <time>2016-05-08T15:26:49Z</time>
      </trkpt>
      <trkpt lat="47.58356" lon="4.64324">
        <ele>424.08</ele>
        <time>2016-05-08T15:26:53Z</time>
      </trkpt>
      <trkpt lat="47.58356" lon="4.64322">
        <ele>418.31</ele>
        <time>2016-05-08T15:26:54Z</time>
      </trkpt>
      <trkpt lat="47.58356" lon="4.64318">
        <ele>406.77</ele>
        <time>2016-05-08T15:26:56Z</time>
      </trkpt>
      <trkpt lat="47.58356" lon="4.64317">
        <ele>421.19</ele>
        <time>2016-05-08T15:26:57Z</time>
      </trkpt>
      <trkpt lat="47.58356" lon="4.64315">
        <ele>427.92</ele>
        <time>2016-05-08T15:26:58Z</time>
      </trkpt>
      <trkpt lat="47.58356" lon="4.64314">
        <ele>416.39</ele>
        <time>2016-05-08T15:26:59Z</time>
      </trkpt>
      <trkpt lat="47.58356" lon="4.64312">
        <ele>417.83</ele>
        <time>2016-05-08T15:27:00Z</time>
      </trkpt>
      <trkpt lat="47.58357" lon="4.6431">
        <ele>420.71</ele>
        <time>2016-05-08T15:27:01Z</time>
      </trkpt>
      <trkpt lat="47.58357" lon="4.64308">
        <ele>418.79</ele>
        <time>2016-05-08T15:27:02Z</time>
      </trkpt>
      <trkpt lat="47.58357" lon="4.64304">
        <ele>411.1</ele>
        <time>2016-05-08T15:27:05Z</time>
      </trkpt>
      <trkpt lat="47.58357" lon="4.64302">
        <ele>416.87</ele>
        <time>2016-05-08T15:27:06Z</time>
      </trkpt>
      <trkpt lat="47.58357" lon="4.64301">
        <ele>398.6</ele>
        <time>2016-05-08T15:27:07Z</time>
      </trkpt>
      <trkpt lat="47.58357" lon="4.64297">
        <ele>423.12</ele>
        <time>2016-05-08T15:27:09Z</time>
      </trkpt>
      <trkpt lat="47.58358" lon="4.64292">
        <ele>418.79</ele>
        <time>2016-05-08T15:27:12Z</time>
      </trkpt>
      <trkpt lat="47.58358" lon="4.64291">
        <ele>412.54</ele>
        <time>2016-05-08T15:27:13Z</time>
      </trkpt>
      <trkpt lat="47.58358" lon="4.6429">
        <ele>421.19</ele>
        <time>2016-05-08T15:27:14Z</time>
      </trkpt>
      <trkpt lat="47.58358" lon="4.64287">
        <ele>423.12</ele>
        <time>2016-05-08T15:27:16Z</time>
      </trkpt>
      <trkpt lat="47.58358" lon="4.64286">
        <ele>419.27</ele>
        <time>2016-05-08T15:27:17Z</time>
      </trkpt>
      <trkpt lat="47.58358" lon="4.64284">
        <ele>419.27</ele>
        <time>2016-05-08T15:27:18Z</time>
      </trkpt>
      <trkpt lat="47.58365" lon="4.64265">
        <ele>419.27</ele>
        <time>2016-05-08T15:27:33Z</time>
      </trkpt>
      <trkpt lat="47.58366" lon="4.64261">
        <ele>426.96</ele>
        <time>2016-05-08T15:27:40Z</time>
      </trkpt>
      <trkpt lat="47.58366" lon="4.64261">
        <ele>420.23</ele>
        <time>2016-05-08T15:27:41Z</time>
      </trkpt>
      <trkpt lat="47.58367" lon="4.64256">
        <ele>419.27</ele>
        <time>2016-05-08T15:27:58Z</time>
      </trkpt>
      <trkpt lat="47.58371" lon="4.64232">
        <ele>419.75</ele>
        <time>2016-05-08T15:28:13Z</time>
      </trkpt>
      <trkpt lat="47.58369" lon="4.64224">
        <ele>419.27</ele>
        <time>2016-05-08T15:28:30Z</time>
      </trkpt>
      <trkpt lat="47.58366" lon="4.64231">
        <ele>419.27</ele>
        <time>2016-05-08T15:28:44Z</time>
      </trkpt>
      <trkpt lat="47.58366" lon="4.64235">
        <ele>419.75</ele>
        <time>2016-05-08T15:28:56Z</time>
      </trkpt>
      <trkpt lat="47.58365" lon="4.64238">
        <ele>419.75</ele>
        <time>2016-05-08T15:29:08Z</time>
      </trkpt>
      <trkpt lat="47.58364" lon="4.6425">
        <ele>419.27</ele>
        <time>2016-05-08T15:29:20Z</time>
      </trkpt>
      <trkpt lat="47.58364" lon="4.64256">
        <ele>419.75</ele>
        <time>2016-05-08T15:29:35Z</time>
      </trkpt>
      <trkpt lat="47.58369" lon="4.64267">
        <ele>419.75</ele>
        <time>2016-05-08T15:29:50Z</time>
      </trkpt>
      <trkpt lat="47.58374" lon="4.64268">
        <ele>420.23</ele>
        <time>2016-05-08T15:30:02Z</time>
      </trkpt>
      <trkpt lat="47.5839" lon="4.64269">
        <ele>420.23</ele>
        <time>2016-05-08T15:30:15Z</time>
      </trkpt>
      <trkpt lat="47.58396" lon="4.64269">
        <ele>421.19</ele>
        <time>2016-05-08T15:30:25Z</time>
      </trkpt>
      <trkpt lat="47.58404" lon="4.6427">
        <ele>421.68</ele>
        <time>2016-05-08T15:30:38Z</time>
      </trkpt>
      <trkpt lat="47.58422" lon="4.64273">
        <ele>422.16</ele>
        <time>2016-05-08T15:30:51Z</time>
      </trkpt>
      <trkpt lat="47.58437" lon="4.64276">
        <ele>422.64</ele>
        <time>2016-05-08T15:31:02Z</time>
      </trkpt>
      <trkpt lat="47.58451" lon="4.64276">
        <ele>423.12</ele>
        <time>2016-05-08T15:31:15Z</time>
      </trkpt>
      <trkpt lat="47.58468" lon="4.64278">
        <ele>424.08</ele>
        <time>2016-05-08T15:31:27Z</time>
      </trkpt>
      <trkpt lat="47.5848" lon="4.64283">
        <ele>424.56</ele>
        <time>2016-05-08T15:31:39Z</time>
      </trkpt>
      <trkpt lat="47.5848" lon="4.64283">
        <ele>424.08</ele>
        <time>2016-05-08T15:31:40Z</time>
      </trkpt>
      <trkpt lat="47.58497" lon="4.64286">
        <ele>424.56</ele>
        <time>2016-05-08T15:31:55Z</time>
      </trkpt>
      <trkpt lat="47.58507" lon="4.64287">
        <ele>425.04</ele>
        <time>2016-05-08T15:32:07Z</time>
      </trkpt>
      <trkpt lat="47.58519" lon="4.64288">
        <ele>425.52</ele>
        <time>2016-05-08T15:32:22Z</time>
      </trkpt>
      <trkpt lat="47.58533" lon="4.64291">
        <ele>426</ele>
        <time>2016-05-08T15:32:31Z</time>
      </trkpt>
      <trkpt lat="47.5855" lon="4.64295">
        <ele>426.48</ele>
        <time>2016-05-08T15:32:42Z</time>
      </trkpt>
      <trkpt lat="47.58568" lon="4.64298">
        <ele>426.48</ele>
        <time>2016-05-08T15:32:57Z</time>
      </trkpt>
      <trkpt lat="47.5858" lon="4.64302">
        <ele>426.96</ele>
        <time>2016-05-08T15:33:12Z</time>
      </trkpt>
      <trkpt lat="47.58597" lon="4.64301">
        <ele>428.4</ele>
        <time>2016-05-08T15:33:25Z</time>
      </trkpt>
      <trkpt lat="47.58598" lon="4.64301">
        <ele>428.4</ele>
        <time>2016-05-08T15:33:26Z</time>
      </trkpt>
      <trkpt lat="47.58613" lon="4.64301">
        <ele>428.4</ele>
        <time>2016-05-08T15:33:38Z</time>
      </trkpt>
      <trkpt lat="47.58629" lon="4.64298">
        <ele>428.89</ele>
        <time>2016-05-08T15:33:51Z</time>
      </trkpt>
      <trkpt lat="47.58645" lon="4.64297">
        <ele>428.89</ele>
        <time>2016-05-08T15:34:02Z</time>
      </trkpt>
      <trkpt lat="47.58664" lon="4.64296">
        <ele>429.37</ele>
        <time>2016-05-08T15:34:17Z</time>
      </trkpt>
      <trkpt lat="47.58678" lon="4.64298">
        <ele>429.85</ele>
        <time>2016-05-08T15:34:30Z</time>
      </trkpt>
      <trkpt lat="47.58697" lon="4.64302">
        <ele>429.85</ele>
        <time>2016-05-08T15:34:44Z</time>
      </trkpt>
      <trkpt lat="47.58711" lon="4.64309">
        <ele>430.33</ele>
        <time>2016-05-08T15:34:59Z</time>
      </trkpt>
      <trkpt lat="47.58727" lon="4.6432">
        <ele>430.33</ele>
        <time>2016-05-08T15:35:13Z</time>
      </trkpt>
      <trkpt lat="47.58738" lon="4.6433">
        <ele>430.33</ele>
        <time>2016-05-08T15:35:25Z</time>
      </trkpt>
      <trkpt lat="47.58751" lon="4.64344">
        <ele>430.81</ele>
        <time>2016-05-08T15:35:37Z</time>
      </trkpt>
      <trkpt lat="47.58757" lon="4.64351">
        <ele>430.81</ele>
        <time>2016-05-08T15:35:44Z</time>
      </trkpt>
      <trkpt lat="47.58767" lon="4.64363">
        <ele>431.29</ele>
        <time>2016-05-08T15:35:55Z</time>
      </trkpt>
      <trkpt lat="47.58777" lon="4.64375">
        <ele>431.29</ele>
        <time>2016-05-08T15:36:06Z</time>
      </trkpt>
      <trkpt lat="47.58779" lon="4.64381">
        <ele>431.29</ele>
        <time>2016-05-08T15:36:11Z</time>
      </trkpt>
      <trkpt lat="47.58782" lon="4.64384">
        <ele>431.77</ele>
        <time>2016-05-08T15:36:14Z</time>
      </trkpt>
      <trkpt lat="47.58793" lon="4.64398">
        <ele>431.77</ele>
        <time>2016-05-08T15:36:26Z</time>
      </trkpt>
      <trkpt lat="47.58808" lon="4.64412">
        <ele>432.73</ele>
        <time>2016-05-08T15:36:41Z</time>
      </trkpt>
      <trkpt lat="47.5882" lon="4.64423">
        <ele>432.73</ele>
        <time>2016-05-08T15:36:53Z</time>
      </trkpt>
      <trkpt lat="47.58834" lon="4.64432">
        <ele>432.73</ele>
        <time>2016-05-08T15:37:05Z</time>
      </trkpt>
      <trkpt lat="47.58838" lon="4.64436">
        <ele>432.73</ele>
        <time>2016-05-08T15:37:09Z</time>
      </trkpt>
      <trkpt lat="47.58849" lon="4.64442">
        <ele>432.73</ele>
        <time>2016-05-08T15:37:20Z</time>
      </trkpt>
      <trkpt lat="47.5885" lon="4.64443">
        <ele>432.25</ele>
        <time>2016-05-08T15:37:21Z</time>
      </trkpt>
      <trkpt lat="47.58867" lon="4.64451">
        <ele>432.25</ele>
        <time>2016-05-08T15:37:35Z</time>
      </trkpt>
      <trkpt lat="47.58877" lon="4.64456">
        <ele>432.73</ele>
        <time>2016-05-08T15:37:45Z</time>
      </trkpt>
      <trkpt lat="47.5889" lon="4.64462">
        <ele>432.25</ele>
        <time>2016-05-08T15:37:58Z</time>
      </trkpt>
      <trkpt lat="47.58898" lon="4.64468">
        <ele>431.77</ele>
        <time>2016-05-08T15:38:13Z</time>
      </trkpt>
      <trkpt lat="47.589" lon="4.64469">
        <ele>431.29</ele>
        <time>2016-05-08T15:38:17Z</time>
      </trkpt>
      <trkpt lat="47.58921" lon="4.64474">
        <ele>431.29</ele>
        <time>2016-05-08T15:38:31Z</time>
      </trkpt>
      <trkpt lat="47.58937" lon="4.6448">
        <ele>431.29</ele>
        <time>2016-05-08T15:38:44Z</time>
      </trkpt>
      <trkpt lat="47.58952" lon="4.64485">
        <ele>430.81</ele>
        <time>2016-05-08T15:38:57Z</time>
      </trkpt>
      <trkpt lat="47.58966" lon="4.64489">
        <ele>430.33</ele>
        <time>2016-05-08T15:39:09Z</time>
      </trkpt>
      <trkpt lat="47.58978" lon="4.64497">
        <ele>430.33</ele>
        <time>2016-05-08T15:39:20Z</time>
      </trkpt>
      <trkpt lat="47.58982" lon="4.64501">
        <ele>430.33</ele>
        <time>2016-05-08T15:39:24Z</time>
      </trkpt>
      <trkpt lat="47.58986" lon="4.64506">
        <ele>430.33</ele>
        <time>2016-05-08T15:39:29Z</time>
      </trkpt>
      <trkpt lat="47.58999" lon="4.64521">
        <ele>430.33</ele>
        <time>2016-05-08T15:39:42Z</time>
      </trkpt>
      <trkpt lat="47.59012" lon="4.64536">
        <ele>429.85</ele>
        <time>2016-05-08T15:39:54Z</time>
      </trkpt>
      <trkpt lat="47.59029" lon="4.64557">
        <ele>430.33</ele>
        <time>2016-05-08T15:40:11Z</time>
      </trkpt>
      <trkpt lat="47.59031" lon="4.64559">
        <ele>430.33</ele>
        <time>2016-05-08T15:40:13Z</time>
      </trkpt>
      <trkpt lat="47.59042" lon="4.64576">
        <ele>429.85</ele>
        <time>2016-05-08T15:40:26Z</time>
      </trkpt>
      <trkpt lat="47.59051" lon="4.6459">
        <ele>430.33</ele>
        <time>2016-05-08T15:40:38Z</time>
      </trkpt>
      <trkpt lat="47.59064" lon="4.64604">
        <ele>430.33</ele>
        <time>2016-05-08T15:40:52Z</time>
      </trkpt>
      <trkpt lat="47.59064" lon="4.64605">
        <ele>430.33</ele>
        <time>2016-05-08T15:40:53Z</time>
      </trkpt>
      <trkpt lat="47.59077" lon="4.64621">
        <ele>429.85</ele>
        <time>2016-05-08T15:41:07Z</time>
      </trkpt>
      <trkpt lat="47.59086" lon="4.64635">
        <ele>428.89</ele>
        <time>2016-05-08T15:41:19Z</time>
      </trkpt>
      <trkpt lat="47.59099" lon="4.64651">
        <ele>427.92</ele>
        <time>2016-05-08T15:41:32Z</time>
      </trkpt>
      <trkpt lat="47.59108" lon="4.64662">
        <ele>427.44</ele>
        <time>2016-05-08T15:41:43Z</time>
      </trkpt>
      <trkpt lat="47.59114" lon="4.64671">
        <ele>427.92</ele>
        <time>2016-05-08T15:41:51Z</time>
      </trkpt>
      <trkpt lat="47.59119" lon="4.64677">
        <ele>427.92</ele>
        <time>2016-05-08T15:41:57Z</time>
      </trkpt>
      <trkpt lat="47.5913" lon="4.64689">
        <ele>426.96</ele>
        <time>2016-05-08T15:42:09Z</time>
      </trkpt>
      <trkpt lat="47.59136" lon="4.64699">
        <ele>426.96</ele>
        <time>2016-05-08T15:42:19Z</time>
      </trkpt>
      <trkpt lat="47.59138" lon="4.64702">
        <ele>426.48</ele>
        <time>2016-05-08T15:42:21Z</time>
      </trkpt>
      <trkpt lat="47.59142" lon="4.64706">
        <ele>426.96</ele>
        <time>2016-05-08T15:42:25Z</time>
      </trkpt>
      <trkpt lat="47.59145" lon="4.64712">
        <ele>426.48</ele>
        <time>2016-05-08T15:42:30Z</time>
      </trkpt>
      <trkpt lat="47.59149" lon="4.64716">
        <ele>426.48</ele>
        <time>2016-05-08T15:42:34Z</time>
      </trkpt>
      <trkpt lat="47.59154" lon="4.64724">
        <ele>426.96</ele>
        <time>2016-05-08T15:42:42Z</time>
      </trkpt>
      <trkpt lat="47.59162" lon="4.64742">
        <ele>426.48</ele>
        <time>2016-05-08T15:42:56Z</time>
      </trkpt>
      <trkpt lat="47.59166" lon="4.64747">
        <ele>425.52</ele>
        <time>2016-05-08T15:43:00Z</time>
      </trkpt>
      <trkpt lat="47.59177" lon="4.64763">
        <ele>425.04</ele>
        <time>2016-05-08T15:43:13Z</time>
      </trkpt>
      <trkpt lat="47.59179" lon="4.64765">
        <ele>424.56</ele>
        <time>2016-05-08T15:43:15Z</time>
      </trkpt>
      <trkpt lat="47.59186" lon="4.64781">
        <ele>424.56</ele>
        <time>2016-05-08T15:43:27Z</time>
      </trkpt>
      <trkpt lat="47.59199" lon="4.64798">
        <ele>424.56</ele>
        <time>2016-05-08T15:43:41Z</time>
      </trkpt>
      <trkpt lat="47.59205" lon="4.64806">
        <ele>424.08</ele>
        <time>2016-05-08T15:43:47Z</time>
      </trkpt>
      <trkpt lat="47.59208" lon="4.64812">
        <ele>424.08</ele>
        <time>2016-05-08T15:43:51Z</time>
      </trkpt>
      <trkpt lat="47.5922" lon="4.64824">
        <ele>423.6</ele>
        <time>2016-05-08T15:44:03Z</time>
      </trkpt>
      <trkpt lat="47.59225" lon="4.64828">
        <ele>423.6</ele>
        <time>2016-05-08T15:44:12Z</time>
      </trkpt>
      <trkpt lat="47.59234" lon="4.64837">
        <ele>423.12</ele>
        <time>2016-05-08T15:44:20Z</time>
      </trkpt>
      <trkpt lat="47.5924" lon="4.64841">
        <ele>423.12</ele>
        <time>2016-05-08T15:44:25Z</time>
      </trkpt>
      <trkpt lat="47.59255" lon="4.64855">
        <ele>422.64</ele>
        <time>2016-05-08T15:44:39Z</time>
      </trkpt>
      <trkpt lat="47.59269" lon="4.64866">
        <ele>422.16</ele>
        <time>2016-05-08T15:44:52Z</time>
      </trkpt>
      <trkpt lat="47.5928" lon="4.64869">
        <ele>421.68</ele>
        <time>2016-05-08T15:45:03Z</time>
      </trkpt>
      <trkpt lat="47.59284" lon="4.6487">
        <ele>421.68</ele>
        <time>2016-05-08T15:45:07Z</time>
      </trkpt>
      <trkpt lat="47.59298" lon="4.64871">
        <ele>421.19</ele>
        <time>2016-05-08T15:45:20Z</time>
      </trkpt>
      <trkpt lat="47.59313" lon="4.64874">
        <ele>420.71</ele>
        <time>2016-05-08T15:45:35Z</time>
      </trkpt>
      <trkpt lat="47.59318" lon="4.64874">
        <ele>420.71</ele>
        <time>2016-05-08T15:45:40Z</time>
      </trkpt>
      <trkpt lat="47.59332" lon="4.64877">
        <ele>420.23</ele>
        <time>2016-05-08T15:45:53Z</time>
      </trkpt>
      <trkpt lat="47.59344" lon="4.64881">
        <ele>419.75</ele>
        <time>2016-05-08T15:46:05Z</time>
      </trkpt>
      <trkpt lat="47.59359" lon="4.64881">
        <ele>419.27</ele>
        <time>2016-05-08T15:46:18Z</time>
      </trkpt>
      <trkpt lat="47.59371" lon="4.64882">
        <ele>419.27</ele>
        <time>2016-05-08T15:46:29Z</time>
      </trkpt>
      <trkpt lat="47.59385" lon="4.64882">
        <ele>419.27</ele>
        <time>2016-05-08T15:46:43Z</time>
      </trkpt>
      <trkpt lat="47.59398" lon="4.6488">
        <ele>419.27</ele>
        <time>2016-05-08T15:46:54Z</time>
      </trkpt>
      <trkpt lat="47.59404" lon="4.64878">
        <ele>419.27</ele>
        <time>2016-05-08T15:46:59Z</time>
      </trkpt>
      <trkpt lat="47.59419" lon="4.64873">
        <ele>418.79</ele>
        <time>2016-05-08T15:47:15Z</time>
      </trkpt>
      <trkpt lat="47.59433" lon="4.6487">
        <ele>418.79</ele>
        <time>2016-05-08T15:47:27Z</time>
      </trkpt>
      <trkpt lat="47.59435" lon="4.6487">
        <ele>418.79</ele>
        <time>2016-05-08T15:47:29Z</time>
      </trkpt>
      <trkpt lat="47.59446" lon="4.64874">
        <ele>417.83</ele>
        <time>2016-05-08T15:47:37Z</time>
      </trkpt>
      <trkpt lat="47.59461" lon="4.64879">
        <ele>416.87</ele>
        <time>2016-05-08T15:47:49Z</time>
      </trkpt>
      <trkpt lat="47.59477" lon="4.6489">
        <ele>416.39</ele>
        <time>2016-05-08T15:48:03Z</time>
      </trkpt>
      <trkpt lat="47.5949" lon="4.64896">
        <ele>414.95</ele>
        <time>2016-05-08T15:48:14Z</time>
      </trkpt>
      <trkpt lat="47.5949" lon="4.64896">
        <ele>414.95</ele>
        <time>2016-05-08T15:48:16Z</time>
      </trkpt>
      <trkpt lat="47.59495" lon="4.64899">
        <ele>413.98</ele>
        <time>2016-05-08T15:48:21Z</time>
      </trkpt>
      <trkpt lat="47.59509" lon="4.64906">
        <ele>413.02</ele>
        <time>2016-05-08T15:48:34Z</time>
      </trkpt>
      <trkpt lat="47.59525" lon="4.64913">
        <ele>412.54</ele>
        <time>2016-05-08T15:48:48Z</time>
      </trkpt>
      <trkpt lat="47.59541" lon="4.64917">
        <ele>412.54</ele>
        <time>2016-05-08T15:49:01Z</time>
      </trkpt>
      <trkpt lat="47.59555" lon="4.64921">
        <ele>412.54</ele>
        <time>2016-05-08T15:49:14Z</time>
      </trkpt>
      <trkpt lat="47.5957" lon="4.64923">
        <ele>412.06</ele>
        <time>2016-05-08T15:49:27Z</time>
      </trkpt>
      <trkpt lat="47.59587" lon="4.6493">
        <ele>410.62</ele>
        <time>2016-05-08T15:49:42Z</time>
      </trkpt>
      <trkpt lat="47.59596" lon="4.64935">
        <ele>411.1</ele>
        <time>2016-05-08T15:49:51Z</time>
      </trkpt>
      <trkpt lat="47.59603" lon="4.6494">
        <ele>410.62</ele>
        <time>2016-05-08T15:49:59Z</time>
      </trkpt>
      <trkpt lat="47.5961" lon="4.64943">
        <ele>410.62</ele>
        <time>2016-05-08T15:50:06Z</time>
      </trkpt>
      <trkpt lat="47.59625" lon="4.64956">
        <ele>409.66</ele>
        <time>2016-05-08T15:50:20Z</time>
      </trkpt>
      <trkpt lat="47.59637" lon="4.64968">
        <ele>409.18</ele>
        <time>2016-05-08T15:50:32Z</time>
      </trkpt>
      <trkpt lat="47.59646" lon="4.64974">
        <ele>408.7</ele>
        <time>2016-05-08T15:50:40Z</time>
      </trkpt>
      <trkpt lat="47.59663" lon="4.64972">
        <ele>409.18</ele>
        <time>2016-05-08T15:50:55Z</time>
      </trkpt>
      <trkpt lat="47.59677" lon="4.64966">
        <ele>409.66</ele>
        <time>2016-05-08T15:51:08Z</time>
      </trkpt>
      <trkpt lat="47.59691" lon="4.64958">
        <ele>409.66</ele>
        <time>2016-05-08T15:51:23Z</time>
      </trkpt>
      <trkpt lat="47.59707" lon="4.64951">
        <ele>410.14</ele>
        <time>2016-05-08T15:51:37Z</time>
      </trkpt>
      <trkpt lat="47.59723" lon="4.64946">
        <ele>410.14</ele>
        <time>2016-05-08T15:51:51Z</time>
      </trkpt>
      <trkpt lat="47.59739" lon="4.64939">
        <ele>410.14</ele>
        <time>2016-05-08T15:52:04Z</time>
      </trkpt>
      <trkpt lat="47.5975" lon="4.64934">
        <ele>410.14</ele>
        <time>2016-05-08T15:52:17Z</time>
      </trkpt>
      <trkpt lat="47.59766" lon="4.64926">
        <ele>410.14</ele>
        <time>2016-05-08T15:52:31Z</time>
      </trkpt>
      <trkpt lat="47.59779" lon="4.6492">
        <ele>410.14</ele>
        <time>2016-05-08T15:52:44Z</time>
      </trkpt>
      <trkpt lat="47.59793" lon="4.6491">
        <ele>410.62</ele>
        <time>2016-05-08T15:53:00Z</time>
      </trkpt>
      <trkpt lat="47.59805" lon="4.64908">
        <ele>409.18</ele>
        <time>2016-05-08T15:53:14Z</time>
      </trkpt>
      <trkpt lat="47.59807" lon="4.64909">
        <ele>409.66</ele>
        <time>2016-05-08T15:53:20Z</time>
      </trkpt>
      <trkpt lat="47.59806" lon="4.64911">
        <ele>409.66</ele>
        <time>2016-05-08T15:53:34Z</time>
      </trkpt>
      <trkpt lat="47.59806" lon="4.64912">
        <ele>409.18</ele>
        <time>2016-05-08T15:53:57Z</time>
      </trkpt>
      <trkpt lat="47.59806" lon="4.64911">
        <ele>409.66</ele>
        <time>2016-05-08T15:54:16Z</time>
      </trkpt>
      <trkpt lat="47.59806" lon="4.6491">
        <ele>409.66</ele>
        <time>2016-05-08T15:54:36Z</time>
      </trkpt>
      <trkpt lat="47.59806" lon="4.6491">
        <ele>409.66</ele>
        <time>2016-05-08T15:54:59Z</time>
      </trkpt>
      <trkpt lat="47.59806" lon="4.6491">
        <ele>410.14</ele>
        <time>2016-05-08T15:55:19Z</time>
      </trkpt>
      <trkpt lat="47.59806" lon="4.6491">
        <ele>409.66</ele>
        <time>2016-05-08T15:55:40Z</time>
      </trkpt>
      <trkpt lat="47.5981" lon="4.64911">
        <ele>409.66</ele>
        <time>2016-05-08T15:55:49Z</time>
      </trkpt>
      <trkpt lat="47.59813" lon="4.64915">
        <ele>408.7</ele>
        <time>2016-05-08T15:55:53Z</time>
      </trkpt>
      <trkpt lat="47.59814" lon="4.64936">
        <ele>407.74</ele>
        <time>2016-05-08T15:56:09Z</time>
      </trkpt>
      <trkpt lat="47.59815" lon="4.6494">
        <ele>407.74</ele>
        <time>2016-05-08T15:56:11Z</time>
      </trkpt>
      <trkpt lat="47.59816" lon="4.64944">
        <ele>407.26</ele>
        <time>2016-05-08T15:56:14Z</time>
      </trkpt>
      <trkpt lat="47.59819" lon="4.64966">
        <ele>406.77</ele>
        <time>2016-05-08T15:56:27Z</time>
      </trkpt>
      <trkpt lat="47.59825" lon="4.64986">
        <ele>405.81</ele>
        <time>2016-05-08T15:56:40Z</time>
      </trkpt>
      <trkpt lat="47.59834" lon="4.65004">
        <ele>405.33</ele>
        <time>2016-05-08T15:56:57Z</time>
      </trkpt>
      <trkpt lat="47.5984" lon="4.65017">
        <ele>405.33</ele>
        <time>2016-05-08T15:57:11Z</time>
      </trkpt>
      <trkpt lat="47.59849" lon="4.65034">
        <ele>404.37</ele>
        <time>2016-05-08T15:57:27Z</time>
      </trkpt>
      <trkpt lat="47.59858" lon="4.65043">
        <ele>403.89</ele>
        <time>2016-05-08T15:57:40Z</time>
      </trkpt>
      <trkpt lat="47.59868" lon="4.65055">
        <ele>402.93</ele>
        <time>2016-05-08T15:57:53Z</time>
      </trkpt>
      <trkpt lat="47.59879" lon="4.65066">
        <ele>401.97</ele>
        <time>2016-05-08T15:58:08Z</time>
      </trkpt>
      <trkpt lat="47.5989" lon="4.65072">
        <ele>401.01</ele>
        <time>2016-05-08T15:58:20Z</time>
      </trkpt>
      <trkpt lat="47.59899" lon="4.65078">
        <ele>400.53</ele>
        <time>2016-05-08T15:58:29Z</time>
      </trkpt>
      <trkpt lat="47.59908" lon="4.6507">
        <ele>400.53</ele>
        <time>2016-05-08T15:58:39Z</time>
      </trkpt>
      <trkpt lat="47.59915" lon="4.65057">
        <ele>401.49</ele>
        <time>2016-05-08T15:58:52Z</time>
      </trkpt>
      <trkpt lat="47.59916" lon="4.65053">
        <ele>401.01</ele>
        <time>2016-05-08T15:58:58Z</time>
      </trkpt>
      <trkpt lat="47.59917" lon="4.65042">
        <ele>402.45</ele>
        <time>2016-05-08T15:59:10Z</time>
      </trkpt>
      <trkpt lat="47.59917" lon="4.65036">
        <ele>402.45</ele>
        <time>2016-05-08T15:59:13Z</time>
      </trkpt>
      <trkpt lat="47.59907" lon="4.65014">
        <ele>402.93</ele>
        <time>2016-05-08T15:59:24Z</time>
      </trkpt>
      <trkpt lat="47.59907" lon="4.65012">
        <ele>402.45</ele>
        <time>2016-05-08T15:59:26Z</time>
      </trkpt>
      <trkpt lat="47.59916" lon="4.64995">
        <ele>403.41</ele>
        <time>2016-05-08T15:59:40Z</time>
      </trkpt>
      <trkpt lat="47.59922" lon="4.64993">
        <ele>403.41</ele>
        <time>2016-05-08T15:59:43Z</time>
      </trkpt>
      <trkpt lat="47.59925" lon="4.64978">
        <ele>403.41</ele>
        <time>2016-05-08T15:59:54Z</time>
      </trkpt>
      <trkpt lat="47.59932" lon="4.64957">
        <ele>403.41</ele>
        <time>2016-05-08T16:00:07Z</time>
      </trkpt>
      <trkpt lat="47.59935" lon="4.64948">
        <ele>403.89</ele>
        <time>2016-05-08T16:00:20Z</time>
      </trkpt>
      <trkpt lat="47.59938" lon="4.64945">
        <ele>403.41</ele>
        <time>2016-05-08T16:00:33Z</time>
      </trkpt>
      <trkpt lat="47.59945" lon="4.64946">
        <ele>403.41</ele>
        <time>2016-05-08T16:00:46Z</time>
      </trkpt>
      <trkpt lat="47.59948" lon="4.64947">
        <ele>403.41</ele>
        <time>2016-05-08T16:00:49Z</time>
      </trkpt>
      <trkpt lat="47.59959" lon="4.64959">
        <ele>403.89</ele>
        <time>2016-05-08T16:01:03Z</time>
      </trkpt>
      <trkpt lat="47.59963" lon="4.64961">
        <ele>403.41</ele>
        <time>2016-05-08T16:01:07Z</time>
      </trkpt>
      <trkpt lat="47.5998" lon="4.64976">
        <ele>402.45</ele>
        <time>2016-05-08T16:01:22Z</time>
      </trkpt>
      <trkpt lat="47.59992" lon="4.64985">
        <ele>402.45</ele>
        <time>2016-05-08T16:01:38Z</time>
      </trkpt>
      <trkpt lat="47.60003" lon="4.6499">
        <ele>401.97</ele>
        <time>2016-05-08T16:01:53Z</time>
      </trkpt>
      <trkpt lat="47.60009" lon="4.64995">
        <ele>401.97</ele>
        <time>2016-05-08T16:02:07Z</time>
      </trkpt>
      <trkpt lat="47.60011" lon="4.64995">
        <ele>401.97</ele>
        <time>2016-05-08T16:02:17Z</time>
      </trkpt>
      <trkpt lat="47.60022" lon="4.64998">
        <ele>401.49</ele>
        <time>2016-05-08T16:02:29Z</time>
      </trkpt>
      <trkpt lat="47.60028" lon="4.65006">
        <ele>401.49</ele>
        <time>2016-05-08T16:02:44Z</time>
      </trkpt>
      <trkpt lat="47.60026" lon="4.65008">
        <ele>401.01</ele>
        <time>2016-05-08T16:03:01Z</time>
      </trkpt>
      <trkpt lat="47.60026" lon="4.65007">
        <ele>401.49</ele>
        <time>2016-05-08T16:03:20Z</time>
      </trkpt>
      <trkpt lat="47.60026" lon="4.65009">
        <ele>401.01</ele>
        <time>2016-05-08T16:03:38Z</time>
      </trkpt>
      <trkpt lat="47.60028" lon="4.65008">
        <ele>407.26</ele>
        <time>2016-05-08T16:03:49Z</time>
      </trkpt>
      <trkpt lat="47.60028" lon="4.65008">
        <ele>401.01</ele>
        <time>2016-05-08T16:03:50Z</time>
      </trkpt>
      <trkpt lat="47.6003" lon="4.65008">
        <ele>395.72</ele>
        <time>2016-05-08T16:03:54Z</time>
      </trkpt>
      <trkpt lat="47.6003" lon="4.65008">
        <ele>401.97</ele>
        <time>2016-05-08T16:03:55Z</time>
      </trkpt>
      <trkpt lat="47.60031" lon="4.65009">
        <ele>398.12</ele>
        <time>2016-05-08T16:04:02Z</time>
      </trkpt>
      <trkpt lat="47.60031" lon="4.65009">
        <ele>401.01</ele>
        <time>2016-05-08T16:04:03Z</time>
      </trkpt>
      <trkpt lat="47.60032" lon="4.65009">
        <ele>401.49</ele>
        <time>2016-05-08T16:04:24Z</time>
      </trkpt>
      <trkpt lat="47.60032" lon="4.6501">
        <ele>397.16</ele>
        <time>2016-05-08T16:04:30Z</time>
      </trkpt>
      <trkpt lat="47.60033" lon="4.6501">
        <ele>404.37</ele>
        <time>2016-05-08T16:04:31Z</time>
      </trkpt>
      <trkpt lat="47.60033" lon="4.6501">
        <ele>399.57</ele>
        <time>2016-05-08T16:04:32Z</time>
      </trkpt>
      <trkpt lat="47.60033" lon="4.6501">
        <ele>405.33</ele>
        <time>2016-05-08T16:04:42Z</time>
      </trkpt>
      <trkpt lat="47.60033" lon="4.6501">
        <ele>401.49</ele>
        <time>2016-05-08T16:04:43Z</time>
      </trkpt>
      <trkpt lat="47.60033" lon="4.6501">
        <ele>395.24</ele>
        <time>2016-05-08T16:04:51Z</time>
      </trkpt>
      <trkpt lat="47.60033" lon="4.6501">
        <ele>401.97</ele>
        <time>2016-05-08T16:04:52Z</time>
      </trkpt>
      <trkpt lat="47.60032" lon="4.6501">
        <ele>401.01</ele>
        <time>2016-05-08T16:04:59Z</time>
      </trkpt>
    </trkseg>
  </trk>
</gpx>